[[{"header":{"parameterUnit":"m.s-1","parameterCategory":1,"la1":30.6,"la2":29.2853,"lo1":-89.7004,"lo2":-87.6739,"dy":0.0162,"dx":0.0183,"nx":112,"ny":82,"refTime":"2023-05-25T00:00:00:Z","depth":0,"parameterNumber":2,"parameterNumberName":"U-component_of_WINDS"},"data":[0.0,0.0,0.0,0.0,0.0,0.0,0.0,0.0,0.0,0.0,0.0,0.0,0.0,0.0,0.0,0.0,0.0,0.0,0.0,0.0,0.0,0.0,0.0,0.0,0.0,0.0,0.0,0.0,0.0,0.0,0.0,0.0,0.0,0.0,0.0,0.0,0.0,0.0,0.0,0.0,0.0,0.0,0.0,0.0,0.0,0.0,0.0,0.0,0.0,0.0,0.0,0.0,0.0,0.0,0.0,0.0,0.0,0.0,0.0,0.0,0.0,0.0,0.0,0.0,0.0,0.0,0.0,0.0,0.0,0.0,0.0,0.0,0.0,0.0,0.0,0.0,0.0,0.0,0.0,0.0,0.0,0.0,0.0,0.0,0.0,0.0,0.0,0.0,0.0,0.0,0.0,2.5836,2.8406,2.9478,2.8202,2.7795,2.5862,2.1758,0.0,0.0,0.0,0.0,0.0,0.0,0.0,0.0,0.0,0.0,0.0,0.0,0.0,0.0,0.0,0.0,0.0,0.0,0.0,0.0,0.0,0.0,0.0,0.0,0.0,0.0,0.0,0.0,0.0,0.0,0.0,0.0,0.0,0.0,0.0,0.0,0.0,0.0,0.0,0.0,0.0,0.0,0.0,0.0,0.0,0.0,0.0,0.0,0.0,0.0,0.0,0.0,0.0,0.0,0.0,0.0,0.0,0.0,0.0,0.0,0.0,0.0,0.0,0.0,0.0,0.0,0.0,0.0,0.0,0.0,0.0,0.0,0.0,0.0,0.0,0.0,0.0,0.0,0.0,0.0,0.0,0.0,0.0,0.0,0.0,0.0,0.0,0.0,0.0,0.0,0.0,0.0,0.0,0.0,0.0,0.0,0.0,0.0,0.0,0.0,0.0,0.0,0.0,0.0,2.4079,2.6843,2.8322,2.883,2.8147,2.6372,2.4214,2.1658,0.0,0.0,0.0,0.0,0.0,0.0,0.0,0.0,0.0,0.0,0.0,0.0,0.0,0.0,0.0,0.0,0.0,0.0,0.0,0.0,0.0,0.0,0.0,0.0,0.0,0.0,0.0,0.0,0.0,0.0,0.0,0.0,0.0,0.0,0.0,0.0,0.0,0.0,0.0,0.0,0.0,0.0,0.0,0.0,0.0,0.0,0.0,0.0,0.0,0.0,0.0,0.0,0.0,0.0,0.0,0.0,0.0,0.0,0.0,0.0,0.0,0.0,0.0,0.0,0.0,0.0,0.0,0.0,0.0,0.0,0.0,0.0,0.0,0.0,0.0,0.0,0.0,0.0,0.0,0.0,0.0,0.0,0.0,0.0,0.0,0.0,0.0,0.0,0.0,0.0,0.0,0.0,0.0,0.0,0.0,0.0,0.0,0.0,0.0,0.0,0.0,0.0,0.0,2.2973,2.4469,2.7071,2.8279,2.8681,2.8147,2.6071,2.3988,2.2071,2.0815,0.0,0.0,0.0,0.0,0.0,0.0,0.0,0.0,0.0,0.0,0.0,0.0,0.0,0.0,0.0,0.0,0.0,0.0,0.0,0.0,0.0,0.0,0.0,0.0,0.0,0.0,0.0,0.0,0.0,0.0,0.0,0.0,0.0,0.0,0.0,0.0,0.0,0.0,0.0,0.0,0.0,0.0,0.0,0.0,0.0,0.0,0.0,0.0,0.0,0.0,0.0,0.0,0.0,0.0,0.0,0.0,0.0,0.0,0.0,0.0,0.0,0.0,0.0,0.0,0.0,0.0,0.0,0.0,0.0,0.0,0.0,0.0,0.0,0.0,0.0,0.0,0.0,0.0,0.0,0.0,0.0,0.0,0.0,0.0,0.0,0.0,0.0,0.0,0.0,0.0,0.0,0.0,0.0,0.0,0.0,0.0,0.0,0.0,0.0,0.0,0.0,0.0,2.3782,2.5083,2.7087,2.8147,2.848,2.7971,2.5745,2.3722,2.2221,2.0024,0.0,0.0,0.0,0.0,0.0,0.0,0.0,0.0,0.0,0.0,0.0,0.0,0.0,0.0,0.0,0.0,0.0,0.0,0.0,0.0,0.0,0.0,0.0,0.0,0.0,0.0,0.0,0.0,0.0,0.0,0.0,0.0,0.0,0.0,0.0,0.0,0.0,0.0,0.0,0.0,0.0,0.0,0.0,0.0,0.0,0.0,0.0,0.0,0.0,0.0,0.0,0.0,0.0,0.0,0.0,0.0,0.0,0.0,0.0,0.0,0.0,0.0,0.0,0.0,0.0,0.0,0.0,0.0,0.0,0.0,0.0,0.0,0.0,0.0,0.0,0.0,0.0,0.0,0.0,0.0,0.0,0.0,0.0,0.0,0.0,0.0,0.0,0.0,0.0,0.0,0.0,0.0,0.0,0.0,0.0,0.0,0.0,0.0,0.0,0.0,0.0,0.0,2.4178,2.5938,2.716,2.7821,2.7946,2.7412,2.4816,2.2744,2.1633,1.9484,0.0,0.0,0.0,0.0,0.0,0.0,0.0,0.0,0.0,0.0,0.0,0.0,0.0,0.0,0.0,0.0,0.0,0.0,0.0,0.0,0.0,0.0,0.0,0.0,0.0,0.0,0.0,0.0,0.0,0.0,0.0,0.0,0.0,0.0,0.0,0.0,0.0,0.0,0.0,0.0,0.0,0.0,0.0,0.0,0.0,0.0,0.0,0.0,0.0,0.0,0.0,0.0,0.0,0.0,0.0,0.0,0.0,0.0,0.0,0.0,0.0,0.0,0.0,0.0,0.0,0.0,0.0,0.0,0.0,0.0,0.0,0.0,0.0,0.0,0.0,0.0,0.0,0.0,0.0,0.0,0.0,0.0,0.0,0.0,0.0,0.0,0.0,0.0,0.0,0.0,0.0,0.0,0.0,0.0,0.0,0.0,0.0,0.0,0.0,0.0,0.0,0.0,2.3437,2.5175,0.0,2.6977,2.6859,2.6306,2.3703,2.192,2.1532,0.0,0.0,0.0,0.0,0.0,0.0,0.0,0.0,0.0,0.0,0.0,0.0,0.0,0.0,0.0,0.0,0.0,0.0,0.0,0.0,0.0,0.0,0.0,0.0,0.0,0.0,0.0,0.0,0.0,0.0,0.0,0.0,0.0,0.0,0.0,0.0,0.0,0.0,0.0,0.0,0.0,0.0,0.0,0.0,0.0,0.0,0.0,0.0,0.0,0.0,0.0,0.0,0.0,0.0,0.0,0.0,0.0,0.0,0.0,0.0,0.0,0.0,0.0,0.0,0.0,0.0,0.0,0.0,0.0,0.0,0.0,0.0,0.0,0.0,0.0,0.0,0.0,0.0,0.0,0.0,0.0,0.0,0.0,0.0,0.0,0.0,0.0,0.0,0.0,0.0,0.0,0.0,0.0,0.0,0.0,0.0,0.0,0.0,0.0,0.0,0.0,0.0,2.1563,2.3376,2.5025,0.0,2.6499,2.6197,2.541,2.2839,2.1245,2.1245,0.0,0.0,0.0,0.0,0.0,0.0,0.0,0.0,0.0,0.0,0.0,0.0,0.0,0.0,0.0,0.0,0.0,0.0,0.0,0.0,0.0,0.0,0.0,0.0,0.0,0.0,0.0,0.0,0.0,0.0,0.0,0.0,0.0,0.0,0.0,0.0,0.0,0.0,0.0,0.0,0.0,0.0,0.0,0.0,0.0,0.0,0.0,0.0,0.0,0.0,0.0,0.0,0.0,0.0,0.0,0.0,0.0,0.0,0.0,0.0,0.0,0.0,0.0,0.0,0.0,0.0,0.0,0.0,0.0,0.0,0.0,0.0,0.0,0.0,0.0,0.0,0.0,0.0,0.0,0.0,0.0,0.0,0.0,0.0,0.0,0.0,0.0,0.0,0.0,0.0,0.0,0.0,0.0,0.0,0.0,0.0,0.0,0.0,0.0,0.0,0.0,0.0,2.2153,2.423,2.5812,2.6424,2.6474,2.6005,2.4892,2.2261,2.0691,0.0,0.0,0.0,0.0,0.0,0.0,0.0,0.0,0.0,0.0,0.0,0.0,0.0,0.0,0.0,0.0,0.0,0.0,0.0,0.0,0.0,0.0,0.0,0.0,0.0,0.0,0.0,0.0,0.0,0.0,0.0,0.0,0.0,0.0,0.0,0.0,0.0,0.0,0.0,0.0,0.0,0.0,0.0,0.0,0.0,0.0,0.0,0.0,0.0,0.0,0.0,0.0,0.0,0.0,0.0,0.0,0.0,0.0,0.0,0.0,0.0,0.0,0.0,0.0,0.0,0.0,0.0,0.0,0.0,0.0,0.0,0.0,0.0,0.0,0.0,0.0,0.0,0.0,0.0,0.0,0.0,0.0,0.0,0.0,0.0,0.0,0.0,0.0,0.0,0.0,0.0,0.0,0.0,0.0,0.0,0.0,0.0,0.0,0.0,0.0,0.0,0.0,0.0,2.2038,2.3362,2.4565,2.5736,2.5511,2.4842,2.3697,2.1443,2.0251,2.0666,0.0,0.0,0.0,0.0,0.0,0.0,0.0,0.0,0.0,0.0,0.0,0.0,0.0,0.0,0.0,0.0,0.0,0.0,0.0,0.0,0.0,0.0,0.0,0.0,0.0,0.0,0.0,0.0,0.0,0.0,0.0,0.0,0.0,0.0,0.0,0.0,0.0,0.0,0.0,0.0,0.0,0.0,0.0,0.0,0.0,0.0,0.0,0.0,0.0,0.0,0.0,0.0,0.0,0.0,0.0,0.0,0.0,0.0,0.0,0.0,0.0,0.0,0.0,0.0,0.0,0.0,0.0,0.0,0.0,0.0,0.0,0.0,0.0,0.0,0.0,0.0,0.0,0.0,0.0,0.0,0.0,0.0,0.0,0.0,0.0,0.0,0.0,0.0,0.0,0.0,0.0,0.0,0.0,0.0,0.0,0.0,0.0,0.0,0.0,0.0,0.0,0.0,2.2335,2.3425,2.4427,2.5486,2.5118,2.4249,2.2895,2.0952,1.9861,2.0025,0.0,0.0,0.0,0.0,0.0,0.0,0.0,0.0,0.0,0.0,0.0,0.0,0.0,0.0,0.0,0.0,0.0,0.0,0.0,0.0,0.0,0.0,0.0,0.0,0.0,0.0,0.0,0.0,0.0,0.0,0.0,0.0,0.0,0.0,0.0,0.0,0.0,0.0,0.0,0.0,0.0,0.0,0.0,0.0,0.0,0.0,0.0,0.0,0.0,0.0,0.0,0.0,0.0,0.0,0.0,0.0,0.0,0.0,0.0,0.0,0.0,0.0,0.0,0.0,0.0,0.0,0.0,0.0,0.0,0.0,0.0,0.0,0.0,0.0,0.0,0.0,0.0,0.0,0.0,0.0,0.0,0.0,0.0,0.0,0.0,0.0,0.0,0.0,0.0,0.0,0.0,0.0,0.0,0.0,0.0,0.0,0.0,0.0,0.0,0.0,0.0,0.0,2.281,2.3846,2.4698,2.5403,2.4987,2.4045,2.2493,2.0827,1.966,1.9108,0.0,0.0,0.0,0.0,0.0,0.0,0.0,0.0,0.0,0.0,0.0,0.0,0.0,0.0,0.0,0.0,0.0,0.0,0.0,0.0,0.0,0.0,0.0,0.0,0.0,0.0,0.0,0.0,0.0,0.0,0.0,0.0,0.0,0.0,0.0,0.0,0.0,0.0,0.0,0.0,0.0,0.0,0.0,0.0,0.0,0.0,0.0,0.0,0.0,0.0,0.0,0.0,0.0,0.0,0.0,0.0,0.0,0.0,0.0,0.0,2.0836,0.0,0.0,0.0,0.0,0.0,0.0,0.0,0.0,0.0,0.0,0.0,0.0,0.0,0.0,0.0,0.0,0.0,0.0,0.0,0.0,0.0,0.0,0.0,0.0,0.0,0.0,0.0,0.0,0.0,0.0,0.0,0.0,0.0,0.0,0.0,0.0,0.0,0.0,0.0,0.0,0.0,2.2289,2.2058,2.237,2.428,2.3975,2.3442,2.296,2.1443,2.0251,1.9685,1.8241,0.0,0.0,0.0,0.0,0.0,0.0,0.0,0.0,0.0,0.0,0.0,0.0,0.0,0.0,0.0,0.0,0.0,0.0,0.0,0.0,0.0,0.0,0.0,0.0,0.0,0.0,0.0,0.0,0.0,0.0,0.0,0.0,0.0,0.0,0.0,0.0,0.0,0.0,0.0,0.0,0.0,0.0,0.0,0.0,0.0,0.0,0.0,0.0,0.0,0.0,0.0,0.0,0.0,0.0,0.0,0.0,0.0,0.0,0.0,0.0,2.2073,0.0,0.0,0.0,0.0,0.0,0.0,0.0,0.0,0.0,0.0,0.0,0.0,0.0,0.0,0.0,0.0,0.0,0.0,0.0,0.0,0.0,0.0,0.0,0.0,0.0,0.0,0.0,0.0,0.0,0.0,0.0,0.0,0.0,0.0,0.0,0.0,0.0,0.0,0.0,0.0,2.2964,2.2933,2.3189,2.4373,2.4196,2.3568,2.2414,2.1331,2.0326,1.9472,1.838,0.0,0.0,0.0,0.0,0.0,0.0,0.0,0.0,0.0,0.0,0.0,0.0,0.0,0.0,0.0,0.0,0.0,0.0,0.0,0.0,0.0,0.0,0.0,0.0,0.0,0.0,0.0,0.0,0.0,0.0,0.0,0.0,0.0,0.0,0.0,0.0,0.0,0.0,0.0,0.0,0.0,0.0,0.0,0.0,0.0,0.0,0.0,0.0,0.0,0.0,0.0,0.0,0.0,2.7058,2.7073,2.6736,2.6849,2.6522,2.5841,2.5678,2.4934,2.3823,0.0,0.0,0.0,0.0,0.0,0.0,0.0,0.0,0.0,0.0,0.0,0.0,0.0,0.0,0.0,0.0,0.0,0.0,0.0,0.0,0.0,0.0,0.0,0.0,0.0,2.3218,2.2937,0.0,0.0,0.0,0.0,0.0,0.0,0.0,0.0,0.0,0.0,0.0,0.0,2.362,2.4163,2.4575,2.4805,2.4648,2.3866,2.2207,2.132,2.0402,1.9371,1.8694,1.8811,0.0,0.0,0.0,0.0,0.0,0.0,0.0,0.0,0.0,0.0,0.0,0.0,0.0,0.0,0.0,0.0,0.0,0.0,0.0,0.0,0.0,0.0,0.0,0.0,0.0,0.0,0.0,0.0,0.0,0.0,0.0,0.0,2.2283,2.1884,0.0,0.0,0.0,0.0,0.0,0.0,0.0,0.0,0.0,0.0,0.0,0.0,0.0,2.4777,2.4559,2.6384,2.7031,2.6541,2.8868,2.9591,2.8915,2.9498,3.0017,3.0402,2.9921,0.0,2.4654,2.3662,0.0,0.0,0.0,0.0,0.0,0.0,0.0,0.0,0.0,0.0,0.0,0.0,0.0,0.0,0.0,0.0,0.0,0.0,0.0,0.0,0.0,0.0,2.4395,2.3878,2.3797,2.3756,0.0,2.2953,2.2363,2.1695,2.1693,0.0,0.0,0.0,0.0,0.0,0.0,0.0,2.2631,2.2956,2.3618,2.4843,2.4089,2.3724,2.4326,2.2548,2.113,2.0515,1.9472,1.9211,1.996,1.9369,0.0,0.0,0.0,0.0,0.0,0.0,0.0,0.0,0.0,0.0,0.0,0.0,0.0,0.0,0.0,0.0,0.0,0.0,0.0,0.0,0.0,0.0,0.0,0.0,0.0,0.0,0.0,0.0,0.0,2.3422,2.4369,2.2921,2.4268,2.4358,0.0,0.0,0.0,0.0,0.0,0.0,0.0,0.0,0.0,2.5521,2.7122,2.811,2.8357,2.9893,3.085,3.1231,3.24,3.2713,3.2239,3.2517,3.2347,3.1785,3.1571,3.0006,2.7573,2.6677,2.5756,2.4931,0.0,0.0,0.0,0.0,2.4875,2.4827,2.5916,2.5941,0.0,0.0,0.0,0.0,0.0,0.0,0.0,0.0,0.0,0.0,0.0,0.0,0.0,2.6012,2.6244,2.6454,2.6574,2.6022,2.4911,0.0,2.3138,2.3505,2.3028,0.0,0.0,0.0,0.0,2.178,2.2525,2.3219,2.3869,2.4471,2.4304,2.4066,2.3866,2.2684,2.1594,2.0742,1.9911,1.9571,1.988,1.9642,1.9922,0.0,0.0,0.0,0.0,0.0,0.0,0.0,0.0,0.0,0.0,0.0,0.0,0.0,0.0,0.0,0.0,0.0,0.0,0.0,0.0,0.0,0.0,0.0,0.0,0.0,0.0,0.0,0.0,2.5058,2.5888,2.4294,2.6085,2.6404,0.0,0.0,0.0,0.0,0.0,0.0,2.6484,2.8251,2.8908,2.8054,2.9977,3.1252,3.1681,3.257,3.358,3.4647,3.4647,3.46,3.4536,3.4536,3.3926,3.2821,3.2566,3.1738,3.055,2.9143,2.7752,2.6468,2.6175,2.5986,2.6008,2.7172,2.7248,2.7004,2.8441,2.8494,2.7919,2.798,0.0,2.6807,2.5296,0.0,0.0,0.0,0.0,2.5211,2.5806,2.6442,2.7083,2.7834,2.8274,2.856,2.8711,2.8235,2.707,0.0,2.4551,2.4621,2.3719,0.0,0.0,0.0,0.0,2.2114,2.2715,2.3832,2.4566,2.4566,2.4827,2.4616,2.3622,2.2895,2.2046,2.0968,2.0477,2.0092,1.9801,2.003,2.0282,2.054,0.0,0.0,0.0,0.0,0.0,0.0,0.0,0.0,0.0,0.0,0.0,0.0,0.0,0.0,0.0,0.0,0.0,0.0,0.0,0.0,0.0,0.0,0.0,0.0,0.0,0.0,0.0,0.0,0.0,2.5527,2.8025,0.0,0.0,0.0,0.0,2.7783,2.8619,2.9366,2.993,3.1738,3.2597,3.2208,3.2954,3.324,3.3017,3.3067,3.3395,3.395,3.395,3.4208,3.467,3.467,3.4648,3.4527,3.3517,3.3014,3.268,2.9461,2.7831,2.723,2.616,2.6106,2.6725,2.7309,2.7892,2.8393,2.8491,2.8486,2.8676,3.0003,3.0014,2.9393,2.867,2.7126,0.0,0.0,2.564,2.5686,2.6299,2.7246,2.8147,2.8712,2.8862,2.8881,2.8893,2.8465,2.7769,0.0,2.5241,2.4179,2.425,0.0,2.2161,2.1811,2.2936,2.3671,2.3154,2.4512,2.5536,2.5536,2.5546,2.5335,2.4766,2.3697,2.2594,2.1532,2.1432,2.0943,1.9849,2.0307,2.0345,1.9863,2.11,0.0,0.0,0.0,0.0,0.0,0.0,0.0,0.0,0.0,0.0,0.0,0.0,0.0,0.0,0.0,0.0,0.0,0.0,0.0,0.0,0.0,0.0,0.0,0.0,0.0,0.0,0.0,0.0,2.8079,3.0294,0.0,2.8651,2.935,3.0278,3.1014,3.2182,3.3022,3.3403,3.4774,3.5198,3.4441,3.5378,3.5849,3.5753,3.6081,3.6182,3.6006,3.6006,3.5931,3.5803,3.5803,3.5579,3.5157,3.4427,3.3746,3.2986,3.1382,3.0554,3.0262,2.9847,2.9948,3.0371,3.0989,3.1002,3.0697,3.0742,3.037,2.9825,2.9724,2.9082,2.8315,2.8069,2.7411,2.6858,2.7198,2.7496,2.7853,2.8467,2.8919,2.9252,2.9428,2.9478,2.9286,2.8534,2.8227,2.7806,2.6759,2.5744,2.4743,2.3716,2.2702,2.2091,2.2181,2.2205,2.2225,2.2308,2.4025,2.5215,2.5215,2.5797,2.6105,2.5904,2.4531,2.3361,2.2583,2.2221,2.1669,2.0929,2.0739,2.0726,2.0904,2.1374,2.2061,0.0,0.0,0.0,0.0,0.0,0.0,0.0,0.0,0.0,0.0,0.0,0.0,0.0,0.0,0.0,0.0,0.0,0.0,0.0,0.0,0.0,0.0,0.0,0.0,0.0,0.0,3.1192,3.081,3.2885,3.3607,3.1748,3.2262,3.3138,3.4139,3.4909,3.5514,3.5867,3.6796,3.7036,3.6359,3.7086,3.7462,3.7462,3.7814,3.7814,3.7462,3.7462,3.721,3.6658,3.6658,3.6332,3.5757,3.5205,3.4552,3.3872,3.3273,3.2954,3.2765,3.201,3.1829,3.2072,3.2695,3.2554,3.2004,3.2038,3.1417,3.0536,3.0086,2.921,2.8385,2.8548,2.838,2.8216,2.8574,2.9057,2.9559,2.998,2.9776,2.9549,2.9702,2.928,2.8723,2.809,2.7973,2.7663,2.6575,2.5913,2.5153,2.3904,2.3028,2.2635,2.29,2.2305,2.201,2.248,2.4108,2.5189,2.5189,2.6129,2.67,2.6524,2.5477,2.433,2.317,2.3135,2.2633,2.1557,2.1507,2.1583,2.1784,2.2271,2.2995,2.3908,0.0,0.0,0.0,0.0,0.0,0.0,0.0,0.0,0.0,0.0,0.0,0.0,0.0,0.0,0.0,0.0,0.0,0.0,0.0,0.0,0.0,0.0,0.0,3.0293,3.1608,3.2836,3.3587,3.5711,3.645,3.4854,3.5579,3.641,3.703,3.6692,3.671,3.7188,3.7764,3.8015,3.7916,3.7966,3.7991,3.7991,3.7991,3.799,3.804,3.804,3.7739,3.7235,3.721,3.6909,3.6381,3.5757,3.5508,3.5458,3.4929,3.4703,3.4477,3.234,3.1486,3.1537,3.2064,3.2219,3.2194,3.2194,3.1491,3.0688,3.1235,3.0683,2.9955,3.0482,3.0256,2.9854,2.9854,3.0211,3.0573,3.0573,2.9715,2.8994,2.9429,2.8305,2.7207,2.7588,2.7678,2.7349,2.628,2.5723,2.5286,2.4849,2.4247,2.3809,2.3789,2.3415,0.0,2.3778,2.4893,2.5643,2.5683,2.6687,2.7135,2.66,2.6524,2.5552,2.3321,2.4199,2.3838,2.1683,2.2583,2.2844,2.2332,2.3727,2.4487,2.4583,0.0,0.0,0.0,0.0,0.0,0.0,0.0,0.0,0.0,0.0,0.0,0.0,0.0,0.0,0.0,0.0,0.0,0.0,0.0,0.0,0.0,0.0,3.2503,3.1899,3.3975,3.5546,3.5622,3.7588,3.848,3.7192,3.7715,3.8204,3.8381,3.8641,3.8388,3.746,3.8954,3.8638,3.612,3.7101,3.7625,3.7625,3.7625,3.7998,3.8668,3.8668,3.8366,3.7764,3.7386,3.7135,3.6934,3.5932,3.5508,3.5458,3.4929,3.4703,3.4653,3.4025,3.3571,3.3219,3.337,3.2918,3.2194,3.2194,3.1763,3.121,3.1336,3.1205,3.1004,3.1135,3.106,3.0959,3.0959,3.0446,2.9859,2.9859,2.8977,2.8061,2.8175,2.787,2.7436,2.707,2.6972,2.6735,2.5959,2.5726,2.5388,2.4635,2.4365,2.4141,2.3828,2.3691,0.0,2.4457,2.5546,2.6545,2.7332,2.8055,2.8229,2.7695,2.6952,2.6047,2.4983,2.4842,2.454,2.3913,2.3371,2.302,2.2869,2.4842,2.6063,0.0,0.0,0.0,0.0,0.0,0.0,0.0,0.0,0.0,0.0,0.0,0.0,0.0,0.0,0.0,0.0,0.0,0.0,0.0,0.0,0.0,0.0,3.3836,3.5545,3.5153,3.6745,3.8097,3.8391,3.9597,4.0098,3.9445,3.9077,3.8883,3.8883,3.8594,3.8034,3.7168,3.8236,3.8233,3.6838,3.7003,3.7648,3.8741,3.8105,3.8238,3.9245,3.9245,3.8919,3.8366,3.8065,3.7788,0.0,3.6836,3.656,3.651,3.5981,3.5755,0.0,0.0,0.0,0.0,0.0,3.3345,3.2566,3.2566,3.2215,3.1788,3.2035,3.1808,3.1436,3.1662,3.1232,3.0663,3.0663,3.0071,2.9427,2.9427,2.8656,2.795,2.8122,2.7644,2.7087,2.6877,2.681,2.6718,2.631,2.6245,0.0,2.5352,2.4941,2.4668,2.4609,2.4297,2.4351,2.5221,2.617,2.7099,2.7988,2.8595,2.8681,2.8147,2.7537,0.0,0.0,0.0,2.531,2.4816,2.439,0.0,0.0,0.0,2.6683,2.6989,0.0,0.0,0.0,2.762,2.8117,0.0,0.0,0.0,0.0,0.0,0.0,0.0,0.0,0.0,0.0,0.0,0.0,0.0,0.0,0.0,0.0,3.7088,3.8733,3.9292,3.9707,4.0207,4.0812,4.1198,4.125,4.0936,3.9678,3.8821,3.8732,3.7508,3.6649,3.6365,0.0,0.0,0.0,0.0,3.7471,3.9853,3.8574,3.8476,3.9539,3.9695,3.9522,3.8994,3.8919,3.8617,3.809,3.804,3.8015,3.7965,3.7487,3.7311,3.7111,3.5431,3.4803,3.4728,3.4198,3.3696,3.3291,3.3291,0.0,0.0,3.3115,3.2481,3.1631,3.2108,3.1056,2.9732,2.9732,2.944,2.916,2.916,2.8595,2.8146,2.8491,2.7507,2.6582,2.6992,2.709,2.7109,2.7148,2.7129,2.6973,2.6627,2.5825,2.5336,2.5581,2.4976,2.4914,2.6169,2.678,2.7419,2.8287,0.0,0.0,2.8247,2.8197,2.7519,2.5887,2.6281,2.608,2.4942,2.5485,2.5536,2.4992,2.6246,2.6937,2.7016,2.7757,2.8698,2.9761,2.8258,2.8496,0.0,0.0,0.0,0.0,0.0,0.0,0.0,0.0,0.0,0.0,0.0,0.0,0.0,0.0,0.0,3.7071,4.0002,4.2226,4.2765,4.215,4.0845,3.8713,4.0523,4.1034,3.8706,3.8625,3.8386,3.7576,3.7656,3.6868,3.4925,3.637,0.0,3.4034,3.4533,3.5216,3.6047,3.6668,3.7437,3.8419,0.0,0.0,3.9521,3.9095,3.8843,3.8693,3.8216,3.8015,3.799,3.7889,3.7839,3.7688,3.6008,3.5332,3.5282,3.4753,3.4477,3.4377,3.4377,3.4301,3.4226,3.4352,3.3529,3.2473,3.2569,3.16,0.0,3.048,2.9711,2.8869,2.8869,2.8061,2.7249,2.7329,2.7111,2.7012,2.7467,2.7565,2.7663,2.7988,2.78,2.7545,2.7467,2.6724,2.5942,2.5317,2.5082,2.56,2.7327,2.7277,2.787,2.9915,2.9838,2.9402,2.8806,2.8756,2.8229,2.706,2.7085,2.6633,2.5485,2.6432,2.6708,2.618,2.7487,2.8381,2.8881,2.9673,3.0184,3.0403,2.9605,2.9686,0.0,0.0,0.0,0.0,0.0,0.0,0.0,0.0,0.0,0.0,0.0,3.2345,0.0,0.0,3.8332,4.0202,4.1645,4.2443,4.2096,4.1977,4.1476,4.0126,4.0455,4.0213,3.8803,3.8204,3.7675,3.7169,3.6652,3.5811,3.4621,3.55,3.5718,3.4977,3.4691,3.517,3.6496,3.6259,3.6958,3.8508,3.9322,3.9833,4.0099,3.9823,3.9546,3.9296,3.8969,3.8843,3.8818,3.8542,3.8266,3.7914,3.7087,3.6409,3.5931,3.5655,3.5203,3.4613,3.3926,3.372,3.358,3.2909,3.223,3.1711,3.1711,3.0802,2.9759,2.9759,2.9178,2.8557,2.8557,2.8423,2.8301,2.8301,2.8301,2.8301,2.8301,2.8484,2.864,2.8613,2.8437,2.8249,2.8034,2.7467,2.6763,2.5884,2.5747,2.6357,2.8033,2.8031,2.8576,3.0398,3.0357,2.9854,2.8963,2.8656,2.8254,2.772,2.7695,2.7318,2.6482,2.7243,2.7462,2.6927,2.7828,2.8561,2.9152,2.9542,2.9889,3.0204,2.9897,2.9989,0.0,0.0,0.0,0.0,0.0,0.0,0.0,0.0,3.0163,3.1433,3.3052,3.4941,3.7179,3.8615,4.0136,4.2103,4.2215,4.1739,4.0841,4.115,4.1509,4.1669,4.036,3.9299,3.8864,3.773,3.6956,3.677,3.5638,3.4883,3.4707,3.4707,3.5348,3.6738,3.5413,3.5773,3.7954,3.6921,3.7389,3.9366,3.9603,4.0087,4.0827,4.07,4.0349,3.9848,3.9747,3.9697,3.9672,3.9245,3.8768,3.8341,3.8341,3.7566,3.6498,3.6637,3.5942,3.4751,3.3671,3.3101,3.2718,3.1606,3.1091,3.0869,3.0869,2.9995,2.8956,2.8956,2.8758,2.8535,2.8535,2.907,2.9598,2.9598,2.9598,2.95,2.9121,2.9316,2.95,2.9121,2.9043,2.8926,2.8594,2.821,2.7624,2.666,2.6445,2.7,2.8651,2.8701,2.9177,3.0747,3.0713,3.0186,2.9157,2.8555,2.8273,2.8273,2.8273,2.8021,2.7487,2.8072,2.8172,2.762,2.8147,2.8649,2.9082,2.9082,2.9308,2.9804,2.9804,2.9904,2.4487,2.5676,2.6966,2.833,2.8514,2.952,0.0,0.0,3.5204,3.6639,3.7564,3.803,3.7884,3.8394,3.9168,4.0251,4.1225,4.1906,4.2136,4.0979,4.0108,4.0142,3.9626,3.8491,3.6588,3.6621,3.6439,3.5671,3.5765,3.5527,3.4746,3.4707,3.4982,3.5559,3.5001,3.5721,3.7878,3.8803,3.9863,4.1144,4.2089,4.2346,4.1984,4.1428,4.0926,4.0374,3.9898,3.9697,3.9697,3.9622,3.9572,3.9496,3.9496,3.8328,3.677,3.7543,3.6923,3.565,3.5524,3.4608,3.3473,3.3317,3.2476,3.1512,3.1512,3.0561,2.9526,2.9526,2.9474,2.9461,2.9461,2.952,2.9598,2.9598,2.9598,2.9579,2.954,2.9559,2.9579,2.954,2.952,2.952,2.9461,2.9062,2.8359,2.7129,2.6621,2.7247,2.9557,2.9125,2.9475,3.1788,3.1165,3.0357,2.9754,2.9157,2.8806,2.8806,2.8806,2.858,2.8047,2.9026,2.9327,2.8731,2.9302,2.9628,2.9704,2.9704,2.9729,2.9804,2.9804,2.9812,2.6987,2.8484,2.9777,3.0986,3.2097,3.3416,3.5476,3.5987,3.6251,3.7195,3.7819,3.8325,3.8765,3.9513,4.0275,0.0,4.0891,4.0746,4.0939,3.9468,3.8119,3.7354,3.7555,3.7468,3.6827,3.6934,3.6894,3.6523,3.6445,3.623,3.5859,3.584,3.582,3.5762,3.582,3.6054,3.6428,3.7909,3.9258,4.0425,4.1904,4.2614,4.2663,4.2384,4.1656,4.0501,4.0275,3.9626,3.8759,3.852,3.8041,3.7449,3.722,3.664,3.601,3.691,3.6092,3.4413,3.3625,3.2962,3.2319,3.1529,3.0894,3.0447,3.0447,3.0052,2.9598,2.9598,2.9774,2.997,2.997,3.0137,3.0361,3.0361,3.0361,3.0302,3.0028,3.0156,3.0282,2.998,2.997,2.997,2.997,2.9375,2.8703,2.8176,2.7559,2.7955,3.0223,2.9886,3.0122,3.1991,3.1512,3.0859,3.0306,3.0036,2.976,2.9434,2.9428,2.9327,2.9101,2.9553,2.9679,2.9428,2.9679,2.9804,2.9804,2.9804,2.9804,2.9804,2.9804,2.9955,2.8359,3.0129,3.1659,3.2456,3.4302,3.5904,3.5867,3.6307,3.6923,3.7599,3.7677,3.7898,3.8885,3.9356,3.9778,4.0319,3.9807,3.9363,3.9363,3.8067,3.6738,3.5684,3.5898,3.6289,3.6738,3.709,3.7246,3.7129,3.7051,3.6973,3.689,3.6871,3.6641,3.6211,3.6504,3.6583,3.6283,3.7493,3.9001,4.0821,4.1791,4.2734,4.3693,4.3215,4.2261,4.0926,4.0324,3.9396,3.8268,3.7559,3.6782,3.6072,3.577,3.5324,3.4946,3.5608,3.4832,3.3328,3.2371,3.1761,3.1255,3.0289,2.997,2.997,2.997,2.997,2.997,2.997,3.0185,3.0391,3.0391,3.0644,3.0898,3.0898,3.0898,3.0801,3.0469,3.0644,3.0801,3.0449,3.0391,3.0391,3.0391,2.9766,2.9396,2.9789,2.9153,2.9183,3.0849,3.106,3.1425,3.235,3.1964,3.1411,3.0884,3.0834,3.0658,3.0276,3.0231,3.0156,3.003,3.0156,3.0105,2.9804,3.008,3.0156,3.003,3.0156,3.0231,3.0231,3.0231,3.0457,2.748,2.9328,3.1419,3.1532,3.3549,3.552,3.5518,3.6673,3.8088,3.919,3.8212,3.7285,3.7864,3.697,3.6323,3.6774,3.7469,3.7962,3.7962,3.7242,3.6558,3.6055,3.5273,3.4941,0.0,3.6562,3.7129,3.6753,3.7441,3.7715,3.7305,3.7285,3.709,3.6695,3.6695,3.7283,3.8498,3.8543,4.0267,4.3566,4.26,4.3257,4.5347,4.3743,4.2688,4.203,3.9875,3.8919,3.8753,3.7241,3.6608,3.6579,3.6579,3.5409,3.3757,3.3794,3.3499,3.312,3.3064,3.2109,3.0898,3.0869,3.0859,3.0859,3.0859,3.0859,3.0859,3.0859,3.0859,3.0859,3.0859,3.0879,3.0898,3.0898,3.0898,3.0879,3.0879,3.0879,3.0879,3.0879,3.0859,3.0859,3.0859,3.0469,3.0648,3.2093,3.1512,3.1035,3.1431,3.2835,3.3583,3.3119,3.2541,3.1964,3.1411,3.1381,3.1381,3.1356,3.1356,3.111,3.0588,3.1085,3.0859,2.9804,3.0809,3.1085,3.0563,3.111,3.1356,3.1356,3.1356,3.1381,2.8943,3.0589,3.1979,3.3321,3.5152,3.6799,3.748,3.7723,3.774,3.7535,3.6235,3.4988,3.4599,3.4369,3.4629,3.5664,3.6543,3.7285,3.7816,3.7676,3.6816,3.4941,3.5234,0.0,0.0,0.0,0.0,3.7051,3.7344,3.7578,3.7715,3.7715,3.7519,3.709,3.7363,3.8002,3.8992,4.0168,4.1171,4.202,4.1294,4.1161,4.1618,4.0695,3.9803,3.8958,3.8229,3.7296,3.6253,3.548,3.4719,3.4033,3.3776,3.3273,3.2704,3.2704,3.2424,3.2024,3.1723,3.1325,3.0898,3.0898,3.0898,3.0898,3.0898,3.0898,3.0898,3.0898,3.0898,3.0898,3.0898,3.0898,3.0898,3.0898,3.0898,3.0898,3.0898,3.0898,3.0898,3.0898,3.0898,3.0898,3.0898,3.0508,3.0906,3.3003,3.36,3.3547,3.2901,3.4067,3.4753,3.4223,3.3975,3.3624,3.3093,3.3043,3.2742,3.1989,3.1938,3.1687,3.116,3.1286,3.121,3.0859,3.1231,3.1311,3.1135,3.1311,3.1406,3.1432,3.1763,3.2139,3.0125,3.1551,3.2726,3.4335,3.5836,3.6963,3.7216,3.6978,3.6415,3.5383,3.3973,3.2715,3.1992,3.1953,3.2519,3.4004,3.4857,3.5742,3.7016,3.6836,3.6113,3.4902,3.5098,3.4902,0.0,0.0,0.0,3.6777,3.7402,3.7812,3.7874,3.8223,3.8125,3.7539,3.7773,3.8442,3.9508,3.996,4.0272,4.0421,4.0706,4.0503,3.9833,3.9542,3.8849,3.7903,3.7338,3.6411,3.5214,3.4378,3.3638,3.2988,3.2715,3.2519,3.2413,3.2413,3.2129,3.1699,3.1269,3.1016,3.0898,3.0898,3.0898,3.0898,3.0898,3.0898,3.0918,3.1074,3.1113,3.1152,3.1309,3.1348,3.1309,3.1152,3.1113,3.1074,3.0918,3.0898,3.0898,3.0898,3.0898,3.0898,3.0898,3.1526,3.2497,3.3826,3.5448,3.6183,3.5211,3.5538,3.5682,3.5353,3.4929,3.4552,3.4223,3.4198,3.385,3.3147,3.3097,3.2867,3.2315,3.229,3.219,3.2009,3.221,3.229,3.229,3.2491,3.2591,3.2591,3.2921,3.3319,3.0958,3.2218,3.3551,3.4587,3.5552,3.593,3.4916,3.4629,3.4199,3.293,3.1621,3.0586,0.0,0.0,3.0126,3.1905,3.2598,3.3691,3.5806,3.5117,3.4805,0.0,0.0,0.0,0.0,0.0,0.0,3.606,0.0,3.8379,3.7972,3.8769,3.8809,3.7952,3.7933,3.8637,4.0093,3.8317,3.7992,3.9075,4.0715,4.0985,3.9926,4.0031,3.9561,3.8634,3.7061,3.6133,3.5602,3.4027,3.3386,3.3386,3.3386,3.3184,3.2832,3.2832,3.2589,3.2179,3.1719,3.1309,3.0957,3.0957,3.0957,3.0957,3.0957,3.0957,3.1035,3.1445,3.1562,3.1641,3.2101,3.2198,3.2101,3.1641,3.1562,3.1445,3.1035,3.0937,3.0918,3.0918,3.0898,3.0908,3.0995,3.341,3.5131,3.4639,3.7052,3.8718,3.809,3.711,3.648,3.6455,3.5479,3.4803,3.4778,3.4778,3.4778,3.4753,3.4753,3.4502,3.3972,3.3947,3.3696,3.319,3.3671,3.3947,3.3947,3.4452,3.4703,3.4703,3.4728,3.4753,3.194,3.3024,3.3667,3.493,3.5196,3.5039,3.4766,3.3711,3.2472,3.1133,2.9618,2.8288,2.75,0.0,0.0,3.1807,3.3645,0.0,3.7617,3.8203,0.0,3.709,0.0,3.7183,3.6441,3.6914,0.0,0.0,3.7851,3.832,3.8848,3.9082,3.8965,3.8418,3.8418,3.9062,4.0382,3.9634,3.9371,3.9657,3.8528,3.7854,3.7543,3.6929,3.6537,3.6208,3.5176,3.4624,3.4453,3.3713,3.3386,3.3386,3.3386,3.3328,3.3262,3.3262,3.2988,3.2617,3.25,3.2207,3.1866,3.1866,3.1866,3.1866,3.1866,3.1866,3.1905,3.2003,3.2042,3.2061,3.2179,3.2198,3.2179,3.2061,3.2042,3.2003,3.1905,3.1582,3.1367,3.1367,3.1113,3.1257,3.235,3.4069,3.5627,3.657,3.8284,3.912,3.814,3.7764,3.7437,3.7034,3.6758,3.6383,3.6004,3.5979,3.5755,3.5307,3.5282,3.5054,3.4502,3.4502,3.4427,3.4276,3.4427,3.4502,3.4502,3.4628,3.4703,3.4703,3.513,3.5282,3.2793,3.3624,3.416,3.4902,3.4746,3.4238,3.3476,3.2266,3.0723,2.8652,2.735,2.6236,2.5156,2.6016,2.7682,0.0,0.0,0.0,3.7379,3.82,3.8476,0.0,3.8672,0.0,3.8125,3.834,3.8652,0.0,3.8887,3.8906,3.918,4.017,4.0528,4.0085,3.9883,3.9733,3.9648,4.0228,4.0138,3.9318,3.7896,3.7226,3.7187,3.6348,3.5859,3.5625,0.0,3.4531,3.4336,3.4082,3.3867,3.373,3.3906,3.3867,3.373,3.3926,3.3711,3.3359,3.3359,3.3066,3.2656,3.2316,3.2198,3.2198,3.2198,3.2198,3.2237,3.2413,3.2472,3.248,3.2676,3.2715,3.2676,3.2511,3.2472,3.2413,3.2237,3.2003,3.1797,3.1797,3.1465,3.1446,3.2281,3.4024,3.5563,3.6406,3.8346,3.9471,3.8818,3.8542,3.8291,3.7989,3.7713,3.7412,3.7135,3.6884,3.6708,3.661,3.6158,3.5598,3.4959,3.4422,3.3996,3.3648,3.3973,3.43,3.4568,3.5151,3.5454,3.5454,3.5755,3.5906,3.3552,3.4219,3.4766,3.4726,3.4297,3.3489,3.1738,3.0391,2.875,2.601,2.498,2.4261,2.3142,2.4121,2.5864,2.8164,0.0,3.2519,3.6499,3.7047,3.7809,3.9824,3.9707,3.9629,4.0019,3.9707,3.9785,4.0547,4.0273,3.9863,3.9394,4.1408,4.2428,4.2003,4.1605,4.0525,3.8689,4.0197,4.0157,3.8611,3.8125,3.7913,3.7969,3.709,3.6484,3.6118,0.0,0.0,3.4785,3.4726,3.4473,3.4231,3.4551,3.4473,3.4231,3.457,3.4466,3.4114,3.4114,3.3789,3.3269,3.2609,3.2374,3.2374,3.2374,3.2374,3.2452,3.2773,3.2871,3.2969,3.332,3.3386,3.3289,3.2969,3.2871,3.2773,3.2452,3.2316,3.2257,3.2218,3.1855,3.1721,3.2117,3.3962,3.5538,3.595,3.8106,3.9697,3.9697,3.9296,3.8969,3.8894,3.8417,3.809,3.8015,3.7563,3.7487,3.7965,3.7135,3.6207,3.5318,3.4337,3.3394,3.2485,3.3149,3.3857,3.4599,3.5744,3.6416,3.6607,3.6607,3.6607,3.4655,3.5156,3.5176,3.4805,3.3848,3.2559,3.082,2.8105,2.563,2.4375,2.2949,2.1913,2.207,2.3753,2.6138,2.9336,3.1328,3.3945,3.8164,3.8769,3.9316,0.0,4.0879,4.0898,4.0976,4.0917,0.0,0.0,0.0,4.0762,4.0312,4.1755,4.2428,4.2003,4.2027,4.1105,3.9138,3.9059,3.8918,3.8611,3.8125,3.8105,3.8418,3.7262,3.6851,3.7012,3.5879,0.0,3.5234,3.4863,3.4648,3.459,3.4668,3.4648,3.459,3.4668,3.4466,3.4114,3.4114,3.3789,3.3367,3.3242,3.3203,3.3203,3.3203,3.3203,3.3223,3.3301,3.332,3.3289,3.3367,3.3386,3.3367,3.3289,3.332,3.3301,3.3223,3.293,3.2578,3.2257,3.214,3.2855,3.5367,3.5783,3.6672,3.9216,3.9661,3.9697,3.9697,3.9622,3.9396,3.8944,3.8818,3.8542,3.804,3.7914,3.7914,3.799,3.7839,3.7122,3.5739,3.5497,3.4765,3.341,3.3503,3.4225,3.5544,3.5772,3.6525,3.7713,3.7713,3.7713,3.5312,3.5723,3.5508,3.459,3.3242,3.1504,2.9082,2.6387,2.3987,2.2443,2.1641,2.1132,2.0898,2.2988,2.543,2.7513,2.9512,3.2285,3.6601,3.7402,3.8359,4.0566,4.1035,4.1211,0.0,4.1211,0.0,0.0,0.0,4.1074,4.0879,4.2205,4.3261,4.3874,4.2741,4.1279,3.9608,3.8906,3.8728,3.8887,3.8457,3.8379,3.8591,3.7695,3.7324,3.7246,3.6426,0.0,3.5703,3.5488,3.5254,3.5078,3.5293,3.5254,3.5078,3.5312,3.4961,3.4394,3.4394,3.3965,3.3386,3.3386,3.3386,3.3386,3.3386,3.3386,3.3386,3.3386,3.3386,3.3386,3.3386,3.3386,3.3386,3.3386,3.3386,3.3386,3.3386,3.3262,3.3296,3.3953,3.3892,3.4491,3.6749,3.7377,3.8063,3.9536,3.995,4.0124,4.0124,3.9873,3.9597,3.9346,3.9321,3.922,3.8919,3.8617,3.8592,3.8868,3.7615,3.6357,3.5221,3.4182,3.2962,3.1556,3.2185,3.2908,3.3625,3.4308,3.542,3.6868,3.6868,3.7269,3.543,3.5767,3.5566,3.4258,3.25,3.0332,2.7376,2.4922,2.2676,2.0723,2.0508,2.0489,2.0001,2.1991,2.4157,2.5479,2.7279,3.003,3.4492,3.5644,3.7109,0.0,4.0859,0.0,4.1211,4.1211,0.0,0.0,0.0,0.0,4.1614,4.2734,4.3836,4.4918,4.3063,4.1346,3.992,3.906,3.8789,3.9199,3.8769,3.8611,3.8591,3.8125,3.7734,3.7402,3.6894,0.0,0.0,3.6021,3.582,3.5566,3.5898,3.582,3.5566,3.5864,3.5527,3.4824,3.4726,3.4199,3.3535,3.3425,3.3386,3.3386,3.3386,3.3386,3.3386,3.3386,3.3386,3.3386,3.3386,3.3386,3.3386,3.3386,3.3386,3.3481,3.3839,3.3619,3.387,3.5468,3.5542,3.5832,3.7458,3.856,3.9356,3.9713,4.0279,4.0625,4.0499,4.0149,3.9873,3.9873,3.9772,3.9697,3.9697,3.9321,3.9118,3.9208,3.7287,3.5599,3.4331,3.2779,3.1291,2.99,3.0896,3.1622,3.1931,3.3294,3.4574,3.5697,3.6341,3.7108,3.4687,3.5137,3.5137,3.3809,3.1601,2.909,2.642,2.3552,2.1054,1.9687,1.9103,1.9046,1.9766,2.0781,2.2418,2.5226,2.6537,2.8828,3.3567,3.5254,3.6992,3.9648,0.0,0.0,4.1211,0.0,0.0,0.0,0.0,0.0,4.3023,4.3371,4.3305,4.2894,4.2415,4.1476,3.992,3.906,3.8789,3.9199,3.8769,3.8611,3.8591,3.8125,3.7874,3.7777,3.7012,0.0,0.0,3.6191,3.5962,3.5942,3.5996,3.5962,3.5942,3.5982,3.5723,3.5273,3.4844,3.4394,3.3977,3.3555,3.3386,3.3386,3.3386,3.3386,3.3386,3.3386,3.3386,3.3386,3.3386,3.3386,3.3386,3.3386,3.3386,3.3808,3.5273,3.4425,3.387,3.5468,3.5764,3.6262,3.7888,3.9036,4.0238,4.1701,4.1524,4.1051,4.0549,4.0449,4.0424,4.0424,3.9998,3.9697,3.9697,3.9647,3.908,3.7796,3.7488,3.6106,3.3332,3.3057,3.2264,3.0791,3.0907,3.1618,3.298,3.4438,3.5209,3.54,3.8071,3.8696,3.4316,3.5039,3.5078,3.3718,3.1289,2.8496,2.5918,2.2988,2.0469,1.9142,1.8947,1.9141,1.9473,2.0449,2.1756,2.3493,2.4059,2.5684,2.9696,3.1094,3.3184,3.709,3.8535,0.0,0.0,0.0,0.0,0.0,0.0,0.0,4.3748,4.2733,4.2981,4.4852,4.2235,4.0629,4.0273,3.9141,3.8926,3.9609,3.8943,3.8611,3.8611,3.8398,3.8027,3.7539,3.7461,0.0,0.0,3.6367,3.625,3.5982,3.5982,3.5982,3.5982,3.5982,3.5762,3.5332,3.4863,3.4434,3.4075,3.3867,3.3809,3.3769,3.3496,3.3613,3.3809,3.3809,3.4004,3.418,3.418,3.418,3.4121,3.3867,3.4004,3.4314,3.4687,3.4465,3.4663,3.6257,3.7426,3.8551,3.9771,4.122,4.2312,4.263,4.221,4.1404,4.023,3.9776,3.9176,3.8244,3.9069,3.946,3.8916,3.8569,3.7743,3.6271,3.5321,3.432,3.3162,3.2264,3.1498,3.0928,3.0898,3.1199,3.1767,3.2379,3.3557,3.5316,3.6487,3.7687,3.293,3.3984,3.4336,3.3144,3.0655,2.7871,2.5297,2.258,2.0175,1.8732,1.8691,1.8984,1.9256,2.0039,2.1015,2.2148,2.2518,2.3867,2.7233,2.8613,3.0752,3.4752,0.0,0.0,0.0,0.0,0.0,0.0,0.0,0.0,0.0,4.2762,4.2327,4.5244,4.1531,3.9707,4.0117,3.9101,3.8982,3.9687,3.8962,3.8611,3.8611,3.8474,3.8047,3.75,0.0,0.0,0.0,3.6543,3.6406,3.5982,3.5982,3.5982,3.5982,3.5982,3.584,3.5508,3.5059,3.4707,3.4466,3.4329,3.429,3.4231,3.3887,3.4023,3.429,3.429,3.4473,3.4707,3.4707,3.4707,3.4629,3.4336,3.4473,3.474,3.4943,3.5231,3.5949,3.7562,3.9268,4.0693,4.1395,4.2899,4.3865,4.3313,4.2914,4.2149,4.0696,3.9722,3.8761,3.7657,3.8284,3.8524,3.7852,3.7325,3.6465,3.5127,3.3819,3.3004,3.2835,3.158,3.0957,3.1074,3.0957,3.0898,3.0898,3.1325,3.2379,3.4035,3.4875,3.6742,3.0128,3.1494,3.2617,3.1758,2.959,2.7018,2.4418,2.215,2.0097,1.8359,1.801,1.8281,1.9139,1.9315,1.9902,2.1622,2.2576,2.4176,2.7272,2.9149,3.0996,0.0,0.0,0.0,0.0,0.0,0.0,0.0,0.0,0.0,0.0,4.3917,4.1221,4.2769,4.0084,3.8789,3.9219,3.8789,3.8789,3.9199,3.8769,3.8611,3.8591,3.8125,3.7894,0.0,0.0,0.0,0.0,3.6714,3.6406,3.5982,3.5982,3.5982,3.5982,3.5982,3.5982,3.5957,3.5527,3.5391,3.5293,3.4844,3.4687,3.4687,3.4687,3.4687,3.4687,3.4687,3.4687,3.4707,3.4707,3.4707,3.4707,3.4687,3.4687,3.5145,3.6754,3.718,3.7762,3.9361,4.1074,4.2275,4.2305,4.3576,4.4389,4.3865,4.379,4.3388,4.2311,4.0783,3.9779,3.9779,3.7896,3.663,3.663,3.6183,3.5499,3.4459,3.3581,3.2827,3.2231,3.1377,3.1094,3.1504,3.1094,3.0898,3.0898,3.2358,3.233,3.1025,3.3951,3.6383,2.7324,2.8437,2.9031,2.7825,2.6289,2.4515,2.2479,2.1055,1.9893,1.9049,1.9107,1.9377,1.9646,2.0198,2.0977,2.2135,2.2752,2.3864,2.603,0.0,0.0,3.3094,3.796,0.0,0.0,0.0,0.0,0.0,0.0,0.0,0.0,4.6007,4.4272,4.4766,4.102,3.9062,3.9199,3.8789,3.8789,3.9199,3.8769,3.8611,3.8591,3.8125,0.0,0.0,0.0,0.0,0.0,3.7007,3.6855,3.6445,3.6133,3.5982,3.5982,3.5982,3.5982,3.5923,3.5547,3.5391,3.5371,3.5215,3.5176,3.5234,3.5508,3.541,3.5234,3.5527,3.5605,3.5605,3.5605,3.5605,3.5527,3.5234,3.5391,3.5642,3.5878,3.7119,3.8352,3.8872,4.1279,4.3136,4.2756,4.411,4.502,4.4414,4.3359,4.2131,4.0678,3.8777,3.7123,3.6017,3.5005,3.4766,3.555,3.5189,3.4295,3.2985,3.2655,3.2396,3.2229,3.1944,3.1846,3.1983,3.1866,3.1621,3.1328,3.2781,3.3797,3.4368,3.6392,3.7825,2.4473,2.6008,2.6635,2.5306,2.4141,2.2938,2.1471,2.0474,1.9781,1.9498,1.9656,1.994,2.0321,2.0713,2.1354,2.2611,2.2707,2.343,2.5693,0.0,0.0,3.3301,0.0,0.0,0.0,0.0,0.0,0.0,0.0,0.0,0.0,4.5598,4.4302,4.4395,4.0881,3.8965,3.8965,3.94,3.94,3.9002,3.9436,3.9261,3.8591,3.7969,0.0,0.0,0.0,0.0,0.0,3.6894,3.6816,3.6406,3.6133,3.5982,3.5982,3.5982,3.5982,3.5942,3.5723,3.5625,3.5625,3.5625,3.5625,3.5684,3.5903,3.584,3.5684,3.5937,3.5982,3.5982,3.5982,3.5982,3.5957,3.5684,3.584,3.6107,3.6516,3.767,3.8993,4.0278,4.2241,4.3822,4.4123,4.5091,4.539,4.4146,4.3072,4.174,3.9879,3.7816,3.6184,3.532,3.4152,3.3768,3.4718,3.4176,3.3488,3.2698,3.2374,3.2335,3.2637,3.2374,3.2276,3.2433,3.2276,3.2061,3.1758,3.2682,3.3605,3.4573,3.6719,3.7948,0.0,2.3867,2.4908,2.3694,2.2806,2.1987,2.1071,2.0291,0.0,1.9729,1.9775,2.0089,2.1128,2.1012,2.1403,2.3231,2.2746,2.3204,0.0,2.7827,0.0,0.0,0.0,0.0,0.0,0.0,0.0,0.0,0.0,0.0,0.0,4.3478,4.2156,4.2099,3.9783,3.8591,3.8611,4.0264,4.0264,3.8611,4.03,4.0228,3.8591,3.7695,0.0,0.0,0.0,0.0,0.0,3.6504,3.6426,3.6055,3.6001,3.5982,3.5982,3.5982,3.5982,3.5982,3.5982,3.5982,3.5982,3.5982,3.5982,3.5982,3.5982,3.5982,3.5982,3.5982,3.5982,3.5982,3.5982,3.5982,3.5982,3.5982,3.6084,3.6606,3.8088,3.8696,3.9856,4.2926,4.3731,4.4405,4.6029,4.6301,4.5528,4.3303,4.2871,4.1977,3.9735,3.7652,3.6561,3.6946,3.4911,3.3672,3.4114,3.334,3.3008,3.3367,3.2695,3.2598,3.3347,3.2676,3.2472,3.2832,3.2452,3.2298,3.2389,3.2279,3.2279,3.248,3.5394,3.7058,1.8617,0.0,2.0137,1.958,1.9525,1.9553,0.0,1.9524,1.9726,2.0018,2.0412,2.1027,2.2144,2.2538,2.3354,2.5402,2.504,2.5348,2.7855,0.0,0.0,0.0,0.0,0.0,0.0,0.0,0.0,0.0,0.0,0.0,0.0,4.5003,4.2918,4.1095,3.9089,3.8242,3.8611,3.9027,3.9027,3.8611,3.9027,3.9027,3.8591,3.7695,0.0,0.0,0.0,0.0,3.6523,3.6656,3.6656,3.6484,3.6152,3.5982,3.5982,3.5982,3.5982,3.5982,3.5982,3.5982,3.5982,3.5982,3.5982,3.5982,3.5982,3.5982,3.5982,3.5982,3.5982,3.5982,3.5982,3.5982,3.5982,3.5982,3.7025,3.7742,3.6789,3.9725,4.2359,4.1884,4.391,4.5823,4.621,4.6301,4.5652,4.3781,4.2426,4.0925,3.9044,3.6959,3.5693,3.5792,3.4956,3.4434,3.4551,3.3769,3.3289,3.3386,3.3242,3.3223,3.3386,3.3242,3.3164,3.3281,3.2871,3.3201,3.4346,3.2913,3.2943,3.4377,3.6421,3.7625,1.7038,1.8394,1.9561,1.8992,1.9206,1.9624,1.9825,1.968,1.9679,2.0296,2.0868,2.1565,2.2677,2.3327,2.4406,2.651,2.6562,0.0,0.0,0.0,0.0,0.0,0.0,0.0,0.0,0.0,0.0,0.0,0.0,0.0,0.0,4.4232,4.2551,3.9505,3.8248,3.7851,3.8281,3.9306,3.9405,3.8611,3.9442,3.9306,3.8262,3.7598,3.7187,0.0,0.0,0.0,3.6367,3.6367,3.6367,3.6348,3.6113,3.5982,3.5982,3.5982,3.5982,3.5982,3.5982,3.5982,3.5982,3.5982,3.5982,3.5982,3.5982,3.5982,3.5982,3.5982,3.5982,3.5982,3.5982,3.5982,3.5982,3.5982,3.6722,3.7608,3.8254,3.9953,4.1797,4.3263,4.4374,4.5373,4.615,4.6301,4.5702,4.3948,4.2264,4.0569,3.8828,3.6743,3.5469,3.5664,3.5098,3.4785,3.5,3.4394,3.3926,3.373,3.3906,3.3828,3.3406,3.3757,3.4004,3.4004,3.3594,3.3867,3.4844,3.3661,3.4097,3.61,3.697,3.8206,1.6658,1.8936,2.0834,1.9725,2.0038,2.0672,2.0896,2.0313,1.9934,2.0682,2.1306,2.2096,2.3271,2.4132,2.539,2.7562,0.0,0.0,0.0,0.0,0.0,0.0,0.0,0.0,0.0,0.0,0.0,0.0,0.0,0.0,0.0,4.2776,4.1683,3.8212,3.7524,3.7363,3.7699,3.9775,4.0019,3.8513,4.0055,3.9744,3.7874,3.7422,3.7012,0.0,0.0,0.0,3.5982,3.5982,3.5982,3.5982,3.5982,3.5982,3.5982,3.5982,3.5982,3.5982,3.5982,3.5982,3.5982,3.5982,3.5982,3.5982,3.5982,3.5982,3.6001,3.6094,3.6074,3.5982,3.5982,3.5982,3.5982,3.5982,3.6219,3.7206,4.0148,4.0051,4.0676,4.5043,4.4921,4.4559,4.6059,4.6301,4.5702,4.3948,4.2264,4.0569,3.8828,3.677,3.5625,3.5942,3.5351,3.5059,3.5449,3.5137,3.4726,3.4329,3.4531,3.4375,3.362,3.4316,3.4707,3.4707,3.4388,3.4336,3.4707,3.4368,3.5124,3.6904,3.7053,3.8507,1.8076,1.9982,2.0935,1.893,1.9584,2.0714,2.0725,2.0976,2.1203,2.1354,2.2171,2.3336,2.4933,2.6111,2.7701,0.0,0.0,3.4841,0.0,0.0,0.0,0.0,0.0,0.0,0.0,0.0,0.0,0.0,0.0,0.0,0.0,4.3104,4.1253,3.9059,3.7553,3.6832,3.6855,3.7901,3.8295,3.8027,3.8295,3.8219,3.7855,3.7129,3.6773,3.6675,0.0,3.5982,3.5982,3.5982,3.5982,3.5982,3.5982,3.5982,3.5982,3.5982,3.5982,3.5982,3.5982,3.5982,3.5982,3.5982,3.5982,3.5982,3.5982,3.5982,3.6094,3.6465,3.6309,3.5982,3.5982,3.5982,3.5982,3.5982,3.7126,3.8353,3.8894,4.1062,4.3146,4.3948,4.5074,4.5999,4.624,4.6301,4.5702,4.3948,4.2264,4.0569,3.8828,3.7032,3.5937,3.5982,3.5864,3.5806,3.5884,3.5825,3.5644,3.5215,3.4883,3.4648,3.4512,3.4629,3.4707,3.4707,3.4629,3.4629,3.4707,3.4629,3.4792,3.5125,3.6497,3.7883,1.736,1.887,1.9974,1.9258,2.0804,2.2487,2.2487,2.2211,2.2121,2.2723,2.3461,2.444,2.5829,2.7487,2.9632,3.2641,0.0,0.0,0.0,0.0,0.0,0.0,0.0,0.0,0.0,0.0,0.0,0.0,0.0,0.0,0.0,0.0,4.0604,4.0583,3.78,3.6768,3.7733,3.7401,3.7363,3.7598,3.7598,3.7461,3.7226,3.689,3.6577,3.6309,0.0,3.5982,3.5982,3.5982,3.5982,3.5982,3.5982,3.5982,3.5982,3.5982,3.5982,3.5982,3.5982,3.5982,3.5982,3.5982,3.5982,3.5982,3.5982,3.5982,3.6021,3.6269,3.6172,3.6074,3.6309,3.6191,3.5982,3.5982,3.7341,3.8861,3.979,4.1924,4.3979,4.4921,4.5762,4.6301,4.6301,4.6301,4.6029,4.5251,4.3638,4.1947,4.0213,3.8465,3.7059,3.6118,3.5982,3.5982,3.5982,3.5982,3.5903,3.5742,3.5078,3.4902,3.5391,3.5195,3.5176,3.541,3.5195,3.5176,3.541,3.5176,3.5673,3.6811,3.7577,3.904,1.6977,1.8105,1.9334,2.0037,2.182,2.3552,2.4079,2.3512,2.3236,2.4506,2.5293,2.6021,2.6909,2.9095,0.0,3.5086,3.7892,0.0,0.0,0.0,0.0,0.0,0.0,0.0,0.0,0.0,0.0,0.0,0.0,0.0,0.0,0.0,3.9683,4.0703,3.767,3.6581,3.7844,3.6987,3.6773,3.7148,3.7148,3.6992,3.6695,3.6597,3.6289,3.5879,3.5879,3.5879,3.5879,3.5879,3.6155,3.6573,3.6152,3.5982,3.5982,3.5982,3.5982,3.5982,3.5982,3.5982,3.5982,3.5982,3.5982,3.5982,3.5982,3.5982,3.6021,3.6269,3.625,3.625,3.6616,3.6504,3.6294,3.6294,3.755,3.9207,4.095,4.2702,4.4395,4.5969,4.6396,4.6451,4.6326,4.6301,4.6301,4.6301,4.4829,4.313,4.1531,3.9833,3.8128,3.648,3.6294,3.6289,3.6172,3.6527,3.6706,3.6606,3.5605,3.5312,3.5962,3.5703,3.5684,3.5982,3.5703,3.5703,3.5982,3.5703,3.6369,3.7988,3.8557,4.006,1.8406,1.9271,2.0012,2.1105,2.1532,2.2221,2.4264,2.4691,2.5067,2.6716,2.7896,2.8612,2.8706,3.1411,3.4703,3.8066,0.0,0.0,0.0,0.0,0.0,0.0,0.0,0.0,0.0,0.0,0.0,0.0,0.0,0.0,0.0,0.0,0.0,3.7646,3.6569,3.5854,3.563,3.5927,3.6289,3.6753,3.6753,3.6734,3.6695,3.625,3.584,3.543,3.543,3.543,3.543,3.543,3.663,3.8254,3.664,3.5982,3.5982,3.5982,3.5982,3.5982,3.5982,3.5982,3.5982,3.5982,3.5982,3.5982,3.5982,3.5982,3.6157,3.6992,3.6934,3.6675,3.6695,3.6934,3.7207,3.7207,3.8219,3.9608,4.1395,4.3234,4.4883,4.6069,4.6697,4.6873,4.6401,4.6301,4.6301,4.6301,4.4829,4.3216,4.1916,4.0241,3.8671,3.7359,3.7207,3.7051,3.6695,3.8085,3.8825,3.8441,3.683,3.5923,3.5982,3.5962,3.5962,3.5982,3.5962,3.5962,3.5982,3.5962,3.6064,3.6219,3.8354,3.9745,1.7277,1.8882,2.0527,2.1306,2.2523,2.3879,2.5034,2.6096,2.7326,2.9026,3.0206,3.1065,3.1436,0.0,3.585,3.7103,0.0,0.0,0.0,0.0,0.0,0.0,0.0,0.0,0.0,0.0,0.0,0.0,0.0,0.0,0.0,0.0,0.0,4.0318,3.7021,3.5627,3.657,3.566,3.5273,3.5449,3.5996,3.6269,3.625,3.582,3.5547,3.5371,3.5078,3.4961,3.498,3.5273,3.587,3.6563,3.6169,3.6674,3.7475,3.6403,3.5982,3.5982,3.5982,3.5982,3.604,3.6328,3.6426,3.6465,3.6738,3.6816,3.6875,3.7207,3.7363,3.7461,3.7461,3.8257,3.906,3.906,4.1101,4.3232,4.3882,4.5406,4.6761,4.7207,4.7481,4.7425,4.6873,4.6798,4.6798,4.6798,4.6228,4.5386,4.4191,4.346,4.2479,4.0906,4.0724,4.0638,4.0501,4.0756,4.0418,3.9172,3.8187,3.7608,3.7608,3.6573,3.5982,3.5982,3.5982,3.6152,3.6426,3.6426,3.6562,3.6886,3.9964,4.1485,1.65,1.8279,2.0301,2.0829,2.2899,2.5118,2.6364,2.7821,2.9408,3.124,3.2089,3.2767,3.3696,3.4974,0.0,0.0,0.0,0.0,0.0,0.0,0.0,0.0,0.0,0.0,0.0,0.0,0.0,0.0,0.0,0.0,0.0,0.0,0.0,0.0,3.6652,3.5196,3.6271,3.5229,3.4707,3.4707,3.5312,3.5854,3.6336,3.6037,3.6146,3.6473,3.565,3.5251,3.5271,3.5611,3.6138,3.6738,3.7187,3.7782,3.8145,3.6581,3.5982,3.5982,3.5982,3.5982,3.604,3.6367,3.6597,3.6753,3.7012,3.7187,3.7324,3.7461,3.7695,3.8057,3.8783,3.9731,4.061,4.1229,4.3541,4.5579,4.5579,4.6942,4.8134,4.7933,4.8058,4.7958,4.7224,4.7249,4.7299,4.7124,4.7249,4.691,4.5757,4.5579,4.4977,4.3398,4.3219,4.3085,4.277,4.2882,4.2369,4.0848,4.0049,3.9042,3.7842,3.664,3.6094,3.623,3.6094,3.6309,3.691,3.6773,3.7223,3.8247,4.1383,4.3071,1.65,1.7729,1.9158,1.971,2.2357,2.5569,2.8304,2.981,3.126,3.347,3.3517,3.3621,3.5207,3.5082,0.0,0.0,0.0,0.0,0.0,0.0,0.0,0.0,0.0,0.0,0.0,0.0,0.0,0.0,0.0,0.0,0.0,3.6823,3.5031,3.5766,3.5068,3.4473,3.4114,3.4473,3.4687,3.4687,3.4687,3.5548,3.7106,3.7053,3.7726,3.878,3.7174,3.6478,3.6509,3.6509,3.7701,3.957,4.0061,3.9246,3.7696,3.6447,3.6016,3.5982,3.5982,3.5982,3.5982,3.6001,3.6328,3.6714,3.6714,3.7007,3.7402,3.7777,3.793,3.8474,4.0726,4.1326,4.182,4.368,4.5087,4.6019,4.6019,4.7498,4.8642,4.8033,4.8385,4.8435,4.7299,4.755,4.7732,4.7199,4.755,4.7455,4.621,4.6052,4.5558,4.4289,4.415,4.3747,4.276,4.424,4.4785,4.3795,4.25,4.009,3.6205,3.6035,3.623,3.6729,3.625,3.6445,3.734,3.691,3.7895,4.0175,4.241,4.4142,1.7236,1.8643,2.0502,2.1805,2.4926,2.8204,3.0206,3.0909,3.2014,3.505,3.5527,3.5552,3.6055,3.6609,0.0,0.0,0.0,0.0,0.0,0.0,0.0,0.0,0.0,0.0,0.0,0.0,0.0,0.0,0.0,0.0,0.0,3.5743,3.3804,3.5724,3.4218,3.3437,3.3613,3.373,3.3809,3.3809,3.3809,3.4359,3.5418,3.5119,3.5804,3.7112,3.5145,3.5594,3.7717,3.8038,3.9437,4.1105,3.8922,3.8678,3.9236,3.6535,3.5762,3.5982,3.5982,3.5982,3.6079,3.6719,3.7012,3.7226,3.7868,3.8141,3.8259,3.834,3.9313,4.0755,4.2757,4.4208,4.5298,4.5862,4.729,4.854,4.854,4.896,4.9289,4.9138,4.9238,4.9145,4.841,4.8083,4.7983,4.8259,4.8083,4.8046,4.8481,4.8194,4.7952,4.7946,4.7645,4.7451,4.7532,4.7666,4.7074,4.5533,4.3513,4.154,3.9736,3.7881,3.7441,3.8588,3.749,3.7833,3.9686,3.9577,4.0021,4.0997,4.4279,4.5992,1.7412,1.9007,2.1144,2.2985,2.6046,2.9183,3.1537,3.2914,3.4421,3.6884,3.7034,3.6859,3.731,3.7562,0.0,0.0,0.0,0.0,0.0,0.0,0.0,0.0,0.0,0.0,0.0,0.0,0.0,0.0,0.0,0.0,0.0,3.5024,3.3155,3.5209,3.3527,3.2676,3.293,3.3086,3.3164,3.3164,3.3164,3.3437,3.4009,3.5184,3.6618,3.8045,3.6789,3.7385,3.9164,3.9462,4.0704,4.215,3.9014,3.8707,3.9617,3.6532,3.5664,3.5982,3.5982,3.6437,3.7105,3.7648,3.805,3.8432,3.8975,3.8858,3.8611,3.8611,3.989,4.1714,4.3611,4.5423,4.6988,4.774,4.8795,4.959,4.959,4.959,4.959,4.959,4.959,4.9414,4.8894,4.8661,4.8611,4.8793,4.8661,4.8812,4.9515,4.9314,4.9213,4.9565,4.9289,4.917,4.9264,4.8994,4.8255,4.6963,4.5047,4.3625,4.2885,4.0007,3.922,4.0967,3.9289,3.9626,4.2055,4.1121,4.1665,4.3555,4.5771,4.7187,1.7437,1.9133,2.127,2.3703,2.649,2.9453,3.2591,3.5326,3.7512,3.8542,3.8014,3.7688,3.8768,3.814,0.0,0.0,0.0,0.0,0.0,0.0,0.0,0.0,0.0,0.0,0.0,0.0,0.0,0.0,0.0,0.0,0.0,3.4702,3.2905,3.4265,3.3005,3.2291,3.2198,3.2693,3.2889,3.2734,3.2734,3.2734,3.2878,3.6148,3.8533,4.0046,4.0334,4.0449,4.0449,4.0593,4.155,4.2656,3.9992,3.9164,3.9122,3.6514,3.572,3.5942,3.5982,3.7159,3.8618,3.866,3.9294,4.0056,3.9927,3.9373,3.8787,3.8806,4.0136,4.1996,4.3853,4.5693,4.7509,4.9177,4.959,4.959,4.959,4.959,4.959,4.959,4.959,4.9439,4.8969,4.9213,4.9339,4.8868,4.927,4.959,4.959,4.9565,4.954,4.959,4.9565,4.9339,4.8919,4.8868,4.8642,4.8083,4.6803,4.5984,4.5797,4.2371,4.1454,4.3624,4.1544,4.1748,4.4334,4.2262,4.3168,4.6798,4.6988,4.7962,1.9032,1.9987,2.1647,2.5603,2.9654,3.3068,3.4628,3.6132,3.7286,3.7512,3.809,3.8743,3.9421,0.0,0.0,0.0,0.0,0.0,0.0,0.0,0.0,0.0,0.0,0.0,0.0,0.0,0.0,0.0,0.0,0.0,3.7235,3.4468,3.2828,3.2684,3.3128,3.3009,3.2198,3.3426,3.3467,0.0,3.2335,3.2335,3.2366,3.3124,3.433,3.5866,3.8346,3.9355,3.936,4.0648,4.1631,4.2196,4.0344,3.9367,3.885,3.7287,3.6219,3.5566,3.5898,3.7159,3.866,3.8984,4.0118,4.1198,4.0197,3.998,4.0121,4.0226,4.1823,4.3922,4.5761,4.7608,4.9112,4.9493,4.959,4.959,4.959,4.959,4.959,4.959,4.959,4.9565,4.9439,4.9163,4.8944,4.8818,4.927,4.959,4.959,4.9213,4.9113,4.954,4.9213,4.912,4.9389,4.9414,4.9364,4.9238,4.7587,4.7259,4.8635,4.519,4.3985,4.5578,4.4053,4.4233,4.6231,4.5745,4.5946,4.6832,4.8289,4.921,1.9045,2.0413,2.2663,2.7645,3.1411,3.4048,3.4603,3.5581,3.6483,3.6758,3.7713,3.8542,3.8843,0.0,0.0,0.0,0.0,0.0,0.0,0.0,0.0,0.0,0.0,0.0,0.0,0.0,0.0,0.0,0.0,3.7679,3.7114,3.5224,3.3997,3.3675,3.419,3.4197,3.3696,3.4639,3.4368,3.2931,3.362,3.3876,3.3688,3.3439,3.453,3.6745,3.8386,3.9461,4.0117,4.0954,4.1478,4.1645,4.0326,3.9244,3.8317,3.721,3.62,3.5544,3.6556,3.8199,3.9997,4.1029,4.2117,4.2778,4.1253,4.0656,4.0515,4.0654,4.2328,4.4505,4.6331,4.8191,4.959,4.959,4.959,4.959,4.959,4.959,4.959,4.959,4.959,4.959,4.959,4.9364,4.9163,4.9163,4.9414,4.959,4.959,4.9371,4.9264,4.9565,4.9339,4.9321,4.9565,4.959,4.959,4.959,4.8673,4.8575,4.9558,4.7731,4.7092,4.78,4.6214,4.6321,4.8126,4.7254,4.7254,4.8158,4.9145,4.959,1.8531,2.0977,2.4205,2.9082,3.2064,3.3746,3.3746,3.4577,3.5531,3.613,3.711,3.7889,0.0,0.0,0.0,0.0,0.0,0.0,0.0,0.0,0.0,0.0,0.0,0.0,0.0,0.0,0.0,0.0,0.0,3.7697,3.7242,3.6141,3.5377,3.5015,3.526,3.5332,3.5154,3.5633,3.524,3.3996,3.5219,3.5614,3.5283,3.4841,3.6163,3.8816,3.8816,3.9661,4.1026,4.1026,4.1076,4.1041,4.0029,3.8943,3.7799,3.6858,3.6108,3.5818,3.726,3.9399,4.1715,4.3122,4.407,4.4404,4.2637,4.1661,4.1195,4.1452,4.2919,4.4891,4.6798,4.8445,4.959,4.959,4.959,4.959,4.959,4.959,4.959,4.959,4.959,4.959,4.959,4.959,4.959,4.959,4.959,4.959,4.959,4.959,4.959,4.959,4.959,4.959,4.959,4.959,4.959,4.959,4.959,4.959,4.959,4.959,4.959,4.959,4.806,4.806,4.959,4.8027,4.8093,4.959,4.959,4.959,1.8531,2.2397,2.6457,2.858,3.1185,3.3215,3.3215,3.4048,3.4954,0.0,3.6533,0.0,0.0,0.0,0.0,0.0,0.0,0.0,0.0,0.0,0.0,0.0,0.0,0.0,0.0,0.0,0.0,0.0,3.9267,3.8424,3.6143,3.6341,3.5709,3.3879,3.5063,3.5349,3.4508,3.5366,3.5564,3.5096,3.5268,3.5356,3.5288,3.5229,3.6123,3.7694,3.7694,3.854,3.9923,3.9923,4.0199,4.0517,3.9424,3.8382,3.7392,3.673,3.6436,3.6414,3.7011,3.9604,4.2704,4.2919,4.4397,4.571,4.395,4.3662,4.4001,4.4583,4.5263,4.6275,4.8607,4.9429,4.959,4.959,4.959,4.959,4.959,4.959,4.959,4.959,4.959,4.959,4.959,4.959,4.959,4.959,4.959,4.959,4.959,4.959,4.959,4.959,4.959,4.959,4.959,4.959,4.959,4.959,4.959,4.959,4.959,4.959,4.959,4.959,4.9339,4.9339,4.959,4.9339,4.9339,4.959,4.959,4.959,1.9673,2.2698,2.5728,2.8254,3.0105,3.1406,3.2009,3.2742,3.3448,3.4048,3.4801,0.0,0.0,0.0,0.0,0.0,0.0,0.0,0.0,0.0,0.0,0.0,0.0,0.0,0.0,0.0,0.0,0.0,3.8617,3.8241,3.7093,3.729,3.7011,3.6086,3.6692,3.6839,3.642,3.6839,3.6961,3.6779,3.5154,3.5394,3.7285,3.6443,3.6584,3.7503,3.7503,3.8321,3.9697,3.9697,3.9848,4.0021,3.9857,3.9176,3.8239,3.8306,3.8132,3.7999,3.9118,4.0991,4.3068,4.4055,4.5255,4.5793,4.3107,4.33,4.4325,4.4021,4.4949,4.6564,4.8963,4.959,4.959,4.959,4.959,4.959,4.959,4.959,4.959,4.959,4.9339,4.927,4.954,4.959,4.959,4.959,4.959,4.959,4.959,4.959,4.959,4.959,4.959,4.959,4.959,4.959,4.959,4.959,4.959,4.959,4.959,4.9891,4.9916,4.9615,4.959,4.959,4.959,4.959,4.959,4.959,4.959,4.9766,1.9886,2.1884,2.3853,2.6724,2.8304,2.9453,3.0507,3.1311,3.2014,0.0,0.0,0.0,0.0,0.0,0.0,0.0,0.0,0.0,0.0,0.0,0.0,0.0,0.0,0.0,0.0,0.0,0.0,0.0,3.7914,3.7889,3.7613,3.7713,3.7739,3.7588,3.7588,3.7663,3.7789,3.7939,3.7939,3.7764,3.5708,3.6121,3.8617,3.7676,3.7479,3.7841,3.7985,3.8687,3.9697,3.9697,3.9697,3.9721,3.9854,3.942,3.8741,3.9066,3.9157,3.9323,4.0705,4.2048,4.3372,4.4813,4.5648,4.5558,4.2715,4.327,4.4689,4.3715,4.4921,4.6948,4.9067,4.959,4.959,4.959,4.959,4.959,4.959,4.959,4.959,4.959,4.9264,4.9145,4.9515,4.959,4.959,4.959,4.959,4.959,4.959,4.959,4.959,4.959,4.959,4.959,4.959,4.959,4.959,4.959,4.9715,4.9791,4.9791,5.0343,5.0444,5.0042,5.0017,4.9891,4.959,4.9741,4.9741,4.9615,4.9891,5.0167,1.8016,1.9598,2.1281,2.2985,2.5419,2.7695,2.8781,0.0,3.0964,0.0,0.0,0.0,0.0,0.0,0.0,0.0,0.0,0.0,0.0,0.0,0.0,0.0,0.0,0.0,0.0,0.0,0.0,0.0,3.7713,3.7563,3.6556,3.6959,3.7009,3.6505,3.648,3.6733,3.7261,3.7739,3.7739,3.7261,3.7591,3.7866,3.8065,3.8567,3.8793,3.8868,3.9343,3.9645,3.9697,3.9697,3.9697,3.9618,3.8613,3.8183,3.808,3.7673,3.8487,3.986,4.042,4.2029,4.3851,4.4435,4.507,4.5271,4.3959,4.4822,4.6066,4.5438,4.6507,4.8084,4.9282,4.959,4.959,4.959,4.959,4.959,4.959,4.959,4.959,4.959,4.9565,4.9565,4.959,4.959,4.959,4.959,4.959,4.959,4.959,4.959,4.959,4.959,4.959,4.959,4.959,4.959,4.959,4.959,5.0092,5.0336,5.0336,5.0921,5.1255,5.1197,5.1197,5.067,4.959,5.0117,5.0117,4.9615,5.0728,5.0921,1.7891,1.8631,1.966,2.2006,2.3612,2.4992,2.6448,2.7946,2.9208,2.9935,0.0,0.0,0.0,0.0,0.0,0.0,0.0,0.0,0.0,0.0,0.0,0.0,0.0,0.0,0.0,0.0,0.0,0.0,0.0,3.6408,3.6405,3.6207,3.6207,3.6381,3.6405,3.6482,3.6683,3.6157,3.6157,3.6683,3.6508,3.6786,3.7487,3.7713,3.8014,3.8341,3.8919,3.9396,3.9697,3.9697,3.9697,3.9645,3.93,3.9531,4.0141,3.9961,4.0738,4.1879,4.2076,4.2861,4.384,4.4041,4.4719,4.5201,4.3643,4.4652,4.6168,4.5565,4.6609,4.8159,4.9289,4.959,4.959,4.959,4.959,4.959,4.959,4.9314,4.9163,4.9515,4.9314,4.922,4.954,4.959,4.959,4.959,4.959,4.959,4.959,4.959,4.959,4.959,4.959,4.959,4.959,4.959,4.9741,5.0092,5.0285,5.0569,5.0946,5.1523,5.1649,5.1331,5.1624,5.1423,5.067,5.087,5.067,5.0142,5.0921,5.1172,1.7414,1.7777,1.8505,2.0865,2.173,2.2533,2.4582,2.5912,2.6992,0.0,0.0,0.0,0.0,0.0,0.0,0.0,0.0,0.0,0.0,0.0,0.0,0.0,0.0,0.0,0.0,0.0,0.0,0.0,0.0,0.0,3.5803,3.5431,3.5406,3.5828,3.5828,3.5828,3.5828,3.5255,3.5255,3.5828,3.5805,3.6083,3.6659,3.701,3.7387,3.7764,3.8366,3.8919,3.9446,3.9622,3.9697,3.9697,3.9697,4.0149,4.08,4.1177,4.1779,4.2484,4.2889,4.324,4.3504,4.3284,4.4132,4.4833,4.2905,4.4201,4.6168,4.5565,4.6609,4.8159,4.9289,4.959,4.959,4.959,4.959,4.959,4.959,4.9314,4.9163,4.9515,4.9289,4.9163,4.954,4.959,4.959,4.959,4.959,4.959,4.959,4.959,4.959,4.959,4.959,4.9665,4.9866,4.9866,5.0117,5.067,5.087,5.1147,5.1548,5.2076,5.2201,5.185,5.2201,5.2201,5.1825,5.1649,5.1272,5.072,5.1473,5.1825,0.0,0.0,0.0,1.9334,1.9736,2.0489,2.3251,0.0,2.4406,0.0,0.0,0.0,0.0,0.0,0.0,0.0,0.0,0.0,0.0,0.0,0.0,0.0,0.0,0.0,0.0,0.0,0.0,0.0,3.4678,3.4678,3.4703,3.4703,3.4703,3.4703,3.4678,3.4678,3.4703,3.5182,3.5182,3.4703,3.5803,3.6031,3.5533,3.6659,3.716,3.721,3.7739,3.8291,3.8894,3.9446,3.9672,3.9672,3.9697,3.9697,3.9848,4.0901,4.1302,4.1478,4.2585,4.2989,4.2912,4.2332,4.3256,4.418,4.2005,4.3669,4.6168,4.5628,4.6641,4.8159,4.9289,4.959,4.959,4.959,4.959,4.959,4.959,4.959,4.959,4.959,4.959,4.959,4.959,4.9615,4.9615,4.959,4.9615,4.9615,4.959,4.959,4.959,4.959,4.959,4.9816,5.0336,5.0386,5.067,5.1272,5.18,5.2126,5.2126,5.2594,5.2895,5.2895,5.2895,5.2895,5.2895,5.2402,5.185,5.1356,5.2402,5.287,1.65,0.0,0.0,0.0,0.0,0.0,0.0,0.0,0.0,0.0,0.0,0.0,0.0,0.0,0.0,0.0,0.0,0.0,0.0,0.0,0.0,0.0,0.0,0.0,0.0,0.0,0.0,0.0,3.4327,3.4276,3.4678,3.4703,3.4703,3.4703,3.4301,3.4324,3.4703,3.4073,3.4073,3.4703,3.4625,3.4926,3.5508,3.5832,3.6207,3.6632,3.721,3.7537,3.7738,3.8718,3.912,3.917,3.9546,3.9948,4.0299,4.06,4.1254,4.2009,4.2311,4.2663,4.3031,4.3251,4.3917,4.4569,4.435,4.5259,4.6436,4.7053,4.7539,4.8159,4.9289,4.959,4.959,4.959,4.959,4.959,4.959,4.959,4.959,4.959,4.959,4.959,4.959,4.9916,5.0067,4.9665,4.9941,5.0042,4.964,4.959,4.959,4.959,4.959,4.9816,5.0336,5.0386,5.082,5.1825,5.2026,5.2277,5.2644,5.282,5.2895,5.2895,5.2895,5.2895,5.2895,5.2744,5.2427,5.1875,5.2176,5.2519,0.0,0.0,0.0,0.0,0.0,0.0,1.9171,2.0049,0.0,0.0,0.0,0.0,0.0,0.0,0.0,0.0,0.0,0.0,0.0,0.0,0.0,0.0,0.0,0.0,0.0,3.3068,3.3319,3.3624,3.3596,3.3696,3.4022,3.4048,3.4048,3.4048,3.3721,3.3721,3.4022,3.3621,3.3621,3.4048,3.4377,3.4778,3.5182,3.5656,3.6056,3.643,3.6733,3.6859,3.6934,3.7813,3.8467,3.8944,3.9471,3.9898,4.0199,4.0399,4.1078,4.1856,4.211,4.2537,4.2978,4.2766,4.3594,4.4573,4.4447,4.5285,4.6527,4.7606,4.8234,4.8761,4.9414,4.959,4.959,4.959,4.959,4.959,4.959,4.959,4.959,4.959,4.959,4.959,4.959,5.0042,5.0218,4.9665,5.0067,5.0218,4.9665,4.959,4.969,4.9916,4.9941,5.0268,5.1046,5.1122,5.1498,5.2402,5.2418,5.2544,5.287,5.2895,5.2895,5.2895,5.2895,5.2895,5.2895,5.2895,5.2719,5.2418,5.2418,5.2594,0.0,0.0,0.0,0.0,0.0,0.0,1.8506,1.8543,1.8555,0.0,0.0,0.0,0.0,0.0,0.0,0.0,0.0,0.0,0.0,0.0,0.0,0.0,0.0,0.0,3.1406,3.1838,3.2093,3.2093,3.2641,3.3014,3.3014,3.3065,3.309,3.309,3.309,3.309,3.309,3.3571,3.3571,3.3115,3.4552,3.5029,3.4653,3.5653,3.618,3.6306,3.6306,3.6331,3.6455,3.6984,3.7838,3.8843,3.9396,3.9647,3.9747,4.0249,4.0775,4.1378,4.1909,4.2487,4.2837,4.1823,4.2881,4.4353,4.347,4.4609,4.6451,4.7581,4.8736,4.959,4.959,4.959,4.959,4.959,4.959,4.959,4.959,4.959,4.959,4.959,4.959,4.959,4.959,5.0042,5.0218,4.9665,5.0117,5.0293,4.9665,4.964,4.9866,5.0336,5.0386,5.087,5.2,5.2101,5.2352,5.287,5.2895,5.2895,5.2895,5.2895,5.2895,5.2895,5.2895,5.2895,5.2895,5.2895,5.2895,5.2895,5.2895,5.2895,0.0,0.0,0.0,0.0,0.0,0.0,1.7827,1.8304,1.8907,0.0,0.0,0.0,0.0,0.0,0.0,0.0,0.0,0.0,0.0,0.0,0.0,0.0,0.0,0.0,3.1406,3.1486,3.1562,3.1562,3.2064,3.239,3.239,3.2839,3.309,3.309,3.309,3.309,3.309,3.3215,3.3215,3.309,3.3416,3.3746,3.4073,3.4274,3.4851,3.5682,3.5682,3.5956,3.6455,3.6984,3.7612,3.8241,3.8843,3.9321,3.9697,3.9823,4.0449,4.1327,4.1428,4.2133,4.3034,4.322,4.3583,4.4084,4.4793,4.531,4.5974,4.7481,4.8736,4.959,4.959,4.959,4.959,4.959,4.959,4.959,4.959,4.959,4.959,4.959,4.959,4.959,4.959,5.0042,5.0218,4.9665,5.0469,5.0745,4.9715,4.9992,5.026,5.0386,5.0386,5.087,5.2,5.2101,5.2352,5.287,5.2895,5.2895,5.2895,5.2895,5.2895,5.2895,5.2895,5.2895,5.2895,5.2895,5.2895,5.2895,5.2895,5.2895,0.0,0.0,0.0,1.8204,0.0,0.0,0.0,1.7777,1.7904,1.8493,1.8155,0.0,0.0,0.0,0.0,0.0,0.0,0.0,0.0,0.0,0.0,0.0,0.0,0.0,3.0131,3.0683,3.111,3.1361,3.1637,3.1813,3.1813,3.234,3.2641,3.2641,3.2939,3.309,3.309,3.309,3.309,3.309,3.3366,3.3621,3.3922,3.4452,3.5004,3.5508,3.5807,3.613,3.643,3.6683,3.7135,3.7688,3.8567,3.907,3.9346,3.9597,4.0374,4.1302,4.1302,4.2057,4.3039,4.3288,4.3589,4.3915,4.4468,4.5422,4.6527,4.7606,4.8736,4.959,4.959,4.959,4.959,4.959,4.959,4.959,4.959,4.959,4.959,4.959,4.959,4.959,4.959,5.0042,5.0218,4.9665,5.0318,5.0544,4.9715,4.9841,5.0218,5.0795,5.0845,5.1297,5.2427,5.2528,5.2594,5.287,5.2895,5.2895,5.2895,5.2895,5.2895,5.2895,5.2895,5.2895,5.2895,5.2895,5.2895,5.2895,5.2895,5.2895,0.0,0.0,0.0,0.0,0.0,1.814,0.0,0.0,0.0,1.7727,1.7138,0.0,0.0,0.0,0.0,0.0,0.0,0.0,0.0,0.0,0.0,0.0,0.0,0.0,0.0,2.9484,3.0281,3.1055,3.0984,3.1009,3.1235,3.1763,3.2064,3.2064,3.2537,3.2813,3.2939,3.2939,3.2989,3.3115,3.352,3.3746,3.3771,3.4653,3.5132,3.5357,3.5855,3.618,3.6405,3.6405,3.6658,3.716,3.8291,3.8793,3.8969,3.9496,4.0299,4.1177,4.125,4.1982,4.2864,4.2964,4.3338,4.3815,4.3915,4.5342,4.7074,4.7732,4.8636,4.9464,4.9565,4.959,4.959,4.959,4.959,4.959,4.959,4.959,4.959,4.959,4.959,4.959,4.959,4.9967,5.0117,4.9665,5.0067,5.0218,4.9665,4.969,5.0142,5.1205,5.1306,5.1724,5.2795,5.2895,5.2895,5.2895,5.2895,5.2895,5.2895,5.2895,5.2895,5.2895,5.2895,5.2895,5.2895,5.2895,5.2895,5.2895,5.2895,5.2895,0.0,0.0,0.0,0.0,2.0037,0.0,0.0,0.0,1.7765,1.6876,0.0,1.6862,1.8067,0.0,0.0,0.0,0.0,0.0,0.0,0.0,0.0,0.0,0.0,0.0,0.0,2.7871,2.8316,2.9854,2.9484,2.9634,3.0638,3.121,3.1486,3.1486,3.1557,3.1813,3.2315,3.2315,3.2566,3.309,3.3165,3.319,3.319,3.3316,3.3897,3.4803,3.4853,3.5454,3.6405,3.6405,3.6455,3.6582,3.7663,3.8417,3.8969,3.9496,4.0074,4.065,4.1152,4.1731,4.2389,4.2838,4.3338,4.389,4.4364,4.5367,4.6602,4.7631,4.836,4.9019,4.9464,4.959,4.959,4.959,4.959,4.959,4.959,4.959,4.959,4.959,4.959,4.959,4.959,4.964,4.9665,4.9615,5.0067,5.0218,4.9665,5.0017,5.0569,5.1222,5.1306,5.1724,5.2795,5.2895,5.2895,5.2895,5.2895,5.2895,5.2895,5.2895,5.2895,5.2895,5.2895,5.2895,5.2895,5.2895,5.2895,5.2895,5.2895,5.2895,0.0,0.0,0.0,0.0,0.0,0.0,1.8281,0.0,1.7264,0.0,0.0,0.0,0.0,0.0,0.0,0.0,1.9133,0.0,0.0,0.0,0.0,0.0,0.0,0.0,0.0,0.0,0.0,0.0,2.7745,2.8323,2.9126,2.998,3.0608,3.0934,3.1235,3.1662,3.2194,3.2194,3.2516,3.309,3.309,3.309,3.3115,3.3416,3.3972,3.4728,3.5029,3.5629,3.6405,3.6405,3.6582,3.6934,3.7688,3.814,3.8492,3.9371,4.0049,4.0524,4.075,4.1202,4.1781,4.2336,4.2688,4.309,4.4267,4.5196,4.6125,4.7506,4.8309,4.8919,4.9464,4.959,4.959,4.959,4.959,4.959,4.959,4.959,4.959,4.959,4.959,4.959,4.959,4.959,4.959,4.959,4.9791,4.9866,4.9615,5.0067,5.0645,5.1255,5.1574,5.2076,5.282,5.2895,5.2895,5.2895,5.2895,5.2895,5.2895,5.2895,5.2895,5.2895,5.2895,5.2895,5.2895,5.2895,5.2895,5.2895,5.2895,5.2895,2.0112,0.0,0.0,0.0,0.0,0.0,0.0,0.0,0.0,0.0,0.0,0.0,0.0,0.0,1.8204,0.0,0.0,1.8594,0.0,0.0,0.0,0.0,0.0,0.0,0.0,0.0,0.0,0.0,0.0,2.6816,2.7821,2.88,2.9654,3.0357,3.0909,3.1436,3.1989,3.2139,3.2516,3.309,3.309,3.309,3.3115,3.3517,3.4048,3.4728,3.513,3.5705,3.6405,3.6405,3.6708,3.7236,3.7789,3.809,3.8366,3.9346,3.9948,4.03,4.0449,4.0951,4.163,4.206,4.2313,4.2688,4.4166,4.492,4.5598,4.723,4.8109,4.8693,4.9213,4.949,4.959,4.959,4.959,4.959,4.959,4.959,4.959,4.959,4.959,4.959,4.959,4.959,4.959,4.959,4.959,4.964,4.9791,5.0167,5.0695,5.1423,5.1875,5.2327,5.2845,5.2895,5.2895,5.2895,5.2895,5.2895,5.2895,5.2895,5.2895,5.2895,5.2895,5.2895,5.2895,5.2895,5.2895,5.2895,5.2895,5.2895,0.0,0.0,0.0,2.127,0.0,0.0,0.0,0.0,1.9409,0.0,0.0,0.0,0.0,0.0,1.8204,0.0,0.0,0.0,0.0,0.0,0.0,0.0,0.0,0.0,0.0,0.0,0.0,0.0,0.0,0.0,2.7211,2.7846,2.8674,2.9779,3.0357,3.0884,3.1411,3.1938,3.2516,3.309,3.309,3.309,3.309,3.3115,3.3696,3.4703,3.4728,3.5353,3.6405,3.6405,3.6708,3.7236,3.7789,3.8341,3.8944,3.9497,3.9697,3.9798,4.0325,4.1229,4.2187,4.2213,4.2537,4.319,4.4263,4.4614,4.4966,4.6647,4.75,4.8083,4.8693,4.922,4.959,4.959,4.959,4.959,4.959,4.959,4.959,4.959,4.959,4.959,4.959,4.959,4.959,4.959,4.959,4.9791,5.0318,5.0386,5.0845,5.195,5.2101,5.2327,5.2845,5.2895,5.2895,5.2895,5.2895,5.2895,5.2895,5.2895,5.2895,5.2895,5.2895,5.2895,5.2895,5.2895,5.2895,5.2895,5.2895,5.2895,0.0,0.0,2.2698,2.1945,0.0,0.0,0.0,0.0,0.0,0.0,0.0,0.0,0.0,0.0,0.0,0.0,0.0,0.0,0.0,0.0,0.0,0.0,0.0,0.0,0.0,0.0,0.0,0.0,0.0,0.0,0.0,2.6866,2.8072,2.9157,3.0111,3.0859,3.1386,3.1938,3.2516,3.309,3.309,3.309,3.3115,3.3467,3.4022,3.4728,3.5079,3.568,3.6405,3.6405,3.6934,3.7739,3.7939,3.8592,3.9446,3.9622,3.9697,3.9722,3.9898,4.045,4.1128,4.1505,4.1982,4.2738,4.4192,4.4589,4.4941,4.6622,4.7224,4.7575,4.8567,4.8944,4.917,4.9515,4.959,4.959,4.959,4.959,4.959,4.959,4.959,4.959,4.959,4.959,4.959,4.959,4.9916,5.0193,5.0393,5.1071,5.1674,5.2076,5.2427,5.2694,5.287,5.2895,5.2895,5.2895,5.2895,5.2895,5.2895,5.2895,5.2895,5.2895,5.2895,5.2895,5.2895,5.2895,5.2895,5.2895,5.2895,5.2895,2.1694,2.2182,0.0,2.2357,2.1769,0.0,2.0301,0.0,0.0,0.0,0.0,0.0,0.0,0.0,0.0,0.0,0.0,0.0,0.0,1.6837,0.0,0.0,0.0,0.0,0.0,0.0,0.0,0.0,0.0,0.0,0.0,0.0,2.7293,2.858,3.0086,3.106,3.1406,3.2139,3.2738,3.309,3.309,3.309,3.3115,3.3467,3.4022,3.4728,3.5079,3.568,3.6406,3.6607,3.7186,3.8015,3.8241,3.8894,3.9697,3.9697,3.9697,3.9722,3.9923,4.035,4.0876,4.1455,4.2007,4.2738,4.4192,4.4589,4.4865,4.617,4.6923,4.75,4.8058,4.8636,4.9195,4.9515,4.959,4.959,4.959,4.959,4.959,4.959,4.959,4.959,4.959,4.959,4.959,4.959,5.0067,5.0494,5.0695,5.1523,5.2176,5.2377,5.2669,5.2895,5.2895,5.2895,5.2895,5.2895,5.2895,5.2895,5.2895,5.2895,5.3071,5.3507,5.3096,5.3096,5.3507,5.3096,5.2895,5.2895,5.2895,5.2895]},{"header":{"parameterUnit":"m.s-1","parameterCategory":1,"la1":30.6,"la2":29.2853,"lo1":-89.7004,"lo2":-87.6739,"dy":0.0162,"dx":0.0183,"nx":112,"ny":82,"refTime":"2023-05-25T00:00:00:Z","depth":0,"parameterNumber":3,"parameterNumberName":"V-component_of_WINDS"},"data":[0.0,0.0,0.0,0.0,0.0,0.0,0.0,0.0,0.0,0.0,0.0,0.0,0.0,0.0,0.0,0.0,0.0,0.0,0.0,0.0,0.0,0.0,0.0,0.0,0.0,0.0,0.0,0.0,0.0,0.0,0.0,0.0,0.0,0.0,0.0,0.0,0.0,0.0,0.0,0.0,0.0,0.0,0.0,0.0,0.0,0.0,0.0,0.0,0.0,0.0,0.0,0.0,0.0,0.0,0.0,0.0,0.0,0.0,0.0,0.0,0.0,0.0,0.0,0.0,0.0,0.0,0.0,0.0,0.0,0.0,0.0,0.0,0.0,0.0,0.0,0.0,0.0,0.0,0.0,0.0,0.0,0.0,0.0,0.0,0.0,0.0,0.0,0.0,0.0,0.0,0.0,2.3727,2.9641,3.3429,3.3498,3.3125,3.0821,2.5902,0.0,0.0,0.0,0.0,0.0,0.0,0.0,0.0,0.0,0.0,0.0,0.0,0.0,0.0,0.0,0.0,0.0,0.0,0.0,0.0,0.0,0.0,0.0,0.0,0.0,0.0,0.0,0.0,0.0,0.0,0.0,0.0,0.0,0.0,0.0,0.0,0.0,0.0,0.0,0.0,0.0,0.0,0.0,0.0,0.0,0.0,0.0,0.0,0.0,0.0,0.0,0.0,0.0,0.0,0.0,0.0,0.0,0.0,0.0,0.0,0.0,0.0,0.0,0.0,0.0,0.0,0.0,0.0,0.0,0.0,0.0,0.0,0.0,0.0,0.0,0.0,0.0,0.0,0.0,0.0,0.0,0.0,0.0,0.0,0.0,0.0,0.0,0.0,0.0,0.0,0.0,0.0,0.0,0.0,0.0,0.0,0.0,0.0,0.0,0.0,0.0,0.0,0.0,0.0,2.2577,2.8754,3.2366,3.4093,3.3544,3.1464,2.8889,2.5782,0.0,0.0,0.0,0.0,0.0,0.0,0.0,0.0,0.0,0.0,0.0,0.0,0.0,0.0,0.0,0.0,0.0,0.0,0.0,0.0,0.0,0.0,0.0,0.0,0.0,0.0,0.0,0.0,0.0,0.0,0.0,0.0,0.0,0.0,0.0,0.0,0.0,0.0,0.0,0.0,0.0,0.0,0.0,0.0,0.0,0.0,0.0,0.0,0.0,0.0,0.0,0.0,0.0,0.0,0.0,0.0,0.0,0.0,0.0,0.0,0.0,0.0,0.0,0.0,0.0,0.0,0.0,0.0,0.0,0.0,0.0,0.0,0.0,0.0,0.0,0.0,0.0,0.0,0.0,0.0,0.0,0.0,0.0,0.0,0.0,0.0,0.0,0.0,0.0,0.0,0.0,0.0,0.0,0.0,0.0,0.0,0.0,0.0,0.0,0.0,0.0,0.0,0.0,2.2823,2.5785,3.1073,3.3331,3.4218,3.3544,3.1105,2.862,2.6303,2.4807,0.0,0.0,0.0,0.0,0.0,0.0,0.0,0.0,0.0,0.0,0.0,0.0,0.0,0.0,0.0,0.0,0.0,0.0,0.0,0.0,0.0,0.0,0.0,0.0,0.0,0.0,0.0,0.0,0.0,0.0,0.0,0.0,0.0,0.0,0.0,0.0,0.0,0.0,0.0,0.0,0.0,0.0,0.0,0.0,0.0,0.0,0.0,0.0,0.0,0.0,0.0,0.0,0.0,0.0,0.0,0.0,0.0,0.0,0.0,0.0,0.0,0.0,0.0,0.0,0.0,0.0,0.0,0.0,0.0,0.0,0.0,0.0,0.0,0.0,0.0,0.0,0.0,0.0,0.0,0.0,0.0,0.0,0.0,0.0,0.0,0.0,0.0,0.0,0.0,0.0,0.0,0.0,0.0,0.0,0.0,0.0,0.0,0.0,0.0,0.0,0.0,0.0,2.6734,2.8919,3.2139,3.3544,3.3979,3.3335,3.0716,2.8334,2.6482,2.389,0.0,0.0,0.0,0.0,0.0,0.0,0.0,0.0,0.0,0.0,0.0,0.0,0.0,0.0,0.0,0.0,0.0,0.0,0.0,0.0,0.0,0.0,0.0,0.0,0.0,0.0,0.0,0.0,0.0,0.0,0.0,0.0,0.0,0.0,0.0,0.0,0.0,0.0,0.0,0.0,0.0,0.0,0.0,0.0,0.0,0.0,0.0,0.0,0.0,0.0,0.0,0.0,0.0,0.0,0.0,0.0,0.0,0.0,0.0,0.0,0.0,0.0,0.0,0.0,0.0,0.0,0.0,0.0,0.0,0.0,0.0,0.0,0.0,0.0,0.0,0.0,0.0,0.0,0.0,0.0,0.0,0.0,0.0,0.0,0.0,0.0,0.0,0.0,0.0,0.0,0.0,0.0,0.0,0.0,0.0,0.0,0.0,0.0,0.0,0.0,0.0,0.0,2.7998,3.0809,3.2333,3.3155,3.3305,3.2632,2.9608,2.7165,2.5752,2.3221,0.0,0.0,0.0,0.0,0.0,0.0,0.0,0.0,0.0,0.0,0.0,0.0,0.0,0.0,0.0,0.0,0.0,0.0,0.0,0.0,0.0,0.0,0.0,0.0,0.0,0.0,0.0,0.0,0.0,0.0,0.0,0.0,0.0,0.0,0.0,0.0,0.0,0.0,0.0,0.0,0.0,0.0,0.0,0.0,0.0,0.0,0.0,0.0,0.0,0.0,0.0,0.0,0.0,0.0,0.0,0.0,0.0,0.0,0.0,0.0,0.0,0.0,0.0,0.0,0.0,0.0,0.0,0.0,0.0,0.0,0.0,0.0,0.0,0.0,0.0,0.0,0.0,0.0,0.0,0.0,0.0,0.0,0.0,0.0,0.0,0.0,0.0,0.0,0.0,0.0,0.0,0.0,0.0,0.0,0.0,0.0,0.0,0.0,0.0,0.0,0.0,0.0,2.7654,2.997,0.0,3.2079,3.1974,3.1316,2.8248,2.6123,2.5633,0.0,0.0,0.0,0.0,0.0,0.0,0.0,0.0,0.0,0.0,0.0,0.0,0.0,0.0,0.0,0.0,0.0,0.0,0.0,0.0,0.0,0.0,0.0,0.0,0.0,0.0,0.0,0.0,0.0,0.0,0.0,0.0,0.0,0.0,0.0,0.0,0.0,0.0,0.0,0.0,0.0,0.0,0.0,0.0,0.0,0.0,0.0,0.0,0.0,0.0,0.0,0.0,0.0,0.0,0.0,0.0,0.0,0.0,0.0,0.0,0.0,0.0,0.0,0.0,0.0,0.0,0.0,0.0,0.0,0.0,0.0,0.0,0.0,0.0,0.0,0.0,0.0,0.0,0.0,0.0,0.0,0.0,0.0,0.0,0.0,0.0,0.0,0.0,0.0,0.0,0.0,0.0,0.0,0.0,0.0,0.0,0.0,0.0,0.0,0.0,0.0,0.0,2.5556,2.7859,2.979,0.0,3.1511,3.1152,3.0283,2.7188,2.5262,2.5262,0.0,0.0,0.0,0.0,0.0,0.0,0.0,0.0,0.0,0.0,0.0,0.0,0.0,0.0,0.0,0.0,0.0,0.0,0.0,0.0,0.0,0.0,0.0,0.0,0.0,0.0,0.0,0.0,0.0,0.0,0.0,0.0,0.0,0.0,0.0,0.0,0.0,0.0,0.0,0.0,0.0,0.0,0.0,0.0,0.0,0.0,0.0,0.0,0.0,0.0,0.0,0.0,0.0,0.0,0.0,0.0,0.0,0.0,0.0,0.0,0.0,0.0,0.0,0.0,0.0,0.0,0.0,0.0,0.0,0.0,0.0,0.0,0.0,0.0,0.0,0.0,0.0,0.0,0.0,0.0,0.0,0.0,0.0,0.0,0.0,0.0,0.0,0.0,0.0,0.0,0.0,0.0,0.0,0.0,0.0,0.0,0.0,0.0,0.0,0.0,0.0,0.0,2.6284,2.8876,3.0761,3.1421,3.1481,3.0957,2.9698,2.65,2.4605,0.0,0.0,0.0,0.0,0.0,0.0,0.0,0.0,0.0,0.0,0.0,0.0,0.0,0.0,0.0,0.0,0.0,0.0,0.0,0.0,0.0,0.0,0.0,0.0,0.0,0.0,0.0,0.0,0.0,0.0,0.0,0.0,0.0,0.0,0.0,0.0,0.0,0.0,0.0,0.0,0.0,0.0,0.0,0.0,0.0,0.0,0.0,0.0,0.0,0.0,0.0,0.0,0.0,0.0,0.0,0.0,0.0,0.0,0.0,0.0,0.0,0.0,0.0,0.0,0.0,0.0,0.0,0.0,0.0,0.0,0.0,0.0,0.0,0.0,0.0,0.0,0.0,0.0,0.0,0.0,0.0,0.0,0.0,0.0,0.0,0.0,0.0,0.0,0.0,0.0,0.0,0.0,0.0,0.0,0.0,0.0,0.0,0.0,0.0,0.0,0.0,0.0,0.0,2.6381,2.8882,3.0573,3.0774,3.0402,2.9638,2.8304,2.5555,2.4107,2.4575,0.0,0.0,0.0,0.0,0.0,0.0,0.0,0.0,0.0,0.0,0.0,0.0,0.0,0.0,0.0,0.0,0.0,0.0,0.0,0.0,0.0,0.0,0.0,0.0,0.0,0.0,0.0,0.0,0.0,0.0,0.0,0.0,0.0,0.0,0.0,0.0,0.0,0.0,0.0,0.0,0.0,0.0,0.0,0.0,0.0,0.0,0.0,0.0,0.0,0.0,0.0,0.0,0.0,0.0,0.0,0.0,0.0,0.0,0.0,0.0,0.0,0.0,0.0,0.0,0.0,0.0,0.0,0.0,0.0,0.0,0.0,0.0,0.0,0.0,0.0,0.0,0.0,0.0,0.0,0.0,0.0,0.0,0.0,0.0,0.0,0.0,0.0,0.0,0.0,0.0,0.0,0.0,0.0,0.0,0.0,0.0,0.0,0.0,0.0,0.0,0.0,0.0,2.6795,2.8831,3.0232,3.0474,2.9967,2.8963,2.7345,2.4998,2.367,2.3838,0.0,0.0,0.0,0.0,0.0,0.0,0.0,0.0,0.0,0.0,0.0,0.0,0.0,0.0,0.0,0.0,0.0,0.0,0.0,0.0,0.0,0.0,0.0,0.0,0.0,0.0,0.0,0.0,0.0,0.0,0.0,0.0,0.0,0.0,0.0,0.0,0.0,0.0,0.0,0.0,0.0,0.0,0.0,0.0,0.0,0.0,0.0,0.0,0.0,0.0,0.0,0.0,0.0,0.0,0.0,0.0,0.0,0.0,0.0,0.0,0.0,0.0,0.0,0.0,0.0,0.0,0.0,0.0,0.0,0.0,0.0,0.0,0.0,0.0,0.0,0.0,0.0,0.0,0.0,0.0,0.0,0.0,0.0,0.0,0.0,0.0,0.0,0.0,0.0,0.0,0.0,0.0,0.0,0.0,0.0,0.0,0.0,0.0,0.0,0.0,0.0,0.0,2.7517,2.8992,3.0061,3.0543,3.0076,2.8878,2.6866,2.4848,2.343,2.2823,0.0,0.0,0.0,0.0,0.0,0.0,0.0,0.0,0.0,0.0,0.0,0.0,0.0,0.0,0.0,0.0,0.0,0.0,0.0,0.0,0.0,0.0,0.0,0.0,0.0,0.0,0.0,0.0,0.0,0.0,0.0,0.0,0.0,0.0,0.0,0.0,0.0,0.0,0.0,0.0,0.0,0.0,0.0,0.0,0.0,0.0,0.0,0.0,0.0,0.0,0.0,0.0,0.0,0.0,0.0,0.0,0.0,0.0,0.0,0.0,1.7464,0.0,0.0,0.0,0.0,0.0,0.0,0.0,0.0,0.0,0.0,0.0,0.0,0.0,0.0,0.0,0.0,0.0,0.0,0.0,0.0,0.0,0.0,0.0,0.0,0.0,0.0,0.0,0.0,0.0,0.0,0.0,0.0,0.0,0.0,0.0,0.0,0.0,0.0,0.0,0.0,0.0,2.8884,3.0712,3.1689,3.1394,3.079,2.957,2.7545,2.5555,2.4107,2.346,2.1715,0.0,0.0,0.0,0.0,0.0,0.0,0.0,0.0,0.0,0.0,0.0,0.0,0.0,0.0,0.0,0.0,0.0,0.0,0.0,0.0,0.0,0.0,0.0,0.0,0.0,0.0,0.0,0.0,0.0,0.0,0.0,0.0,0.0,0.0,0.0,0.0,0.0,0.0,0.0,0.0,0.0,0.0,0.0,0.0,0.0,0.0,0.0,0.0,0.0,0.0,0.0,0.0,0.0,0.0,0.0,0.0,0.0,0.0,0.0,0.0,1.8542,0.0,0.0,0.0,0.0,0.0,0.0,0.0,0.0,0.0,0.0,0.0,0.0,0.0,0.0,0.0,0.0,0.0,0.0,0.0,0.0,0.0,0.0,0.0,0.0,0.0,0.0,0.0,0.0,0.0,0.0,0.0,0.0,0.0,0.0,0.0,0.0,0.0,0.0,0.0,0.0,2.8902,3.0261,3.0948,3.0676,3.0317,2.9169,2.6831,2.5393,2.4197,2.3231,2.1904,0.0,0.0,0.0,0.0,0.0,0.0,0.0,0.0,0.0,0.0,0.0,0.0,0.0,0.0,0.0,0.0,0.0,0.0,0.0,0.0,0.0,0.0,0.0,0.0,0.0,0.0,0.0,0.0,0.0,0.0,0.0,0.0,0.0,0.0,0.0,0.0,0.0,0.0,0.0,0.0,0.0,0.0,0.0,0.0,0.0,0.0,0.0,0.0,0.0,0.0,0.0,0.0,0.0,2.3651,2.4457,2.5622,2.573,2.6234,2.6905,2.3841,2.1867,2.0823,0.0,0.0,0.0,0.0,0.0,0.0,0.0,0.0,0.0,0.0,0.0,0.0,0.0,0.0,0.0,0.0,0.0,0.0,0.0,0.0,0.0,0.0,0.0,0.0,0.0,2.2009,2.1624,0.0,0.0,0.0,0.0,0.0,0.0,0.0,0.0,0.0,0.0,0.0,0.0,2.8622,2.9541,3.0112,3.0125,2.99,2.8824,2.6494,2.5352,2.4287,2.3112,2.2303,2.1379,0.0,0.0,0.0,0.0,0.0,0.0,0.0,0.0,0.0,0.0,0.0,0.0,0.0,0.0,0.0,0.0,0.0,0.0,0.0,0.0,0.0,0.0,0.0,0.0,0.0,0.0,0.0,0.0,0.0,0.0,0.0,0.0,1.8657,1.8343,0.0,0.0,0.0,0.0,0.0,0.0,0.0,0.0,0.0,0.0,0.0,0.0,0.0,2.3771,2.5156,2.6703,2.7327,2.7097,2.9026,2.985,2.9747,3.0215,3.0746,3.1243,3.0183,0.0,2.4843,2.2676,0.0,0.0,0.0,0.0,0.0,0.0,0.0,0.0,0.0,0.0,0.0,0.0,0.0,0.0,0.0,0.0,0.0,0.0,0.0,0.0,0.0,0.0,2.5097,2.4565,2.4535,2.4466,0.0,2.1264,1.8744,1.8204,1.9045,0.0,0.0,0.0,0.0,0.0,0.0,0.0,2.936,3.1024,3.2137,3.2193,3.1146,3.0094,2.9152,2.6871,2.5154,2.4395,2.3231,2.2222,2.1498,2.0014,0.0,0.0,0.0,0.0,0.0,0.0,0.0,0.0,0.0,0.0,0.0,0.0,0.0,0.0,0.0,0.0,0.0,0.0,0.0,0.0,0.0,0.0,0.0,0.0,0.0,0.0,0.0,0.0,0.0,1.961,2.0425,1.9233,2.0363,2.0439,0.0,0.0,0.0,0.0,0.0,0.0,0.0,0.0,0.0,2.5633,2.7181,2.8512,2.9525,3.0921,3.1842,3.2235,3.3223,3.4061,3.4724,3.4946,3.5262,3.5613,3.5333,3.3693,3.0995,2.7564,2.5063,2.3325,0.0,0.0,0.0,0.0,2.1458,2.2281,2.3232,2.3901,0.0,0.0,0.0,0.0,0.0,0.0,0.0,0.0,0.0,0.0,0.0,0.0,0.0,2.8139,2.8297,2.8368,2.7609,2.5795,2.3743,0.0,2.232,2.3174,2.3484,0.0,0.0,0.0,0.0,3.0046,3.1146,3.1703,3.2001,3.2035,3.083,2.962,2.8569,2.7063,2.5734,2.4664,2.3729,2.2789,2.1838,2.0994,2.0675,0.0,0.0,0.0,0.0,0.0,0.0,0.0,0.0,0.0,0.0,0.0,0.0,0.0,0.0,0.0,0.0,0.0,0.0,0.0,0.0,0.0,0.0,0.0,0.0,0.0,0.0,0.0,0.0,2.1425,2.2257,2.0453,2.2328,2.2676,0.0,0.0,0.0,0.0,0.0,0.0,2.5603,2.7371,2.8876,2.992,3.1866,3.3294,3.4123,3.5003,3.5931,3.6912,3.6912,3.7595,3.8865,3.8865,3.8985,3.9158,3.8811,3.7823,3.6168,3.1734,2.8426,2.6067,2.5416,2.4312,2.3188,2.4172,2.5077,2.602,2.7286,2.8184,2.8535,2.7257,0.0,2.5718,2.4189,0.0,0.0,0.0,0.0,2.8495,2.9168,3.0687,3.1886,3.1495,3.1783,3.1894,3.0857,3.0179,2.8808,0.0,2.5815,2.6606,2.6633,0.0,0.0,0.0,0.0,3.1915,3.2782,3.2465,3.216,3.216,3.0762,2.9368,2.8214,2.7345,2.6273,2.4933,2.4377,2.3577,2.2381,2.2124,2.1893,2.1597,0.0,0.0,0.0,0.0,0.0,0.0,0.0,0.0,0.0,0.0,0.0,0.0,0.0,0.0,0.0,0.0,0.0,0.0,0.0,0.0,0.0,0.0,0.0,0.0,0.0,0.0,0.0,0.0,0.0,2.1658,2.5151,0.0,0.0,0.0,0.0,2.605,2.8557,3.0343,3.0993,3.2723,3.4388,3.581,3.6559,3.7612,3.9044,3.9104,3.9492,4.0148,4.0148,4.0543,4.1227,4.1227,4.1246,4.1194,3.99,3.9302,3.8817,3.3705,3.1079,3.0043,2.7627,2.6975,2.7463,2.8094,2.8726,2.9274,2.9342,2.9401,2.9598,3.0431,3.031,2.9716,2.9112,2.8648,0.0,0.0,2.9366,3.051,3.1169,3.2363,3.3544,3.4141,3.4321,3.4305,3.4244,3.3736,3.2121,0.0,2.8624,2.9528,2.9418,0.0,3.2357,3.1698,3.3294,3.4401,3.3808,3.3661,3.3581,3.3581,3.1688,3.0193,2.9548,2.8304,2.6986,2.5633,2.5513,2.4903,2.3577,2.308,2.3047,2.3463,2.1216,0.0,0.0,0.0,0.0,0.0,0.0,0.0,0.0,0.0,0.0,0.0,0.0,0.0,0.0,0.0,0.0,0.0,0.0,0.0,0.0,0.0,0.0,0.0,0.0,0.0,0.0,0.0,0.0,2.7324,3.0031,0.0,2.8247,2.9318,3.0543,3.1354,3.2999,3.4685,3.6254,3.7701,3.9006,4.0192,4.124,4.202,4.2562,4.3,4.312,4.291,4.291,4.2821,4.2622,4.2622,4.2402,4.1991,4.1074,4.0217,3.9224,3.6948,3.5032,3.3463,3.2573,3.1732,3.1109,3.1707,3.2455,3.3171,3.3075,3.3471,3.3748,3.2367,3.1152,3.0265,3.0067,3.051,3.1205,3.1634,3.2407,3.323,3.3888,3.4426,3.4861,3.507,3.513,3.529,3.5751,3.5646,3.5232,3.4365,3.3175,3.2319,3.2308,3.3265,3.414,3.4361,3.5364,3.618,3.6404,3.5577,3.4985,3.4985,3.2687,3.1076,3.0837,2.9235,2.7872,2.6944,2.6482,2.5824,2.4915,2.4309,2.4268,2.4885,2.3224,2.2572,0.0,0.0,0.0,0.0,0.0,0.0,0.0,0.0,0.0,0.0,0.0,0.0,0.0,0.0,0.0,0.0,0.0,0.0,0.0,0.0,0.0,0.0,0.0,0.0,0.0,0.0,3.1672,3.2044,3.4654,3.553,3.3309,3.4221,3.5381,3.637,3.7682,3.9141,4.0764,4.182,4.2699,4.3379,4.4197,4.4646,4.4646,4.5065,4.5065,4.4646,4.4646,4.4296,4.3638,4.3638,4.3299,4.2661,4.2002,4.1224,4.0367,3.9697,3.8585,3.7197,3.6301,3.5311,3.4506,3.51,3.5761,3.6254,3.6172,3.63,3.6231,3.461,3.3198,3.2154,3.2375,3.2936,3.3589,3.4053,3.4667,3.5266,3.5729,3.6001,3.6287,3.6516,3.6605,3.6846,3.7575,3.776,3.7987,3.8803,3.7267,3.5797,3.5565,3.6277,3.7074,3.7599,3.7819,3.8171,3.8937,3.7301,3.6057,3.6057,3.3519,3.175,3.154,3.0329,2.8996,2.7675,2.7602,2.7003,2.5663,2.5603,2.5693,2.5932,2.4626,2.3734,2.3265,0.0,0.0,0.0,0.0,0.0,0.0,0.0,0.0,0.0,0.0,0.0,0.0,0.0,0.0,0.0,0.0,0.0,0.0,0.0,0.0,0.0,0.0,0.0,3.1403,3.4456,3.6349,3.5549,3.8802,3.9821,3.6608,3.8658,4.0437,4.1036,4.2583,4.3798,4.4417,4.5056,4.5406,4.5438,4.5447,4.5426,4.5426,4.5426,4.5376,4.5334,4.5334,4.4975,4.4326,4.4296,4.3938,4.3309,4.2661,4.241,4.2351,4.1673,4.1403,4.1134,3.8542,3.7524,3.7584,3.8212,3.8439,3.8409,3.8409,3.7571,3.6613,3.7225,3.6567,3.5699,3.6327,3.6058,3.5579,3.5579,3.6044,3.6557,3.6557,3.7107,3.7871,3.857,3.8824,3.9127,3.9908,4.0084,4.0309,4.1152,4.072,3.9979,3.9146,4.0254,4.1238,4.1204,4.0608,0.0,4.103,3.8608,3.6836,3.6808,3.4273,3.2303,3.163,3.154,3.0418,2.7854,2.8903,2.844,2.5812,2.6944,2.7285,2.6644,2.525,2.3958,2.2724,0.0,0.0,0.0,0.0,0.0,0.0,0.0,0.0,0.0,0.0,0.0,0.0,0.0,0.0,0.0,0.0,0.0,0.0,0.0,0.0,0.0,0.0,3.6019,3.5195,3.7899,4.0266,4.0978,4.3719,4.4807,4.2926,4.3867,4.4632,4.4789,4.5696,4.662,4.7518,4.7519,4.7927,4.8981,4.8242,4.7835,4.7835,4.7835,4.7239,4.6031,4.6031,4.5672,4.5005,4.4506,4.4207,4.3967,4.287,4.241,4.2351,4.1673,4.1403,4.1343,4.0595,4.0008,3.9589,3.9768,3.923,3.8409,3.8409,3.7853,3.7195,3.7345,3.7148,3.6909,3.7105,3.7015,3.6896,3.6896,3.7472,3.809,3.809,3.8716,3.9385,3.9592,3.9664,4.006,4.1386,4.1683,4.2067,4.3417,4.3511,4.2939,4.1614,4.1727,4.1813,4.1271,4.1035,0.0,3.9668,3.8367,3.73,3.6727,3.5034,3.3679,3.3006,3.2049,3.0972,2.9774,2.9638,2.9279,2.853,2.7914,2.7495,2.7315,2.6292,2.5809,0.0,0.0,0.0,0.0,0.0,0.0,0.0,0.0,0.0,0.0,0.0,0.0,0.0,0.0,0.0,0.0,0.0,0.0,0.0,0.0,0.0,0.0,3.8752,4.1663,4.2502,4.3309,4.4312,4.5651,4.7189,4.784,4.7061,4.7722,4.8231,4.8231,4.9011,4.9792,5.0344,5.0227,5.0279,5.0587,5.0466,4.9791,4.8596,4.9047,4.8396,4.6719,4.6719,4.6381,4.5723,4.5313,4.4984,0.0,4.3948,4.3619,4.3559,4.288,4.2611,0.0,0.0,0.0,0.0,0.0,3.9738,3.8811,3.8811,3.8392,3.7883,3.8135,3.7866,3.7464,3.7734,3.7888,3.795,3.795,3.9013,4.0133,4.0133,4.0973,4.1929,4.2237,4.2365,4.2723,4.3912,4.4181,4.4465,4.5341,4.5514,0.0,4.391,4.32,4.2726,4.2625,4.2083,4.1237,4.0021,3.8936,3.7816,3.6722,3.5351,3.4218,3.3544,3.2781,0.0,0.0,0.0,3.0163,2.9608,2.9099,0.0,0.0,0.0,2.7721,2.8131,0.0,0.0,0.0,2.449,2.4576,0.0,0.0,0.0,0.0,0.0,0.0,0.0,0.0,0.0,0.0,0.0,0.0,0.0,0.0,0.0,0.0,4.3376,4.7196,5.0746,4.9474,4.8613,4.9785,4.9922,4.993,4.9936,5.0842,5.1401,5.1224,5.2222,5.2829,5.2788,0.0,0.0,0.0,0.0,5.1575,4.9105,4.982,4.9302,4.7594,4.7464,4.7048,4.642,4.633,4.5971,4.5394,4.5334,4.5304,4.5244,4.4676,4.4416,4.4227,4.2271,4.1523,4.1433,4.0756,4.0157,3.9631,3.9631,0.0,0.0,3.9421,3.8882,3.8116,3.8735,3.9086,3.9322,3.9322,4.0848,4.2478,4.2478,4.3563,4.4826,4.5485,4.5723,4.6041,4.6752,4.6921,4.6955,4.7022,4.6989,4.6718,4.6061,4.4674,4.3829,4.4364,4.3315,4.2085,4.1177,3.9797,3.8308,3.6739,0.0,0.0,3.3664,3.3604,3.2796,3.0851,3.1286,3.1046,2.9758,3.0372,3.0432,2.9817,2.9666,2.9623,2.971,2.8964,2.9139,3.0121,2.7139,2.6661,0.0,0.0,0.0,0.0,0.0,0.0,0.0,0.0,0.0,0.0,0.0,0.0,0.0,0.0,0.0,4.3596,4.7461,5.049,5.182,5.2872,5.3592,5.3714,5.3836,5.3841,5.3767,5.4401,5.4379,5.323,5.3841,5.4148,5.3845,5.3542,0.0,5.5607,5.4467,5.3842,5.3948,5.2673,5.1116,4.9396,0.0,0.0,4.71,4.654,4.6241,4.6061,4.5544,4.5304,4.5274,4.5155,4.5095,4.4915,4.296,4.2201,4.2141,4.1463,4.1134,4.1014,4.1014,4.0924,4.0834,4.0984,4.1359,4.1798,4.1921,4.251,0.0,4.3129,4.3945,4.4829,4.4829,4.5568,4.6376,4.6511,4.6547,4.6786,4.7515,4.7684,4.7853,4.8477,4.809,4.765,4.7515,4.623,4.4877,4.3795,4.3389,4.2448,4.0418,3.9411,3.8271,3.6695,3.5797,3.504,3.4368,3.4308,3.3679,3.2213,3.2243,3.1704,3.0372,3.1465,3.1794,3.1166,3.0966,3.1108,3.1656,3.0861,3.0582,3.0804,2.967,2.9589,0.0,0.0,0.0,0.0,0.0,0.0,0.0,0.0,0.0,0.0,0.0,3.4196,0.0,0.0,4.4831,4.7752,5.0971,5.3537,5.4799,5.6407,5.6825,5.5102,5.549,5.5859,5.5804,5.664,5.6853,5.6157,5.6914,5.7309,5.7124,5.6951,5.7091,5.764,5.731,5.642,5.501,5.4652,5.309,5.0412,4.988,4.897,4.7788,4.7459,4.713,4.6779,4.6441,4.6292,4.6262,4.5933,4.5603,4.5185,4.4247,4.3439,4.2821,4.2491,4.1953,4.1479,4.1942,4.2108,4.2169,4.2646,4.3112,4.3496,4.3496,4.4144,4.4854,4.4854,4.6022,4.7234,4.7234,4.8133,4.9018,4.9018,4.9018,4.9018,4.9018,4.9273,4.9544,4.956,4.9255,4.8868,4.8496,4.7515,4.6297,4.4776,4.4539,4.3542,4.0788,4.0171,3.9062,3.6753,3.6178,3.5579,3.4593,3.4188,3.3709,3.3036,3.3006,3.2557,3.1525,3.2467,3.2691,3.2019,3.2225,3.2675,3.3352,3.2954,3.2905,3.3252,3.295,3.2549,0.0,0.0,0.0,0.0,0.0,0.0,0.0,0.0,3.1474,3.3123,3.6628,4.0328,4.3195,4.6584,4.973,5.2109,5.446,5.6535,5.8192,5.9595,5.9488,5.6829,5.7241,5.7786,5.7891,5.8869,5.9358,5.9059,5.9976,6.0419,6.0114,6.0114,5.9785,5.9079,5.9746,5.8664,5.5677,5.618,5.4785,5.1477,5.1148,5.0171,4.8656,4.8558,4.8139,4.7489,4.7369,4.7309,4.7279,4.6719,4.6202,4.5693,4.5693,4.5068,4.4128,4.3808,4.3168,4.258,4.334,4.3728,4.4015,4.4773,4.5132,4.5284,4.5284,4.5914,4.6622,4.6622,4.7979,4.9424,4.9424,5.0288,5.1201,5.1201,5.1201,5.1032,5.0439,5.0777,5.1032,5.0439,5.0304,5.0101,4.9526,4.88,4.7785,4.6177,4.5805,4.466,4.1785,4.118,3.9929,3.7175,3.6643,3.6014,3.4787,3.4069,3.3694,3.3694,3.3694,3.3395,3.2721,3.3455,3.3574,3.2916,3.3544,3.4143,3.4697,3.4697,3.4967,3.5519,3.5519,3.482,2.7046,2.7116,2.7501,2.8238,2.8827,3.0303,0.0,0.0,3.6976,4.0072,4.374,4.6963,4.8872,5.2303,5.5357,5.6888,5.8399,5.964,6.0527,6.1693,6.2355,6.1961,6.1458,6.13,6.1729,6.2481,6.2406,6.109,6.1713,6.1535,6.0182,6.0114,6.0362,6.0974,6.0395,5.9745,5.8959,5.7461,5.5629,5.356,5.1918,5.0746,4.9979,4.9426,4.8828,4.8169,4.7549,4.7309,4.7309,4.7219,4.716,4.707,4.707,4.7173,4.7116,4.5645,4.5597,4.6303,4.64,4.7038,4.7805,4.7914,4.8489,4.9167,4.9167,4.9809,5.0565,5.0565,5.0731,5.0964,5.0964,5.1066,5.1201,5.1201,5.1201,5.1167,5.11,5.1133,5.1167,5.11,5.1066,5.1066,5.0964,5.0338,4.912,4.6989,4.6109,4.5013,4.3106,4.1789,4.0291,3.8391,3.7182,3.6178,3.5459,3.4787,3.4368,3.4368,3.4368,3.4099,3.3425,3.4592,3.4951,3.4278,3.4921,3.531,3.54,3.54,3.5429,3.5519,3.5519,3.5411,3.0104,3.0213,3.0434,3.1601,3.3786,3.6189,3.8168,4.1126,4.3927,4.5728,4.912,5.2209,5.3724,5.5974,5.7921,0.0,6.0482,6.1706,6.2,6.3085,6.3363,6.2091,6.2425,6.2978,6.3626,6.3971,6.3903,6.326,6.3125,6.2753,6.211,6.2076,6.2042,6.1941,6.2042,6.159,6.0551,5.9078,5.7388,5.5513,5.4059,5.2448,5.0787,5.0511,4.9643,4.8267,4.7997,4.8231,4.8781,4.8372,4.88,4.9696,4.9281,4.9179,4.9111,4.7403,4.7195,4.7857,4.8414,4.8868,4.9295,4.985,5.0292,5.061,5.061,5.0891,5.1201,5.1201,5.1505,5.1844,5.1844,5.2198,5.252,5.252,5.252,5.2418,5.1945,5.2232,5.2385,5.1928,5.1844,5.1844,5.1844,5.0879,4.9778,4.8865,4.7733,4.6182,4.3975,4.283,4.1222,3.868,3.7554,3.6776,3.6118,3.5835,3.5506,3.5116,3.507,3.4951,3.4681,3.522,3.537,3.507,3.537,3.5519,3.5519,3.5519,3.5519,3.5519,3.5519,3.5699,3.2125,3.2844,3.3876,3.5692,3.9071,4.2178,4.3078,4.6733,5.0185,5.1045,5.3684,5.6187,5.7311,5.8831,6.0098,6.0771,6.2409,6.361,6.361,6.3985,6.3632,6.1806,6.2178,6.2854,6.3632,6.4241,6.4512,6.4309,6.4174,6.4038,6.3815,6.3781,6.3463,6.2719,6.3226,6.2729,6.1138,6.022,5.8785,5.6769,5.5522,5.3905,5.2013,5.1445,5.0308,4.8828,4.8972,4.9472,5.0154,4.9956,5.0627,5.1756,5.1204,5.1038,5.0966,4.9691,4.9285,4.9469,5.0146,5.0582,5.0941,5.1613,5.1844,5.1844,5.1844,5.1844,5.1844,5.1844,5.2216,5.2638,5.2638,5.3078,5.3518,5.3518,5.3518,5.3348,5.2773,5.3078,5.3348,5.2739,5.2638,5.2638,5.2638,5.1555,5.0596,5.032,4.9062,4.7217,4.4729,4.3195,4.142,3.894,3.8093,3.7434,3.6806,3.6746,3.6537,3.6041,3.6028,3.5938,3.5789,3.5938,3.5878,3.5519,3.5848,3.5938,3.5789,3.5938,3.6028,3.6028,3.6028,3.6297,3.2676,3.4797,3.7987,4.1093,4.4369,4.7676,5.0666,5.305,5.4968,5.6296,5.7528,5.8596,5.9293,6.0999,6.2519,6.3296,6.4654,6.5587,6.5587,6.4424,6.324,6.2448,6.1095,6.052,0.0,6.3328,6.4309,6.3579,6.485,6.5324,6.4613,6.458,6.4241,6.3477,6.3477,6.2589,6.0649,6.0574,5.9348,5.697,5.5643,5.4687,5.4042,5.2073,5.0817,5.0145,5.0638,5.0836,5.0963,5.203,5.2525,5.2545,5.2545,5.2682,5.2924,5.2854,5.2394,5.1801,5.1837,5.2526,5.3382,5.3399,5.345,5.345,5.345,5.345,5.345,5.345,5.345,5.345,5.345,5.3484,5.3518,5.3518,5.3518,5.3484,5.3484,5.3484,5.3484,5.3484,5.345,5.345,5.345,5.2773,5.19,5.0926,4.9584,4.7847,4.5467,4.2407,4.0201,3.9469,3.8781,3.8093,3.7434,3.7357,3.7357,3.7327,3.7327,3.7075,3.6493,3.7045,3.6776,3.5519,3.6716,3.7045,3.6464,3.7075,3.7327,3.7327,3.7327,3.7357,3.7762,4.0778,4.4218,4.7148,4.9681,5.2009,5.3964,5.6257,5.7838,5.7319,5.8058,5.859,5.7867,5.8639,5.9979,6.1772,6.3294,6.458,6.5581,6.5256,6.3768,6.052,6.1028,0.0,0.0,0.0,0.0,6.4174,6.4681,6.5087,6.5324,6.5324,6.4986,6.4241,6.4715,6.3797,6.1353,6.0543,5.9486,5.8168,5.7295,5.6523,5.5797,5.4683,5.3545,5.247,5.2618,5.314,5.381,5.3668,5.4302,5.5333,5.4848,5.4698,5.4767,5.4767,5.4298,5.3627,5.3124,5.3179,5.3518,5.3518,5.3518,5.3518,5.3518,5.3518,5.3518,5.3518,5.3518,5.3518,5.3518,5.3518,5.3518,5.3518,5.3518,5.3518,5.3518,5.3518,5.3518,5.3518,5.3518,5.3518,5.3518,5.2841,5.1564,4.9451,4.7764,4.6121,4.4463,4.278,4.1463,4.0786,4.0535,4.0116,3.9439,3.9379,3.902,3.8123,3.8063,3.7764,3.7135,3.7285,3.7195,3.6776,3.7178,3.7315,3.7105,3.7315,3.7387,3.7417,3.7853,3.8302,4.1847,4.4955,4.8178,5.1568,5.376,5.545,5.6967,5.8606,5.9279,5.7529,5.7103,5.6664,5.5412,5.5344,5.6325,5.8896,6.0298,6.1907,6.4194,6.3802,6.255,6.0452,6.0791,6.0452,0.0,0.0,0.0,6.37,6.4783,6.5493,6.5683,6.6203,6.6034,6.5019,6.5425,6.4535,6.209,6.1753,6.0989,5.9856,5.8952,5.8047,5.7086,5.6669,5.5676,5.4384,5.4773,5.5207,5.5608,5.5487,5.6121,5.7137,5.6664,5.6325,5.6071,5.6071,5.5649,5.4905,5.416,5.3721,5.3518,5.3518,5.3518,5.3518,5.3518,5.3518,5.3551,5.3822,5.389,5.3957,5.4228,5.4296,5.4228,5.3957,5.389,5.3822,5.3551,5.3518,5.3518,5.3518,5.3518,5.3518,5.3518,5.2468,5.0948,4.8987,4.7095,4.5539,4.4465,4.34,4.2571,4.2132,4.1673,4.1224,4.0786,4.0756,4.0385,3.9547,3.9487,3.917,3.8512,3.8482,3.8362,3.8105,3.8344,3.8482,3.8482,3.8721,3.8841,3.8841,3.9278,3.9709,4.4939,4.7485,5.0213,5.4618,5.6688,5.8063,5.9722,5.9979,5.9235,5.7036,5.4769,5.2976,0.0,0.0,5.2114,5.5192,5.6461,5.8355,6.2096,6.0825,6.0283,0.0,0.0,0.0,0.0,0.0,0.0,6.2536,0.0,6.6474,6.5852,6.7151,6.7218,6.5818,6.5784,6.4782,6.2782,6.3927,6.3621,6.1855,6.0647,5.9424,5.8161,5.8042,5.7227,5.6016,5.7069,5.706,5.6426,5.748,5.79,5.79,5.79,5.7476,5.6867,5.6867,5.6375,5.5665,5.4938,5.4228,5.3619,5.3619,5.3619,5.3619,5.3619,5.3619,5.3754,5.4465,5.4668,5.4803,5.553,5.5699,5.553,5.4803,5.4668,5.4465,5.3754,5.3585,5.3551,5.3551,5.3518,5.3467,5.3416,5.1755,5.0173,4.9469,4.7639,4.6091,4.5394,4.4177,4.3379,4.3349,4.2282,4.1523,4.1493,4.1493,4.1493,4.1463,4.1463,4.1164,4.0487,4.0457,4.0157,3.9511,4.0127,4.0457,4.0457,4.1104,4.1403,4.1403,4.1433,4.1463,5.0561,5.3431,5.624,5.9079,5.9602,5.9559,5.999,5.8389,5.6172,5.3923,5.1235,4.8935,4.7631,0.0,0.0,5.5023,5.8201,0.0,6.5155,6.617,0.0,6.4241,0.0,6.4323,6.3037,6.3937,0.0,0.0,6.5561,6.6373,6.7286,6.7692,6.7489,6.6542,6.6542,6.5575,6.3617,6.335,6.3007,6.255,6.2565,6.2382,6.2022,6.0932,6.0211,5.9816,5.8979,5.8488,5.8272,5.8027,5.79,5.79,5.79,5.7798,5.7611,5.7611,5.7137,5.6494,5.6292,5.5784,5.5124,5.5124,5.5124,5.5124,5.5124,5.5124,5.5192,5.5361,5.5428,5.5462,5.5665,5.5699,5.5665,5.5462,5.5428,5.5361,5.5192,5.4702,5.4329,5.4329,5.389,5.3263,5.2469,5.1229,5.0062,4.9085,4.7861,4.6621,4.5454,4.5005,4.4616,4.4087,4.3758,4.3359,4.2861,4.2831,4.2611,4.2171,4.2141,4.1822,4.1164,4.1164,4.1074,4.0894,4.1074,4.1164,4.1164,4.1313,4.1403,4.1403,4.1912,4.2141,5.4577,5.7083,5.9167,6.0452,6.0182,5.9302,5.7983,5.5886,5.3213,4.9627,4.7312,4.5384,4.3572,4.506,4.7887,0.0,0.0,0.0,6.4661,6.6081,6.6643,0.0,6.6981,0.0,6.6034,6.6406,6.6948,0.0,6.7354,6.7387,6.7861,6.7688,6.7201,6.6465,6.6131,6.572,6.5177,6.4222,6.4002,6.4555,6.4495,6.4478,6.441,6.2956,6.211,6.1704,0.0,5.981,5.9471,5.9032,5.866,5.8423,5.8727,5.866,5.8423,5.8761,5.8389,5.778,5.778,5.7273,5.6562,5.5902,5.5699,5.5699,5.5699,5.5699,5.5767,5.6071,5.6172,5.6258,5.6596,5.6664,5.6596,5.624,5.6172,5.6071,5.5767,5.5361,5.5074,5.5074,5.4499,5.3787,5.3198,5.1587,5.0204,4.9595,4.8261,4.704,4.6262,4.5933,4.5583,4.5224,4.4895,4.4586,4.4207,4.3908,4.3698,4.3678,4.314,4.2945,4.3267,4.2746,4.2787,4.3506,4.2805,4.2594,4.2879,4.2453,4.2252,4.2252,4.2611,4.2791,5.7533,5.9268,6.0216,6.0148,5.9404,5.7931,5.4972,5.2638,4.9796,4.5108,4.3267,4.1969,4.0134,4.1779,4.4742,4.8781,0.0,5.6325,6.3139,6.4086,6.5405,6.8977,6.8774,6.8639,6.9316,6.8774,6.891,7.0229,6.9755,6.9045,6.8233,6.7489,6.676,6.6012,6.5385,6.5647,6.6927,6.5757,6.569,6.6791,6.6034,6.5751,6.5764,6.4241,6.3193,6.2637,0.0,0.0,6.025,6.0148,5.9708,5.9216,5.9844,5.9708,5.9216,5.9877,5.9622,5.9013,5.9013,5.8524,5.7697,5.6409,5.6003,5.6003,5.6003,5.6003,5.6139,5.6765,5.6934,5.7103,5.7712,5.79,5.773,5.7103,5.6934,5.6765,5.6139,5.5902,5.58,5.5733,5.5175,5.4666,5.4389,5.2234,5.046,5.0168,4.85,4.7309,4.7309,4.6779,4.639,4.63,4.5783,4.5394,4.5304,4.4766,4.4676,4.5244,4.4207,4.4266,4.582,4.48,4.4924,4.6447,4.5106,4.4625,4.5091,4.4189,4.3688,4.3579,4.3579,4.3579,5.9873,6.0892,6.0926,6.0283,5.8626,5.6393,5.3382,4.868,4.4336,4.2219,3.9749,3.8002,3.8227,4.1089,4.5215,5.0811,5.4262,5.8795,6.6102,6.7151,6.8098,0.0,7.0804,7.0748,7.0883,7.0782,0.0,0.0,0.0,7.0601,6.9823,6.8055,6.676,6.6012,6.5811,6.6345,6.7704,6.6892,6.6567,6.6791,6.6034,6.6,6.6542,6.4458,6.3748,6.4106,6.2144,0.0,6.1028,6.0385,6.0013,5.9911,6.0047,6.0013,5.9911,6.0047,5.9622,5.9013,5.9013,5.8524,5.7866,5.7577,5.7509,5.7509,5.7509,5.7509,5.7543,5.7679,5.7712,5.773,5.7866,5.79,5.7866,5.773,5.7712,5.7679,5.7543,5.7036,5.6427,5.58,5.5597,5.495,5.3181,5.2003,5.0707,4.8916,4.7899,4.7309,4.7309,4.7219,4.6899,4.636,4.6211,4.5882,4.5334,4.5185,4.5185,4.5274,4.5095,4.5485,4.6629,4.647,4.6875,4.7992,4.7737,4.727,4.6532,4.6357,4.5816,4.4945,4.4945,4.4945,6.1163,6.1873,6.1501,5.9911,5.7577,5.4566,5.0371,4.5703,4.1495,3.8824,3.7483,3.6648,3.6197,3.9817,4.4045,4.7714,5.1116,5.5919,6.3396,6.4783,6.644,7.0263,7.1075,7.1289,0.0,7.1289,0.0,0.0,0.0,7.1142,7.0804,6.8788,6.7015,6.5584,6.5816,6.6788,6.8516,6.7387,6.6994,6.7354,6.6609,6.6474,6.6757,6.529,6.4647,6.4512,6.3091,0.0,6.1839,6.1467,6.1061,6.0757,6.1129,6.1061,6.0757,6.1163,6.0554,5.9573,5.9573,5.8829,5.79,5.79,5.79,5.79,5.79,5.79,5.79,5.79,5.79,5.79,5.79,5.79,5.79,5.79,5.79,5.79,5.79,5.7611,5.7094,5.6159,5.5647,5.4864,5.3283,5.198,5.0799,4.976,4.8571,4.7818,4.7818,4.7519,4.7189,4.6839,4.6809,4.6689,4.6381,4.6022,4.5992,4.6322,4.6192,4.6744,4.8091,4.831,4.8868,4.9833,4.9383,4.8904,4.8414,4.7932,4.7165,4.6142,4.6142,4.5819,6.1366,6.2028,6.1603,5.9336,5.6292,5.2536,4.7477,4.3166,3.9276,3.5847,3.552,3.5577,3.4686,3.8137,4.1894,4.4242,4.7308,5.2079,5.9742,6.1738,6.4275,0.0,7.077,0.0,7.1289,7.1289,0.0,0.0,0.0,0.0,7.0647,6.9058,6.7341,6.5585,6.5839,6.6977,6.9057,6.7569,6.7184,6.7895,6.7151,6.6791,6.6757,6.6034,6.5358,6.4783,6.3903,0.0,0.0,6.2468,6.2042,6.1603,6.2178,6.2042,6.1603,6.2197,6.1535,6.0317,6.0148,5.9235,5.8084,5.7967,5.79,5.79,5.79,5.79,5.79,5.79,5.79,5.79,5.79,5.79,5.79,5.79,5.79,5.7845,5.7591,5.772,5.7572,5.6418,5.5723,5.4979,5.3932,5.223,5.0943,5.0716,4.9464,4.8468,4.8319,4.7848,4.7519,4.7519,4.7399,4.7309,4.7309,4.6809,4.6826,4.7563,4.7405,4.8055,4.9778,5.0115,5.069,5.1658,5.0978,5.0484,5.0243,4.9303,4.8415,4.7641,4.7201,4.6651,6.008,6.0858,6.0858,5.8558,5.4735,5.0322,4.5819,4.0844,3.6513,3.41,3.3129,3.3072,3.428,3.6039,3.8928,4.3802,4.6022,4.9932,5.8066,6.1061,6.4072,6.8673,0.0,0.0,7.1289,0.0,0.0,0.0,0.0,0.0,6.8602,6.8243,6.773,6.6926,6.6259,6.6942,6.9057,6.7569,6.7184,6.7895,6.7151,6.6791,6.6757,6.6034,6.5683,6.5514,6.4106,0.0,0.0,6.2685,6.2367,6.2333,6.2347,6.2367,6.2333,6.24,6.1873,6.1095,6.0351,5.9573,5.8776,5.8118,5.79,5.79,5.79,5.79,5.79,5.79,5.79,5.79,5.79,5.79,5.79,5.79,5.79,5.7609,5.6586,5.7151,5.7572,5.6418,5.6138,5.5771,5.4679,5.2995,5.1445,5.0419,4.9651,4.8977,4.8379,4.8259,4.8229,4.8229,4.7668,4.7309,4.7309,4.7249,4.7619,4.8594,4.8635,4.9525,5.1572,5.1702,5.2201,5.3264,5.3197,5.2686,5.1706,5.0698,5.0167,5.0032,4.813,4.7679,5.9438,6.0689,6.0757,5.8475,5.4194,4.9357,4.4891,3.9817,3.5453,3.3197,3.2858,3.3152,3.3728,3.5464,3.7777,4.0743,4.1724,4.4485,5.137,5.3856,5.7476,6.4241,6.6745,0.0,0.0,0.0,0.0,0.0,0.0,0.0,6.8837,6.9563,6.8951,6.6574,6.7344,6.8461,6.9755,6.7793,6.7421,6.8605,6.7366,6.6791,6.6791,6.6508,6.5865,6.5019,6.4884,0.0,0.0,6.299,6.2787,6.24,6.24,6.24,6.24,6.24,6.1941,6.1197,6.0385,5.9641,5.8945,5.866,5.8558,5.849,5.8017,5.822,5.8558,5.8558,5.8896,5.9201,5.9201,5.9201,5.9099,5.866,5.8896,5.8987,5.8087,5.8583,5.8919,5.7813,5.7017,5.6026,5.449,5.3057,5.1787,5.0917,5.0249,5.0005,5.0406,5.0118,5.0143,5.0809,4.8734,4.771,4.8706,4.8433,4.8636,4.9694,5.0326,5.1061,5.1867,5.2522,5.3076,5.3501,5.3518,5.3297,5.287,5.2451,5.1612,5.0378,4.9536,4.8728,5.7036,5.8863,5.9471,5.7408,5.3162,4.8274,4.3761,3.906,3.4901,3.2486,3.2374,3.2882,3.3311,3.4709,3.6445,3.8362,3.9051,4.1339,4.7109,4.956,5.3331,6.0268,0.0,0.0,0.0,0.0,0.0,0.0,0.0,0.0,0.0,6.9866,6.9582,6.645,6.7689,6.8774,6.9485,6.7726,6.7434,6.8741,6.74,6.6791,6.6791,6.6555,6.5899,6.4952,0.0,0.0,0.0,6.3294,6.3057,6.24,6.24,6.24,6.24,6.24,6.2076,6.1501,6.0723,6.0114,5.9622,5.9385,5.9317,5.9216,5.8693,5.893,5.9317,5.9317,5.9708,6.0114,6.0114,6.0114,5.9979,5.9471,5.9708,5.9869,5.9026,5.9218,5.9243,5.8187,5.7002,5.5752,5.4499,5.3273,5.2276,5.1618,5.1086,5.0961,5.1333,5.1302,5.1496,5.2308,5.0289,4.9364,5.0517,4.9984,5.0133,5.1411,5.1768,5.2245,5.2996,5.3345,5.3619,5.3822,5.3619,5.3518,5.3518,5.3179,5.2451,5.1299,5.0684,4.9541,5.2248,5.4617,5.6494,5.5006,5.1251,4.6737,4.2239,3.8316,3.4765,3.1799,3.1234,3.1664,3.3108,3.3413,3.4427,3.7403,3.9153,4.1927,4.7177,5.0423,5.3687,0.0,0.0,0.0,0.0,0.0,0.0,0.0,0.0,0.0,0.0,6.8358,6.92,6.7053,6.6876,6.7184,6.7929,6.7184,6.7184,6.7895,6.7151,6.6791,6.6757,6.6034,6.5717,0.0,0.0,0.0,0.0,6.3511,6.3057,6.24,6.24,6.24,6.24,6.24,6.24,6.2279,6.1535,6.1298,6.1129,6.0351,6.008,6.008,6.008,6.008,6.008,6.008,6.008,6.0114,6.0114,6.0114,6.0114,6.008,6.008,5.9814,5.8747,5.8432,5.801,5.6938,5.5763,5.4908,5.4885,5.3932,5.2959,5.2276,5.2187,5.1708,5.0368,5.1214,5.1899,5.1899,5.228,5.2557,5.2557,5.1916,5.2198,5.3959,5.2712,5.3047,5.5545,5.4279,5.3856,5.4566,5.3856,5.3518,5.3518,5.2418,5.2436,5.3399,5.1355,5.0192,4.7327,4.9255,5.022,4.8255,4.5534,4.2408,3.8983,3.6468,3.4026,3.1162,3.0989,3.1465,3.1942,3.284,3.4653,3.8099,3.9457,4.1386,4.5142,0.0,0.0,5.7392,6.2865,0.0,0.0,0.0,0.0,0.0,0.0,0.0,0.0,6.5781,6.6258,6.5594,6.6856,6.7658,6.7895,6.7184,6.7184,6.7895,6.7151,6.6791,6.6757,6.6034,0.0,0.0,0.0,0.0,0.0,6.4018,6.3835,6.3125,6.2584,6.24,6.24,6.24,6.24,6.2299,6.1569,6.1298,6.1264,6.0994,6.0926,6.1028,6.1501,6.1332,6.1028,6.1535,6.167,6.167,6.167,6.167,6.1535,6.1028,6.1298,6.1424,6.0606,6.013,5.9769,5.9432,5.7738,5.6216,5.5721,5.4654,5.3653,5.2989,5.3604,5.4229,5.4598,5.525,5.5954,5.6672,5.643,5.5705,5.4417,5.3672,5.3832,5.51,5.4751,5.486,5.5681,5.5259,5.509,5.5327,5.5124,5.4769,5.4262,5.3167,5.2481,5.2109,5.0668,5.0195,4.1392,4.3933,4.5105,4.3666,4.1813,3.953,3.6406,3.4499,3.2638,3.0095,2.9945,3.0413,3.0958,3.224,3.4008,3.6584,3.8262,4.0328,4.3348,0.0,0.0,5.7679,0.0,0.0,0.0,0.0,0.0,0.0,0.0,0.0,0.0,6.497,6.5296,6.5279,6.6712,6.7489,6.7489,6.6556,6.6556,6.7468,6.6534,6.632,6.6757,6.5764,0.0,0.0,0.0,0.0,0.0,6.3903,6.3768,6.3057,6.2584,6.24,6.24,6.24,6.24,6.2333,6.1873,6.1704,6.1704,6.1704,6.1704,6.1806,6.2265,6.2076,6.1806,6.2245,6.24,6.24,6.24,6.24,6.2279,6.1806,6.2076,6.2147,6.1226,6.0799,6.0332,5.9434,5.8007,5.6724,5.5844,5.5066,5.4515,5.4274,5.4882,5.5706,5.6624,5.7134,5.7767,5.871,5.8268,5.7542,5.6654,5.5703,5.5527,5.6493,5.6003,5.5936,5.6528,5.6003,5.5834,5.6105,5.5834,5.5462,5.5006,5.4325,5.3713,5.3048,5.1538,5.1225,0.0,3.8241,4.0399,4.0174,3.9155,3.7326,3.4092,3.2277,0.0,2.8673,2.8308,2.8756,3.0174,3.1484,3.2723,3.3802,3.627,3.9148,0.0,4.6715,0.0,0.0,0.0,0.0,0.0,0.0,0.0,0.0,0.0,0.0,0.0,6.5378,6.5775,6.5765,6.6373,6.6757,6.6791,6.5625,6.5625,6.6791,6.5603,6.5646,6.6757,6.529,0.0,0.0,0.0,0.0,0.0,6.3226,6.3091,6.2448,6.2434,6.24,6.24,6.24,6.24,6.24,6.24,6.24,6.24,6.24,6.24,6.24,6.24,6.24,6.24,6.24,6.24,6.24,6.24,6.24,6.24,6.24,6.2341,6.1991,6.0953,6.0522,5.9719,5.7551,5.6991,5.6517,5.5406,5.5179,5.5414,5.5989,5.6124,5.6407,5.7011,5.7429,5.7945,5.8626,5.8318,5.8321,5.9013,5.7746,5.7171,5.7866,5.663,5.6461,5.7832,5.6596,5.6172,5.6867,5.6139,5.5731,5.5678,5.5698,5.5698,5.5625,5.3538,5.2925,2.6161,0.0,3.0751,3.0042,3.0031,2.9966,0.0,2.9048,2.8769,2.727,2.7366,2.8126,2.9486,3.0459,3.233,3.6194,3.842,4.0862,4.4362,0.0,0.0,0.0,0.0,0.0,0.0,0.0,0.0,0.0,0.0,0.0,0.0,6.3238,6.3779,6.4274,6.5377,6.6237,6.6791,6.6503,6.6503,6.6791,6.6503,6.6503,6.6757,6.529,0.0,0.0,0.0,0.0,6.326,6.3409,6.3409,6.3193,6.2618,6.24,6.24,6.24,6.24,6.24,6.24,6.24,6.24,6.24,6.24,6.24,6.24,6.24,6.24,6.24,6.24,6.24,6.24,6.24,6.24,6.24,6.1696,6.1214,6.1837,5.9805,5.7969,5.8314,5.6903,5.5526,5.5255,5.5179,5.5565,5.6607,5.7533,5.8515,5.9553,6.0091,6.0443,6.0611,6.0015,5.9641,5.9844,5.849,5.773,5.79,5.7577,5.7543,5.79,5.7577,5.7442,5.7645,5.6934,5.6153,5.5368,5.5598,5.558,5.5349,5.3932,5.3672,2.1735,2.4632,2.7551,2.7377,2.7847,2.8223,2.7602,2.7274,2.6839,2.5832,2.6176,2.702,2.8381,2.9958,3.1987,3.4902,3.7671,0.0,0.0,0.0,0.0,0.0,0.0,0.0,0.0,0.0,0.0,0.0,0.0,0.0,0.0,6.2732,6.3084,6.4624,6.5013,6.5561,6.6305,6.6067,6.6235,6.6791,6.6213,6.6067,6.6271,6.5121,6.441,0.0,0.0,0.0,6.299,6.299,6.299,6.2956,6.255,6.24,6.24,6.24,6.24,6.24,6.24,6.24,6.24,6.24,6.24,6.24,6.24,6.24,6.24,6.24,6.24,6.24,6.24,6.24,6.24,6.24,6.1877,6.1296,6.0849,5.9653,5.8328,5.7347,5.6541,5.5844,5.5305,5.5179,5.5626,5.6824,5.8039,5.9236,6.0438,6.1,6.1434,6.1772,6.0791,6.025,6.0622,5.9573,5.8761,5.8423,5.8727,5.8592,5.7934,5.8543,5.8896,5.8896,5.8186,5.771,5.7492,5.7288,5.7029,5.6665,5.6055,5.5267,2.0186,2.362,2.7244,2.7337,2.8027,2.8388,2.7294,2.6264,2.5371,2.4867,2.5364,2.6333,2.7794,3.0068,3.2063,3.3066,0.0,0.0,0.0,0.0,0.0,0.0,0.0,0.0,0.0,0.0,0.0,0.0,0.0,0.0,0.0,6.2459,6.2679,6.5034,6.4667,6.4715,6.5378,6.5145,6.5546,6.6622,6.5524,6.5256,6.5683,6.4816,6.4106,0.0,0.0,0.0,6.24,6.24,6.24,6.24,6.24,6.24,6.24,6.24,6.24,6.24,6.24,6.24,6.24,6.24,6.24,6.24,6.24,6.24,6.2434,6.2516,6.2482,6.24,6.24,6.24,6.24,6.24,6.2263,6.1541,5.9522,5.9588,5.9115,5.606,5.6158,5.6396,5.5381,5.5179,5.5626,5.6824,5.8039,5.9236,6.0438,6.112,6.1704,6.2333,6.1231,6.0723,6.14,6.0858,6.0148,5.9385,5.981,5.9539,5.8306,5.9438,6.0114,6.0114,5.9487,5.9471,6.0114,5.9453,5.8964,5.856,5.8513,5.6954,2.1903,2.4026,2.5368,2.3273,2.405,2.5296,2.5085,2.5333,2.5551,2.5477,2.6422,2.7842,2.9714,3.1326,3.3306,0.0,0.0,4.6818,0.0,0.0,0.0,0.0,0.0,0.0,0.0,0.0,0.0,0.0,0.0,0.0,0.0,6.0083,6.0802,6.2281,6.32,6.3714,6.3835,6.499,6.5665,6.5865,6.5665,6.5618,6.5649,6.4309,6.3612,6.3443,0.0,6.24,6.24,6.24,6.24,6.24,6.24,6.24,6.24,6.24,6.24,6.24,6.24,6.24,6.24,6.24,6.24,6.24,6.24,6.24,6.2516,6.3159,6.2888,6.24,6.24,6.24,6.24,6.24,6.1635,6.0787,6.0395,5.8848,5.7386,5.6824,5.6035,5.5431,5.5229,5.5179,5.5626,5.6824,5.8039,5.9236,6.0438,6.1555,6.2245,6.24,6.2197,6.2096,6.2231,6.213,6.1738,6.0994,6.0419,6.0013,5.9776,5.9979,6.0114,6.0114,5.9979,5.9979,6.0114,5.9979,5.9884,5.978,5.8907,5.7371,2.0873,2.2513,2.383,2.2951,2.4765,2.6769,2.6769,2.644,2.6363,2.7081,2.7991,2.9159,3.0747,3.2721,3.5866,4.1219,0.0,0.0,0.0,0.0,0.0,0.0,0.0,0.0,0.0,0.0,0.0,0.0,0.0,0.0,0.0,0.0,6.0769,6.0736,6.214,6.2575,6.1953,6.3653,6.4715,6.5121,6.5121,6.4884,6.4478,6.3815,6.3274,6.2888,0.0,6.24,6.24,6.24,6.24,6.24,6.24,6.24,6.24,6.24,6.24,6.24,6.24,6.24,6.24,6.24,6.24,6.24,6.24,6.24,6.2468,6.2821,6.2651,6.2482,6.2888,6.2685,6.24,6.24,6.146,6.0417,5.9762,5.8237,5.68,5.6158,5.5576,5.5179,5.5179,5.5179,5.5406,5.5943,5.7063,5.8268,5.9478,6.067,6.1676,6.2322,6.24,6.24,6.24,6.24,6.2265,6.1907,6.0757,6.0452,6.1298,6.096,6.0926,6.1332,6.096,6.0926,6.1332,6.0926,6.0636,6.0365,5.9845,5.829,2.0277,2.1625,2.3092,2.3879,2.6004,2.8068,2.8697,2.8051,2.7722,2.9205,3.0177,3.1045,3.2033,3.4636,0.0,4.511,4.7424,0.0,0.0,0.0,0.0,0.0,0.0,0.0,0.0,0.0,0.0,0.0,0.0,0.0,0.0,0.0,6.0815,5.957,6.1396,6.187,6.0783,6.2401,6.3612,6.4343,6.4343,6.4072,6.3477,6.3308,6.2854,6.2144,6.2144,6.2144,6.2144,6.2144,6.2074,6.201,6.2302,6.24,6.24,6.24,6.24,6.24,6.24,6.24,6.24,6.24,6.24,6.24,6.24,6.24,6.2468,6.2821,6.2787,6.2787,6.3342,6.3226,6.2942,6.2942,6.1881,6.0519,5.9306,5.8106,5.6823,5.5456,5.5354,5.5359,5.5209,5.5179,5.5179,5.5179,5.6232,5.7496,5.8901,6.0109,6.1389,6.2789,6.2942,6.2854,6.2651,6.24,6.2159,6.1991,6.1129,6.1163,6.2367,6.1839,6.1806,6.24,6.1839,6.1839,6.24,6.1839,6.1359,6.1016,6.0889,5.9252,2.1984,2.2992,2.3849,2.5124,2.5633,2.6482,2.8949,2.9458,2.9907,3.1839,3.3245,3.4174,3.4248,3.7434,4.1403,4.5618,0.0,0.0,0.0,0.0,0.0,0.0,0.0,0.0,0.0,0.0,0.0,0.0,0.0,0.0,0.0,0.0,0.0,5.8458,6.1013,6.2023,6.125,6.2071,6.2854,6.3579,6.3579,6.3545,6.3477,6.2787,6.2076,6.1366,6.1366,6.1366,6.1366,6.1366,6.1113,6.0849,6.1971,6.24,6.24,6.24,6.24,6.24,6.24,6.24,6.24,6.24,6.24,6.24,6.24,6.24,6.2705,6.4072,6.3971,6.3443,6.3477,6.3971,6.4444,6.4444,6.2983,6.1283,6.009,5.8829,5.7383,5.5576,5.5713,5.5923,5.5299,5.5179,5.5179,5.5179,5.6232,5.7676,5.9585,6.0869,6.2339,6.4221,6.4444,6.4174,6.3477,6.2378,6.1459,6.0778,6.1676,6.2299,6.24,6.2367,6.2367,6.24,6.2367,6.2367,6.24,6.2367,6.2308,6.2263,6.1754,6.012,2.0636,2.2503,2.4436,2.5364,2.6841,2.8457,2.9834,3.1135,3.2602,3.4592,3.5998,3.7062,3.7464,0.0,4.3345,4.6854,0.0,0.0,0.0,0.0,0.0,0.0,0.0,0.0,0.0,0.0,0.0,0.0,0.0,0.0,0.0,0.0,0.0,5.6264,5.9317,6.0482,5.9458,6.0463,6.1095,6.14,6.2347,6.2821,6.2787,6.2042,6.1569,6.1264,6.0757,6.0554,6.0588,6.1095,6.12,6.1153,6.2021,6.1951,6.1378,6.211,6.24,6.24,6.24,6.24,6.2502,6.2922,6.3091,6.3159,6.3632,6.3768,6.3869,6.4444,6.4715,6.4884,6.4884,6.4145,6.343,6.343,6.1658,5.9846,5.9371,5.8313,5.7232,5.6509,5.6585,5.6581,5.5923,5.5833,5.5833,5.5833,5.6204,5.7186,5.9044,5.9681,6.0526,6.2022,6.2188,6.2057,6.1774,6.0996,6.0705,6.1192,6.126,6.1296,6.1296,6.201,6.24,6.24,6.24,6.2618,6.3091,6.3091,6.3328,6.3728,6.1983,6.0644,1.9708,2.1784,2.4167,2.4795,2.729,2.9967,3.142,3.3155,3.5086,3.7272,3.8242,3.905,4.0157,4.1634,0.0,0.0,0.0,0.0,0.0,0.0,0.0,0.0,0.0,0.0,0.0,0.0,0.0,0.0,0.0,0.0,0.0,0.0,0.0,0.0,5.8442,5.9602,5.8541,5.9583,6.0114,6.0114,6.1163,6.1481,6.1152,6.0648,6.0082,5.9518,5.9332,5.9252,5.9285,5.9856,5.9996,5.9951,6.0684,6.0684,6.0456,6.187,6.24,6.24,6.24,6.24,6.2502,6.299,6.3308,6.3579,6.4106,6.441,6.4647,6.4884,6.529,6.5668,6.5514,6.4439,6.3286,6.2885,6.0971,5.9266,5.9266,5.8293,5.7363,5.7124,5.7274,5.7154,5.6342,5.6372,5.6432,5.6222,5.6372,5.716,5.903,5.9266,5.9822,6.1264,6.1438,6.1246,6.0799,6.0049,5.9743,6.0134,6.0293,6.0625,6.1152,6.1971,6.2516,6.2753,6.2516,6.2888,6.3849,6.3612,6.3667,6.3969,6.208,6.0874,1.9708,2.1175,2.2882,2.349,2.6674,3.0506,3.3769,3.5565,3.7255,3.9888,3.99,4.0068,4.2051,4.1901,0.0,0.0,0.0,0.0,0.0,0.0,0.0,0.0,0.0,0.0,0.0,0.0,0.0,0.0,0.0,0.0,0.0,5.7455,5.8883,5.6276,5.8725,5.9708,5.9013,5.9708,6.008,6.008,6.008,5.953,5.8525,5.8513,5.7474,5.5772,5.6902,5.7397,5.7377,5.7377,5.7163,5.6841,5.7546,5.8528,5.9816,6.1721,6.2381,6.24,6.24,6.24,6.24,6.2434,6.2922,6.3511,6.3511,6.4018,6.4783,6.5514,6.5696,6.556,6.5017,6.4869,6.4551,6.3259,6.1491,6.0109,6.0109,5.9049,5.7905,5.7244,5.7663,5.7723,5.6432,5.6731,5.6885,5.6312,5.6731,5.7825,5.9815,6.0084,6.0802,6.274,6.298,6.2404,6.0997,5.9787,5.8497,5.7139,5.8833,6.0641,6.2316,6.2415,6.2753,6.3457,6.2787,6.3125,6.4593,6.3849,6.3224,6.2684,6.2142,6.0827,2.0518,2.2193,2.4406,2.6015,2.9771,3.3649,3.5998,3.6836,3.8153,4.1724,4.2293,4.2322,4.2921,4.3629,0.0,0.0,0.0,0.0,0.0,0.0,0.0,0.0,0.0,0.0,0.0,0.0,0.0,0.0,0.0,0.0,0.0,5.5502,5.6749,5.621,5.723,5.7915,5.822,5.8423,5.8558,5.8558,5.8558,5.8916,5.9607,5.9103,5.8141,5.6943,5.7492,5.6892,5.546,5.5998,5.5932,5.5741,5.7569,5.8297,5.8582,6.0805,6.1941,6.24,6.24,6.24,6.257,6.3599,6.4106,6.4478,6.5506,6.598,6.6183,6.6406,6.5835,6.4906,6.384,6.2844,6.2063,6.1696,6.046,5.941,5.941,5.9065,5.874,5.856,5.868,5.8504,5.7693,5.7304,5.7184,5.7513,5.7304,5.7641,5.9206,5.8987,5.9084,6.0141,5.9831,5.9587,5.9622,5.8863,5.8587,5.9006,6.0028,6.037,5.9892,6.2503,6.3403,6.2206,6.3329,6.3988,6.4054,6.38,6.3891,6.4198,6.222,6.0964,2.0728,2.2601,2.5143,2.7423,3.1075,3.4817,3.7584,3.9182,4.0976,4.3908,4.4087,4.3878,4.4366,4.4715,0.0,0.0,0.0,0.0,0.0,0.0,0.0,0.0,0.0,0.0,0.0,0.0,0.0,0.0,0.0,0.0,0.0,5.4385,5.559,5.5334,5.6005,5.6596,5.7036,5.7306,5.7442,5.7442,5.7442,5.7915,5.8758,5.7697,5.6657,5.5615,5.5846,5.5166,5.3966,5.4377,5.4139,5.3768,5.637,5.7385,5.771,6.0351,6.1772,6.24,6.24,6.209,6.183,6.2734,6.3404,6.4041,6.4945,6.5968,6.6791,6.6791,6.5898,6.4619,6.3307,6.202,6.0892,6.0354,5.9656,5.9099,5.9099,5.9099,5.9099,5.9099,5.9099,5.889,5.8205,5.7992,5.7932,5.8085,5.7992,5.8171,5.9009,5.877,5.865,5.9069,5.874,5.8534,5.871,5.8324,5.8279,5.8777,5.9916,6.0044,5.8891,6.2049,6.3147,6.1747,6.3105,6.3723,6.3463,6.37,6.3626,6.3299,6.1715,6.0738,2.0757,2.2751,2.5292,2.8248,3.1569,3.51,3.8841,4.2053,4.4655,4.5882,4.5254,4.4865,4.6151,4.5403,0.0,0.0,0.0,0.0,0.0,0.0,0.0,0.0,0.0,0.0,0.0,0.0,0.0,0.0,0.0,0.0,0.0,5.3757,5.4966,5.4175,5.4997,5.551,5.5699,5.627,5.6608,5.6697,5.6697,5.6697,5.666,5.5332,5.4083,5.3022,5.2803,5.2714,5.2714,5.2604,5.2002,5.1403,5.4232,5.5933,5.7055,5.9951,6.1559,6.2333,6.24,6.1615,6.0619,6.0685,6.1531,6.2574,6.2749,6.4567,6.6508,6.6542,6.5657,6.4437,6.314,6.1821,6.0536,5.9392,5.9099,5.9099,5.9099,5.9099,5.9099,5.9099,5.9099,5.8919,5.8294,5.865,5.88,5.8175,5.8653,5.9099,5.9099,5.9069,5.9039,5.9099,5.9069,5.88,5.8234,5.8175,5.7905,5.7304,5.9103,5.9792,5.8949,6.1363,6.2408,6.1726,6.2396,6.2776,6.2803,6.3325,6.2664,6.0989,6.0892,6.0228,2.2682,2.3767,2.5741,3.0478,3.534,3.9409,4.1313,4.306,4.4386,4.4655,4.5343,4.6121,4.6929,0.0,0.0,0.0,0.0,0.0,0.0,0.0,0.0,0.0,0.0,0.0,0.0,0.0,0.0,0.0,0.0,0.0,5.2082,5.251,5.3505,5.5279,5.4192,5.4264,5.5699,5.5017,5.5083,0.0,5.5936,5.5936,5.5918,5.5608,5.4872,5.374,5.1999,5.1289,5.1236,5.0421,5.0223,5.0566,5.2105,5.406,5.6199,5.8317,6.013,6.1603,6.2178,6.1615,6.0685,6.1266,6.1044,6.0793,6.2344,6.3594,6.4519,6.4454,6.3943,6.3092,6.1771,6.0458,5.9446,5.918,5.9099,5.9099,5.9099,5.9099,5.9099,5.9099,5.9099,5.9069,5.8919,5.859,5.8264,5.8115,5.8653,5.9099,5.9099,5.865,5.853,5.9039,5.865,5.8474,5.886,5.889,5.883,5.868,6.0027,6.0285,5.913,6.1561,6.2093,6.0347,6.2045,6.2444,6.142,6.154,6.139,6.0963,5.9966,5.9365,2.2722,2.4328,2.6979,3.2946,3.7434,4.0576,4.1283,4.2451,4.3479,4.3758,4.4895,4.5933,4.6292,0.0,0.0,0.0,0.0,0.0,0.0,0.0,0.0,0.0,0.0,0.0,0.0,0.0,0.0,0.0,0.0,4.9718,5.0675,5.1013,5.1792,5.3115,5.2272,5.2221,5.3148,5.2959,5.3367,5.4403,5.3934,5.3496,5.3199,5.4368,5.4006,5.2477,5.1288,5.0565,5.0096,4.9516,4.9486,4.9907,5.1326,5.3278,5.5428,5.7298,5.9364,6.1255,6.1066,6.0468,5.9718,5.9489,5.9251,5.9355,6.0944,6.2605,6.3903,6.3814,6.3423,6.2682,6.1344,6.0045,5.9099,5.9099,5.9099,5.9099,5.9099,5.9099,5.9099,5.9099,5.9099,5.9099,5.9099,5.883,5.859,5.859,5.889,5.9099,5.9099,5.8773,5.871,5.9069,5.88,5.8713,5.9069,5.9099,5.9099,5.9099,5.9705,5.9785,5.9126,6.0411,6.0614,5.9557,6.1189,6.1401,6.0097,6.0686,6.0686,6.0071,5.9419,5.9099,2.2134,2.5028,2.8846,3.4697,3.8212,4.0217,4.0217,4.1254,4.2391,4.301,4.4177,4.5155,0.0,0.0,0.0,0.0,0.0,0.0,0.0,0.0,0.0,0.0,0.0,0.0,0.0,0.0,0.0,0.0,0.0,4.8522,4.848,4.9403,5.0,5.0064,4.9892,4.9936,5.0205,5.0537,5.1334,5.2538,5.1726,5.098,5.0448,5.2452,5.2311,5.0472,5.0472,4.9861,4.8947,4.8947,4.9007,4.9292,5.1063,5.2869,5.4741,5.6688,5.8779,6.0505,5.9628,5.8896,5.8146,5.716,5.7174,5.7804,5.9023,6.1045,6.2907,6.2925,6.274,6.2214,6.0989,5.9891,5.9099,5.9099,5.9099,5.9099,5.9099,5.9099,5.9099,5.9099,5.9099,5.9099,5.9099,5.9099,5.9099,5.9099,5.9099,5.9099,5.9099,5.9099,5.9099,5.9099,5.9099,5.9099,5.9099,5.9099,5.9099,5.9099,5.9099,5.9099,5.9099,5.9099,5.9099,5.9099,6.015,6.015,5.9099,6.0176,6.0124,5.9099,5.9099,5.9099,2.2134,2.6692,3.1495,3.4099,3.7165,3.9541,3.9541,4.0576,4.1703,0.0,4.3539,0.0,0.0,0.0,0.0,0.0,0.0,0.0,0.0,0.0,0.0,0.0,0.0,0.0,0.0,0.0,0.0,0.0,4.7109,4.7397,4.7156,4.7791,4.8314,4.8666,4.782,4.8045,4.9512,4.8178,4.8614,5.0768,5.0602,5.0493,5.0397,5.0724,5.0236,4.9068,4.9068,4.8506,4.7578,4.7578,4.7908,4.8609,5.0347,5.2167,5.4025,5.6492,5.7608,5.7992,5.8447,5.7624,5.635,5.6186,5.5877,5.5821,5.7019,5.8073,5.8991,5.9433,5.9998,6.0307,5.9558,5.9234,5.9099,5.9099,5.9099,5.9099,5.9099,5.9099,5.9099,5.9099,5.9099,5.9099,5.9099,5.9099,5.9099,5.9099,5.9099,5.9099,5.9099,5.9099,5.9099,5.9099,5.9099,5.9099,5.9099,5.9099,5.9099,5.9099,5.9099,5.9099,5.9099,5.9099,5.9099,5.9099,5.9258,5.9258,5.9099,5.9258,5.9258,5.9099,5.9099,5.9099,2.3471,2.7051,3.0628,3.3709,3.5878,3.7387,3.8105,3.902,3.9906,4.0576,4.1474,0.0,0.0,0.0,0.0,0.0,0.0,0.0,0.0,0.0,0.0,0.0,0.0,0.0,0.0,0.0,0.0,0.0,4.6022,4.6133,4.6011,4.6255,4.6478,4.6658,4.6232,4.6365,4.709,4.6365,4.6518,4.7554,4.8719,4.8883,4.81,4.8693,4.888,4.882,4.882,4.8231,4.7309,4.7309,4.7489,4.7853,4.9001,5.0539,5.2272,5.3765,5.5223,5.6402,5.6061,5.5969,5.5875,5.52,5.5082,5.5551,5.7465,5.8052,5.8356,5.956,5.9989,5.9936,5.9265,5.9099,5.9099,5.9099,5.9099,5.9099,5.9099,5.9099,5.9099,5.9099,5.88,5.8653,5.9039,5.9099,5.9099,5.9099,5.9099,5.9099,5.9099,5.9099,5.9099,5.9099,5.9099,5.9099,5.9099,5.9099,5.9099,5.9099,5.9099,5.9099,5.9099,5.9458,5.9488,5.9129,5.9099,5.9099,5.9099,5.9099,5.9099,5.9099,5.9099,5.9308,2.3699,2.6051,2.8427,3.1883,3.3769,3.51,3.6357,3.7315,3.8153,0.0,0.0,0.0,0.0,0.0,0.0,0.0,0.0,0.0,0.0,0.0,0.0,0.0,0.0,0.0,0.0,0.0,0.0,0.0,4.5185,4.5155,4.4825,4.4945,4.4975,4.4796,4.4796,4.4885,4.5035,4.5214,4.5214,4.5056,4.68,4.7074,4.6073,4.6996,4.7702,4.8163,4.8347,4.7988,4.7309,4.7309,4.7309,4.7391,4.8347,4.9503,5.0775,5.1901,5.3342,5.4623,5.3895,5.4244,5.4894,5.4181,5.4401,5.539,5.766,5.7879,5.7782,5.9688,5.9815,5.9287,5.9128,5.9099,5.9099,5.9099,5.9099,5.9099,5.9099,5.9099,5.9099,5.9099,5.871,5.8504,5.9009,5.9099,5.9099,5.9099,5.9099,5.9099,5.9099,5.9099,5.9099,5.9099,5.9099,5.9099,5.9099,5.9099,5.9099,5.9099,5.9249,5.9338,5.9338,5.9997,6.0116,5.9638,5.9608,5.9458,5.9099,5.9279,5.9279,5.9129,5.9458,5.9787,2.1495,2.333,2.5334,2.7423,3.0326,3.3006,3.4338,0.0,3.6943,0.0,0.0,0.0,0.0,0.0,0.0,0.0,0.0,0.0,0.0,0.0,0.0,0.0,0.0,0.0,0.0,0.0,0.0,0.0,4.4945,4.4766,4.3469,4.3997,4.4057,4.3409,4.3379,4.3728,4.4356,4.4975,4.4975,4.4356,4.5098,4.5428,4.5364,4.6065,4.6385,4.6475,4.7096,4.7352,4.7309,4.7309,4.7309,4.7477,4.9145,4.9874,5.0248,5.2633,5.2913,5.2182,5.2737,5.2719,5.2492,5.3073,5.3713,5.4614,5.6519,5.6287,5.5882,5.8288,5.8141,5.7558,5.8797,5.9099,5.9099,5.9099,5.9099,5.9099,5.9099,5.9099,5.9099,5.9099,5.9069,5.9069,5.9099,5.9099,5.9099,5.9099,5.9099,5.9099,5.9099,5.9099,5.9099,5.9099,5.9099,5.9099,5.9099,5.9099,5.9099,5.9099,5.9697,6.0054,6.0054,6.0685,6.1016,6.1014,6.1014,6.0386,5.9099,5.9727,5.9727,5.9129,6.0388,6.0685,2.1345,2.2203,2.343,2.6255,2.8171,2.9817,3.1554,3.3305,3.4847,3.5715,0.0,0.0,0.0,0.0,0.0,0.0,0.0,0.0,0.0,0.0,0.0,0.0,0.0,0.0,0.0,0.0,0.0,0.0,0.0,4.3389,4.329,4.315,4.315,4.3309,4.329,4.3429,4.3668,4.309,4.309,4.3668,4.3509,4.3888,4.4676,4.4895,4.5254,4.5693,4.6381,4.6899,4.7309,4.7309,4.7309,4.7352,4.7994,4.8762,4.9626,5.052,5.11,5.1486,5.1728,5.1994,5.2247,5.2486,5.3294,5.4469,5.5923,5.5823,5.5696,5.8189,5.8009,5.7393,5.874,5.9099,5.9099,5.9099,5.9099,5.9099,5.9099,5.877,5.859,5.9009,5.877,5.8593,5.9039,5.9099,5.9099,5.9099,5.9099,5.9099,5.9099,5.9099,5.9099,5.9099,5.9099,5.9099,5.9099,5.9099,5.9279,5.9697,5.9994,6.0266,6.0715,6.1403,6.1553,6.1106,6.1523,6.1283,6.0386,6.0625,6.0386,5.9757,6.0685,6.0984,2.0776,2.1186,2.2054,2.4866,2.5926,2.6884,2.9295,3.0881,3.2168,0.0,0.0,0.0,0.0,0.0,0.0,0.0,0.0,0.0,0.0,0.0,0.0,0.0,0.0,0.0,0.0,0.0,0.0,0.0,0.0,0.0,4.2622,4.2271,4.2241,4.2651,4.2651,4.2651,4.2651,4.2062,4.2062,4.2651,4.2671,4.305,4.3688,4.4107,4.4556,4.5005,4.5672,4.633,4.6958,4.7219,4.7309,4.7309,4.7309,4.7848,4.8678,4.9127,4.9845,5.0631,5.1056,5.1475,5.2019,5.2859,5.3477,5.4266,5.6295,5.6131,5.5696,5.8189,5.8009,5.7393,5.874,5.9099,5.9099,5.9099,5.9099,5.9099,5.9099,5.877,5.859,5.9009,5.874,5.859,5.9039,5.9099,5.9099,5.9099,5.9099,5.9099,5.9099,5.9099,5.9099,5.9099,5.9099,5.9189,5.9428,5.9428,5.9727,6.0386,6.0625,6.0954,6.1433,6.2061,6.2211,6.1792,6.2211,6.2211,6.1762,6.1553,6.1104,6.0446,6.1343,6.1762,0.0,0.0,0.0,2.3041,2.352,2.4418,2.7709,0.0,2.9086,0.0,0.0,0.0,0.0,0.0,0.0,0.0,0.0,0.0,0.0,0.0,0.0,0.0,0.0,0.0,0.0,0.0,0.0,0.0,4.1373,4.1373,4.1403,4.1403,4.1403,4.1403,4.1373,4.1373,4.1403,4.2021,4.2021,4.1403,4.2622,4.294,4.244,4.3688,4.4237,4.4296,4.4975,4.5633,4.63,4.701,4.7279,4.7279,4.7309,4.7309,4.7489,4.8798,4.9277,4.9486,5.075,5.1176,5.1596,5.4122,5.4138,5.3893,5.7551,5.7039,5.5696,5.8139,5.7983,5.7393,5.874,5.9099,5.9099,5.9099,5.9099,5.9099,5.9099,5.9099,5.9099,5.9099,5.9099,5.9099,5.9099,5.9129,5.9129,5.9099,5.9129,5.9129,5.9099,5.9099,5.9099,5.9099,5.9099,5.9368,6.0054,6.0114,6.0386,6.1104,6.1732,6.2121,6.2121,6.2748,6.3108,6.3108,6.3108,6.3108,6.3108,6.245,6.1792,6.1136,6.245,6.3078,1.9708,0.0,0.0,0.0,0.0,0.0,0.0,0.0,0.0,0.0,0.0,0.0,0.0,0.0,0.0,0.0,0.0,0.0,0.0,0.0,0.0,0.0,0.0,0.0,0.0,0.0,0.0,0.0,4.0954,4.0894,4.1373,4.1403,4.1403,4.1403,4.0924,4.0905,4.1403,4.0606,4.0606,4.1403,4.1265,4.1624,4.241,4.275,4.315,4.3609,4.4296,4.4685,4.4925,4.6091,4.657,4.6629,4.713,4.7608,4.8079,4.8438,4.9164,5.0009,5.0368,5.0787,5.1396,5.2584,5.3098,5.347,5.5013,5.5332,5.5524,5.7144,5.735,5.7393,5.874,5.9099,5.9099,5.9099,5.9099,5.9099,5.9099,5.9099,5.9099,5.9099,5.9099,5.9099,5.9099,5.9488,5.9668,5.9189,5.9518,5.9638,5.9159,5.9099,5.9099,5.9099,5.9099,5.9368,6.0054,6.0114,6.0565,6.1762,6.2002,6.2301,6.2808,6.3018,6.3108,6.3108,6.3108,6.3108,6.3108,6.2928,6.248,6.1822,6.2181,6.2659,0.0,0.0,0.0,0.0,0.0,0.0,2.2872,2.392,0.0,0.0,0.0,0.0,0.0,0.0,0.0,0.0,0.0,0.0,0.0,0.0,0.0,0.0,0.0,0.0,0.0,3.9409,3.9709,4.0116,4.0038,4.0157,4.0546,4.0576,4.0576,4.0576,4.0187,4.0187,4.0546,4.0068,4.0068,4.0576,4.1014,4.1493,4.2021,4.2541,4.297,4.3319,4.3728,4.3878,4.3967,4.5014,4.5792,4.636,4.704,4.7549,4.7908,4.8199,4.8955,4.9883,5.0129,5.0637,5.1389,5.2577,5.306,5.3416,5.4583,5.5058,5.5448,5.6735,5.7483,5.8112,5.889,5.9099,5.9099,5.9099,5.9099,5.9099,5.9099,5.9099,5.9099,5.9099,5.9099,5.9099,5.9099,5.9638,5.9847,5.9189,5.9668,5.9847,5.9189,5.9099,5.9219,5.9488,5.9518,5.9907,6.0835,6.0924,6.1373,6.245,6.2539,6.2689,6.3078,6.3108,6.3108,6.3108,6.3108,6.3108,6.3108,6.3108,6.2898,6.2539,6.2539,6.2748,0.0,0.0,0.0,0.0,0.0,0.0,2.2104,2.2124,2.2113,0.0,0.0,0.0,0.0,0.0,0.0,0.0,0.0,0.0,0.0,0.0,0.0,0.0,0.0,0.0,3.7387,3.7943,3.829,3.829,3.8901,3.9302,3.9302,3.9361,3.9391,3.9391,3.9391,3.9391,3.9391,4.0008,4.0008,3.9421,4.1224,4.1792,4.1343,4.2442,4.307,4.322,4.322,4.325,4.3349,4.4027,4.5044,4.6241,4.695,4.7249,4.7369,4.7967,4.8648,4.9366,4.989,5.0578,5.1506,5.3231,5.3488,5.3447,5.5265,5.5457,5.5359,5.6705,5.8082,5.9099,5.9099,5.9099,5.9099,5.9099,5.9099,5.9099,5.9099,5.9099,5.9099,5.9099,5.9099,5.9099,5.9099,5.9638,5.9847,5.9189,5.9727,5.9937,5.9189,5.9159,5.9428,6.0054,6.0114,6.0625,6.1972,6.2091,6.2391,6.3078,6.3108,6.3108,6.3108,6.3108,6.3108,6.3108,6.3108,6.3108,6.3108,6.3108,6.3108,6.3108,6.3108,6.3108,0.0,0.0,0.0,0.0,0.0,0.0,2.1246,2.1814,2.2583,0.0,0.0,0.0,0.0,0.0,0.0,0.0,0.0,0.0,0.0,0.0,0.0,0.0,0.0,0.0,3.7387,3.7524,3.7614,3.7614,3.8212,3.8601,3.8601,3.9092,3.9391,3.9391,3.9391,3.9391,3.9391,3.9541,3.9541,3.9391,3.978,4.0217,4.0606,4.0846,4.1534,4.2571,4.2571,4.2851,4.3349,4.4027,4.4775,4.5574,4.6241,4.6809,4.7309,4.7459,4.8259,4.9307,4.9426,5.0212,5.1342,5.2255,5.2461,5.2654,5.4097,5.448,5.479,5.6585,5.8082,5.9099,5.9099,5.9099,5.9099,5.9099,5.9099,5.9099,5.9099,5.9099,5.9099,5.9099,5.9099,5.9099,5.9099,5.9638,5.9847,5.9189,6.0146,6.0475,5.9249,5.9578,5.9964,6.0114,6.0114,6.0625,6.1972,6.2091,6.2391,6.3078,6.3108,6.3108,6.3108,6.3108,6.3108,6.3108,6.3108,6.3108,6.3108,6.3108,6.3108,6.3108,6.3108,6.3108,0.0,0.0,0.0,2.1695,0.0,0.0,0.0,2.1186,2.1385,2.2064,2.1684,0.0,0.0,0.0,0.0,0.0,0.0,0.0,0.0,0.0,0.0,0.0,0.0,0.0,3.5908,3.6567,3.7075,3.7375,3.7704,3.7913,3.7913,3.8542,3.8901,3.8901,3.9212,3.9391,3.9391,3.9391,3.9391,3.9391,3.972,4.0068,4.0427,4.1104,4.1762,4.241,4.272,4.301,4.3319,4.3668,4.4207,4.4915,4.5912,4.651,4.6839,4.7189,4.8169,4.9277,4.9277,5.0122,5.1236,5.1588,5.1947,5.2336,5.2995,5.4132,5.5448,5.6735,5.8082,5.9099,5.9099,5.9099,5.9099,5.9099,5.9099,5.9099,5.9099,5.9099,5.9099,5.9099,5.9099,5.9099,5.9099,5.9638,5.9847,5.9189,5.9967,6.0236,5.9249,5.9398,5.9847,6.0535,6.0595,6.1134,6.248,6.26,6.2748,6.3078,6.3108,6.3108,6.3108,6.3108,6.3108,6.3108,6.3108,6.3108,6.3108,6.3108,6.3108,6.3108,6.3108,6.3108,0.0,0.0,0.0,0.0,0.0,2.1595,0.0,0.0,0.0,2.1126,2.0447,0.0,0.0,0.0,0.0,0.0,0.0,0.0,0.0,0.0,0.0,0.0,0.0,0.0,0.0,3.5176,3.6088,3.6969,3.6926,3.6956,3.7225,3.7853,3.8212,3.8212,3.8733,3.9062,3.9212,3.9212,3.9272,3.9421,3.9948,4.0217,4.0247,4.1343,4.1961,4.2231,4.2731,4.307,4.329,4.329,4.3638,4.4237,4.5583,4.6181,4.639,4.707,4.8079,4.9127,4.9269,5.0032,5.1026,5.1146,5.1648,5.2217,5.2336,5.4097,5.6162,5.6885,5.7962,5.8949,5.9069,5.9099,5.9099,5.9099,5.9099,5.9099,5.9099,5.9099,5.9099,5.9099,5.9099,5.9099,5.9099,5.9548,5.9727,5.9189,5.9668,5.9847,5.9189,5.9219,5.9757,6.0956,6.1076,6.1642,6.2988,6.3108,6.3108,6.3108,6.3108,6.3108,6.3108,6.3108,6.3108,6.3108,6.3108,6.3108,6.3108,6.3108,6.3108,6.3108,6.3108,6.3108,0.0,0.0,0.0,0.0,2.3879,0.0,0.0,0.0,2.1196,2.0157,0.0,2.0118,2.1555,0.0,0.0,0.0,0.0,0.0,0.0,0.0,0.0,0.0,0.0,0.0,0.0,3.3215,3.3708,3.5579,3.5176,3.5356,3.6553,3.7195,3.7524,3.7524,3.7567,3.7913,3.8512,3.8512,3.8811,3.9391,3.9481,3.9511,3.9511,3.966,4.0397,4.1523,4.1583,4.2252,4.329,4.329,4.3349,4.3549,4.4885,4.5783,4.639,4.707,4.7758,4.8498,4.9097,4.9733,5.0405,5.0996,5.1648,5.2306,5.2929,5.4127,5.5538,5.6765,5.7633,5.8354,5.8949,5.9099,5.9099,5.9099,5.9099,5.9099,5.9099,5.9099,5.9099,5.9099,5.9099,5.9099,5.9099,5.9159,5.9189,5.9129,5.9668,5.9847,5.9189,5.9608,6.0266,6.1044,6.1076,6.1642,6.2988,6.3108,6.3108,6.3108,6.3108,6.3108,6.3108,6.3108,6.3108,6.3108,6.3108,6.3108,6.3108,6.3108,6.3108,6.3108,6.3108,6.3108,0.0,0.0,0.0,0.0,0.0,0.0,2.1834,0.0,2.0597,0.0,0.0,0.0,0.0,0.0,0.0,0.0,2.2802,0.0,0.0,0.0,0.0,0.0,0.0,0.0,0.0,0.0,0.0,0.0,3.3066,3.3754,3.4711,3.5729,3.6477,3.6866,3.7225,3.7734,3.8409,3.8409,3.8751,3.9391,3.9391,3.9391,3.9421,3.978,4.0487,4.1433,4.1792,4.2462,4.329,4.329,4.3549,4.3967,4.4915,4.5454,4.5873,4.692,4.7728,4.8349,4.8618,4.9157,4.9793,5.0398,5.0817,5.1295,5.2755,5.3862,5.497,5.6615,5.7573,5.8234,5.8949,5.9099,5.9099,5.9099,5.9099,5.9099,5.9099,5.9099,5.9099,5.9099,5.9099,5.9099,5.9099,5.9099,5.9099,5.9099,5.9338,5.9428,5.9129,5.9668,6.0356,6.1016,6.1463,6.2061,6.3018,6.3108,6.3108,6.3108,6.3108,6.3108,6.3108,6.3108,6.3108,6.3108,6.3108,6.3108,6.3108,6.3108,6.3108,6.3108,6.3108,6.3108,2.3969,0.0,0.0,0.0,0.0,0.0,0.0,0.0,0.0,0.0,0.0,0.0,0.0,0.0,2.1695,0.0,0.0,2.2183,0.0,0.0,0.0,0.0,0.0,0.0,0.0,0.0,0.0,0.0,0.0,3.1958,3.3155,3.4322,3.534,3.6178,3.6836,3.7464,3.8123,3.8302,3.8751,3.9391,3.9391,3.9391,3.9421,3.99,4.0576,4.1433,4.1912,4.2551,4.329,4.329,4.3698,4.4377,4.5035,4.5394,4.5723,4.689,4.7608,4.8027,4.8259,4.8858,4.9613,5.0069,5.0315,5.0817,5.2636,5.3533,5.4341,5.6286,5.7334,5.7965,5.865,5.8979,5.9099,5.9099,5.9099,5.9099,5.9099,5.9099,5.9099,5.9099,5.9099,5.9099,5.9099,5.9099,5.9099,5.9099,5.9099,5.9159,5.9338,5.9787,6.0416,6.1283,6.1822,6.2361,6.3048,6.3108,6.3108,6.3108,6.3108,6.3108,6.3108,6.3108,6.3108,6.3108,6.3108,6.3108,6.3108,6.3108,6.3108,6.3108,6.3108,6.3108,0.0,0.0,0.0,2.5292,0.0,0.0,0.0,0.0,2.3131,0.0,0.0,0.0,0.0,0.0,2.1695,0.0,0.0,0.0,0.0,0.0,0.0,0.0,0.0,0.0,0.0,0.0,0.0,0.0,0.0,0.0,3.2392,3.3185,3.4173,3.5489,3.6178,3.6806,3.7434,3.8063,3.8751,3.9391,3.9391,3.9391,3.9391,3.9421,4.0157,4.1403,4.1433,4.2132,4.329,4.329,4.3698,4.4377,4.5035,4.5693,4.636,4.7018,4.7309,4.7429,4.8057,4.9134,5.0166,5.0196,5.0637,5.1415,5.2809,5.3228,5.3648,5.5653,5.6671,5.7304,5.7965,5.8593,5.9099,5.9099,5.9099,5.9099,5.9099,5.9099,5.9099,5.9099,5.9099,5.9099,5.9099,5.9099,5.9099,5.9099,5.9099,5.9338,5.9967,6.0114,6.0595,6.1912,6.2091,6.2361,6.3048,6.3108,6.3108,6.3108,6.3108,6.3108,6.3108,6.3108,6.3108,6.3108,6.3108,6.3108,6.3108,6.3108,6.3108,6.3108,6.3108,6.3108,0.0,0.0,2.7051,2.6153,0.0,0.0,0.0,0.0,0.0,0.0,0.0,0.0,0.0,0.0,0.0,0.0,0.0,0.0,0.0,0.0,0.0,0.0,0.0,0.0,0.0,0.0,0.0,0.0,0.0,0.0,0.0,3.2018,3.3455,3.4787,3.5925,3.6776,3.7404,3.8063,3.8751,3.9391,3.9391,3.9391,3.9421,3.984,4.0546,4.1433,4.1852,4.2521,4.329,4.329,4.3967,4.4975,4.5214,4.5992,4.701,4.7219,4.7309,4.7339,4.7549,4.8207,4.9015,4.9464,5.0032,5.0877,5.2665,5.3198,5.3618,5.5623,5.6342,5.6761,5.7816,5.8264,5.8534,5.9009,5.9099,5.9099,5.9099,5.9099,5.9099,5.9099,5.9099,5.9099,5.9099,5.9099,5.9099,5.9099,5.9488,5.9817,6.0057,6.0864,6.1583,6.2061,6.248,6.2868,6.3078,6.3108,6.3108,6.3108,6.3108,6.3108,6.3108,6.3108,6.3108,6.3108,6.3108,6.3108,6.3108,6.3108,6.3108,6.3108,6.3108,6.3108,2.5854,2.6465,0.0,2.6674,2.5944,0.0,2.4167,0.0,0.0,0.0,0.0,0.0,0.0,0.0,0.0,0.0,0.0,0.0,0.0,2.0088,0.0,0.0,0.0,0.0,0.0,0.0,0.0,0.0,0.0,0.0,0.0,0.0,3.2527,3.4099,3.5895,3.7015,3.7387,3.8302,3.8973,3.9391,3.9391,3.9391,3.9421,3.984,4.0546,4.1433,4.1852,4.2521,4.3339,4.3579,4.4317,4.5304,4.5574,4.6352,4.7309,4.7309,4.7309,4.7339,4.7578,4.8087,4.8768,4.9404,5.0062,5.0877,5.2665,5.3198,5.3528,5.5085,5.5983,5.6671,5.7274,5.7962,5.8563,5.9009,5.9099,5.9099,5.9099,5.9099,5.9099,5.9099,5.9099,5.9099,5.9099,5.9099,5.9099,5.9099,5.9668,6.0176,6.0416,6.1403,6.2181,6.2421,6.2838,6.3108,6.3108,6.3108,6.3108,6.3108,6.3108,6.3108,6.3108,6.3108,6.3317,6.3767,6.3347,6.3347,6.3767,6.3347,6.3108,6.3108,6.3108,6.3108]}]]